Date StartTime U_cm/s V_cm/s W_cm/s Ustd_cm/s Vstd_cm/s Wstd_cm/s Uvar_(cm/s)^2 Vvar_(cm/s)^2 Wvar_(cm/s)^2 KE_(m/s)^2 TurbulentKE_(m/s)^2 HorizWindSpeed_cm/s FrictionSpeec_cm/s DragCoef SpeedOfSound_m/s SonicTemperature_C Pressure_mb 
12/31/2013  00:00:00      -37.258      -20.569        0.160       23.812       12.758        9.518      566.997      162.776       90.591        0.132        0.041       42.559        9.927        0.054      333.397        2.685      867.713
12/31/2013  00:01:00      -23.721      -15.680        1.367       29.239       20.113       15.534      854.923      404.521      241.297        0.116        0.075       28.435        9.044        0.101      333.388        2.670      867.725
12/31/2013  00:02:00      -21.915      -33.427        8.078       30.661       37.366       19.263      940.068     1396.241      371.075        0.218        0.135       39.971       13.101        0.107      333.462        2.791      867.730
12/31/2013  00:03:00      -22.543      -44.786        1.748       37.361       37.512       23.231     1395.865     1407.128      539.692        0.293        0.167       50.140       17.695        0.125      333.508        2.868      867.722
12/31/2013  00:04:00       -1.484      -66.163        6.591       28.919       39.205       25.284      836.333     1537.026      639.256        0.372        0.151       66.180       17.862        0.073      333.502        2.859      867.693
12/31/2013  00:05:00      -46.422     -144.055      -15.704       35.780       44.334       34.694     1280.173     1965.495     1203.693        1.380        0.222      151.350       24.374        0.026      333.497        2.849      867.633
12/31/2013  00:06:00      -77.303     -124.549       -7.181       36.445       43.680       28.543     1328.259     1907.971      814.677        1.279        0.203      146.588       21.319        0.021      333.470        2.804      867.561
12/31/2013  00:07:00      -31.111      -57.022        3.827       41.382       44.840       22.601     1712.441     2010.622      510.826        0.423        0.212       64.957       20.446        0.099      333.541        2.922      867.493
12/31/2013  00:08:00      -22.705       11.642       23.427       19.377       25.992       22.681      375.467      675.605      514.411        0.138        0.078       25.516       11.211        0.193      333.443        2.760      867.464
12/31/2013  00:09:00      -14.307      -30.030        3.190       25.419       34.147       24.939      646.120     1165.995      621.949        0.177        0.122       33.264       22.735        0.467      333.478        2.819      867.492
12/31/2013  00:10:00       -4.798        4.220       10.084        7.399       15.459       13.764       54.746      238.969      189.450        0.031        0.024        6.390       10.223        2.560      333.513        2.877      867.552
12/31/2013  00:11:00      -41.969      -26.288        6.473       46.441       37.902       19.901     2156.730     1436.553      396.059        0.324        0.199       49.522       17.278        0.122      333.513        2.876      867.614
12/31/2013  00:12:00      -70.073      -47.741       11.774       60.039       35.714       32.919     3604.648     1275.502     1083.690        0.664        0.298       84.790       29.331        0.120      333.451        2.773      867.610
12/31/2013  00:13:00      -89.397      -78.194        7.492       48.176       39.558       30.425     2320.930     1564.867      925.682        0.949        0.241      118.769       26.183        0.049      333.363        2.629      867.573
12/31/2013  00:14:00      -38.366      -34.331        9.271       47.159       29.344       24.960     2223.925      861.042      622.990        0.322        0.185       51.483       25.563        0.247      333.406        2.700      867.525
12/31/2013  00:15:00      -12.634      -29.713       10.515       21.921       24.721       16.455      480.526      611.129      270.759        0.126        0.068       32.288       15.020        0.216      333.454        2.779      867.497
12/31/2013  00:16:00       12.655      -15.458       17.319       15.900       21.095       13.154      252.801      445.013      173.030        0.078        0.044       19.978       14.790        0.548      333.495        2.846      867.496
12/31/2013  00:17:00      -40.006      -24.612        1.029       29.973       27.140       10.182      898.361      736.584      103.668        0.197        0.087       46.970       17.156        0.133      333.516        2.880      867.540
12/31/2013  00:18:00      -57.176      -16.594       -5.383       12.113       17.448        9.181      146.722      304.446       84.296        0.205        0.027       59.536        5.447        0.008      333.548        2.936      867.567
12/31/2013  00:19:00      -23.699       -9.283        1.446       16.566       10.549       10.058      274.445      111.289      101.154        0.057        0.024       25.452        8.315        0.107      333.500        2.855      867.570
12/31/2013  00:20:00      -19.655        5.639        3.449       18.688       10.070       15.846      349.249      101.414      251.104        0.057        0.035       20.448       10.062        0.242      333.580        2.987      867.551
12/31/2013  00:21:00      -21.300       16.783       30.018       19.611       11.747        9.636      384.582      137.988       92.849        0.113        0.031       27.118       10.385        0.147      333.571        2.973      867.532
12/31/2013  00:22:00      -14.406       18.803       23.489       13.167       17.261       12.715      173.368      297.949      161.678        0.087        0.032       23.687        7.288        0.095      333.577        2.984      867.512
12/31/2013  00:23:00      -18.526        8.083        4.786       13.272       12.591       12.973      176.139      158.544      168.302        0.047        0.025       20.212       10.800        0.286      333.511        2.874      867.503
12/31/2013  00:24:00        6.065       15.996        1.021       11.838        6.331        7.314      140.133       40.077       53.499        0.026        0.012       17.107        5.437        0.101      333.563        2.959      867.501
12/31/2013  00:25:00      -23.486        7.868       -9.787       12.573        8.511        6.806      158.093       72.430       46.323        0.049        0.014       24.769        2.003        0.007      333.542        2.925      867.496
12/31/2013  00:26:00      -28.165       21.431       -4.944       10.222        9.649        7.905      104.487       93.107       62.485        0.077        0.013       35.392        5.371        0.023      333.589        3.003      867.483
12/31/2013  00:27:00      -47.572       15.471       -6.127       12.559       11.885        8.672      157.722      141.256       75.211        0.146        0.019       50.025        8.110        0.026      333.562        2.958      867.468
12/31/2013  00:28:00      -73.665      -28.765       -6.308       16.336       18.101        8.075      266.867      327.644       65.198        0.348        0.033       79.082        6.815        0.007      333.470        2.805      867.461
12/31/2013  00:29:00     -131.033      -44.916       -8.488       11.986       12.990        9.812      143.656      168.736       96.280        0.983        0.020      138.518        5.099        0.001      333.255        2.449      867.477
12/31/2013  00:30:00      -84.845      -16.481        1.659       44.084       27.401       13.455     1943.407      750.824      181.031        0.517        0.144       86.431       14.993        0.030      333.275        2.483      867.483
12/31/2013  00:31:00      -16.819        8.908        6.242       17.823       19.558       12.651      317.655      382.521      160.035        0.063        0.043       19.032       12.351        0.421      333.451        2.773      867.453
12/31/2013  00:32:00        4.727        2.907       -2.072       11.691       16.551        9.051      136.679      273.944       81.922        0.026        0.025        5.549        8.243        2.207      333.495        2.845      867.420
12/31/2013  00:33:00       -2.943       -5.371       -1.813       10.814       14.304       10.132      116.938      204.607      102.663        0.023        0.021        6.124        8.064        1.734      333.641        3.090      867.421
12/31/2013  00:34:00       -1.895        8.139        7.762        7.758        7.916        8.521       60.183       62.658       72.600        0.016        0.010        8.357        5.156        0.381      333.675        3.145      867.419
12/31/2013  00:35:00       33.013       34.955       11.535       14.069       17.594       13.865      197.935      309.533      192.242        0.157        0.035       48.080       15.562        0.105      333.594        3.011      867.408
12/31/2013  00:36:00       54.776       38.820        2.074       12.338       16.043       15.776      152.229      257.384      248.889        0.258        0.033       67.137       12.232        0.033      333.505        2.862      867.386
12/31/2013  00:37:00       26.605       41.698       -2.629       23.442       14.215       11.350      549.550      202.068      128.820        0.167        0.044       49.462        8.309        0.028      333.477        2.818      867.374
12/31/2013  00:38:00       -0.767       53.355      -10.748        5.080        6.928        5.876       25.806       47.997       34.532        0.154        0.005       53.361        3.798        0.005      333.640        3.087      867.371
12/31/2013  00:39:00       -8.062       60.218       -5.550       18.294       11.662        5.336      334.673      135.994       28.472        0.211        0.025       60.755        5.450        0.008      333.621        3.054      867.370
12/31/2013  00:40:00      -20.740       56.086       -3.000       22.980       29.647       15.418      528.100      878.940      237.722        0.261        0.082       59.798       14.539        0.059      333.589        3.003      867.369
12/31/2013  00:41:00      -54.899       -6.437       -1.502       13.536       21.963       11.758      183.233      482.363      138.242        0.193        0.040       55.275       10.064        0.033      333.269        2.473      867.392
12/31/2013  00:42:00     -102.998      -42.406      -15.073       27.600       18.955       13.997      761.751      359.294      195.920        0.698        0.066      111.386        9.997        0.008      333.022        2.065      867.408
12/31/2013  00:43:00      -89.565      -28.652      -11.021       21.409       27.696       15.579      458.354      767.069      242.701        0.522        0.073       94.036       11.214        0.014      332.985        2.003      867.405
12/31/2013  00:44:00      -95.025       -9.638       -9.524       50.071       21.093       14.091     2507.094      444.907      198.556        0.618        0.158       95.513       14.509        0.023      333.041        2.096      867.378
12/31/2013  00:45:00      -24.160        2.023        2.181       37.327       22.328       18.752     1393.286      498.553      351.628        0.142        0.112       24.245       18.745        0.598      333.366        2.633      867.367
12/31/2013  00:46:00      -68.411      -14.112       -4.745       23.102       29.018       19.186      533.689      842.027      368.099        0.332        0.087       69.851       14.816        0.045      333.367        2.635      867.375
12/31/2013  00:47:00      -19.869      -37.622       -8.518       22.041       14.879        9.405      485.818      221.395       88.463        0.134        0.040       42.546        5.212        0.015      333.262        2.460      867.388
12/31/2013  00:48:00        1.061      -26.568       -5.892       12.695       10.075       10.205      161.162      101.496      104.147        0.055        0.018       26.589        7.109        0.071      333.388        2.670      867.389
12/31/2013  00:49:00       15.924        5.293       13.073       19.635       13.029       11.595      385.532      169.764      134.455        0.057        0.034       16.781        9.006        0.288      333.469        2.805      867.377
12/31/2013  00:50:00       22.439       29.941        0.706       21.972       18.598       16.546      482.766      345.899      273.768        0.125        0.055       37.416       14.222        0.144      333.431        2.740      867.377
12/31/2013  00:51:00       -9.595       14.824       -6.965        9.798       15.743        3.401       96.005      247.857       11.566        0.036        0.018       17.658        2.175        0.015      333.542        2.923      867.407
12/31/2013  00:52:00      -86.890      -18.886      -12.066       23.945       16.518       12.506      573.360      272.856      156.409        0.453        0.050       88.919       12.503        0.020      333.134        2.251      867.435
12/31/2013  00:53:00      -71.450       -5.607       -8.841       17.957       18.135       12.477      322.471      328.862      155.683        0.301        0.040       71.670        9.077        0.016      333.055        2.119      867.430
12/31/2013  00:54:00      -43.427       -1.266       -9.444       13.596       13.601       15.264      184.841      184.988      233.000        0.129        0.030       43.446       12.371        0.081      333.120        2.226      867.390
12/31/2013  00:55:00      -29.348       19.669       -5.191       19.866       17.907       13.127      394.655      320.668      172.309        0.108        0.044       35.330        8.846        0.063      333.512        2.875      867.344
12/31/2013  00:56:00      -20.260       -9.818       -2.664       14.549       19.680       11.746      211.665      387.316      137.967        0.063        0.037       22.513       13.885        0.380      333.333        2.579      867.310
12/31/2013  00:57:00        3.996       -3.588        4.580       14.285       19.351       11.284      204.065      374.458      127.319        0.038        0.035        5.371       10.064        3.511      333.324        2.561      867.269
12/31/2013  00:58:00       70.025       34.019        7.131       19.570       13.848       13.648      382.981      191.775      186.273        0.344        0.038       77.852        6.776        0.008      333.476        2.815      867.233
12/31/2013  00:59:00       74.557       26.649        3.159       19.191       14.991       13.734      368.298      224.725      188.633        0.353        0.039       79.177        8.141        0.011      333.302        2.528      867.223
12/31/2013  01:00:00       -3.724       -3.861       -1.360        9.775        4.826        6.340       95.554       23.288       40.200        0.009        0.008        5.365        5.449        1.032      333.382        2.659      867.219
12/31/2013  01:01:00      -25.441      -12.357      -10.356        8.091       11.721        8.015       65.456      137.374       64.235        0.059        0.013       28.284        7.234        0.065      333.377        2.652      867.209
12/31/2013  01:02:00      -51.966        9.490       -8.754       14.866        9.215       10.431      220.986       84.917      108.797        0.164        0.021       52.826        9.540        0.033      333.196        2.353      867.220
12/31/2013  01:03:00     -104.707        0.639      -16.852       14.740       10.816        8.658      217.282      116.979       74.961        0.583        0.020      104.709        7.030        0.005      333.178        2.321      867.265
12/31/2013  01:04:00     -100.167      -15.096      -11.844       26.131       15.392       14.173      682.844      236.902      200.881        0.576        0.056      101.298       14.676        0.021      333.193        2.347      867.307
12/31/2013  01:05:00      -79.344      -15.071       -5.044       20.545       22.496       14.272      422.089      506.060      203.693        0.384        0.057       80.763       12.165        0.023      333.190        2.338      867.304
12/31/2013  01:06:00      -77.489       11.656       -8.435       12.827        8.499        7.878      164.530       72.230       62.066        0.326        0.015       78.360        5.655        0.005      333.248        2.438      867.283
12/31/2013  01:07:00      -71.350        3.020      -14.113       18.432       18.499       10.994      339.752      342.229      120.868        0.305        0.040       71.414       11.148        0.024      333.313        2.545      867.278
12/31/2013  01:08:00      -69.748        9.480      -14.476       28.965       18.283       15.143      838.991      334.258      229.309        0.328        0.070       70.389       11.728        0.028      333.366        2.633      867.297
12/31/2013  01:09:00      -38.659       -9.513       -1.825       25.936       24.083       18.009      672.672      580.014      324.324        0.158        0.079       39.812       15.333        0.148      333.487        2.833      867.329
12/31/2013  01:10:00      -26.533      -30.520       -0.822       30.642       27.632       18.464      938.955      763.527      340.931        0.184        0.102       40.441       17.939        0.197      333.343        2.596      867.347
12/31/2013  01:11:00        2.176      -14.907        9.924       22.057       15.542       18.694      486.501      241.553      349.468        0.070        0.054       15.065       10.576        0.493      333.419        2.721      867.336
12/31/2013  01:12:00      -30.546      -16.482        4.025       19.471       19.928       13.558      379.129      397.125      183.809        0.109        0.048       34.709       14.452        0.173      333.326        2.565      867.320
12/31/2013  01:13:00      -49.881      -14.923       -6.584       17.758       11.319       10.695      315.341      128.114      114.379        0.166        0.028       52.066        6.641        0.016      333.194        2.348      867.305
12/31/2013  01:14:00      -23.348      -12.725       -1.785       19.146       17.163       13.056      366.585      294.552      170.449        0.077        0.042       26.591       10.173        0.146      333.246        2.434      867.293
12/31/2013  01:15:00      -44.733      -15.145       -5.233       11.483        9.822        8.343      131.853       96.469       69.606        0.128        0.015       47.227        3.497        0.005      333.365        2.631      867.287
12/31/2013  01:16:00      -63.764       -2.625       -7.286        9.267        5.319        4.611       85.870       28.294       21.257        0.213        0.007       63.818        1.836        0.001      333.204        2.364      867.290
12/31/2013  01:17:00      -63.222      -29.106       -8.963       10.046       12.200        5.529      100.921      148.842       30.573        0.260        0.014       69.600        3.811        0.003      333.224        2.398      867.292
12/31/2013  01:18:00      -61.488      -29.731       -8.119       10.140        9.340        7.065      102.818       87.238       49.907        0.249        0.012       68.299        5.699        0.007      333.163        2.296      867.295
12/31/2013  01:19:00      -59.784       -7.645       -9.401       14.780       13.941        9.006      218.453      194.340       81.100        0.211        0.025       60.271        7.399        0.015      333.209        2.373      867.279
12/31/2013  01:20:00      -52.101       12.752       -5.727       13.193        8.567        7.653      174.056       73.399       58.572        0.161        0.015       53.639        5.000        0.009      333.277        2.486      867.267
12/31/2013  01:21:00      -71.783       -5.268       -9.413       20.294       15.698        9.037      411.832      246.422       81.664        0.300        0.037       71.976        9.139        0.016      333.316        2.550      867.289
12/31/2013  01:22:00      -80.768      -43.606       -9.694       19.277       14.486        8.109      371.584      209.854       65.763        0.458        0.032       91.788        5.061        0.003      333.200        2.356      867.344
12/31/2013  01:23:00      -73.959      -47.207      -13.436       20.601       17.056       13.566      424.421      290.912      184.028        0.439        0.045       87.740        9.967        0.013      333.174        2.315      867.385
12/31/2013  01:24:00      -59.669      -24.401       -9.706       14.095       15.151       11.817      198.676      229.544      139.649        0.241        0.028       64.466        9.368        0.021      333.079        2.158      867.386
12/31/2013  01:25:00      -42.222      -19.030       -7.176       15.564       13.045       10.857      242.243      170.164      117.868        0.136        0.027       46.312        8.366        0.033      333.129        2.241      867.360
12/31/2013  01:26:00      -52.237      -16.104       -3.601       12.003        8.077        7.265      144.070       65.231       52.784        0.163        0.013       54.663        5.984        0.012      333.227        2.403      867.320
12/31/2013  01:27:00      -62.779      -10.614       -9.301       13.781       10.696        8.372      189.906      114.401       70.091        0.226        0.019       63.670        4.309        0.005      333.272        2.478      867.292
12/31/2013  01:28:00      -60.480      -12.481      -11.671        7.002        9.112        6.046       49.028       83.026       36.554        0.206        0.008       61.755        3.119        0.003      333.293        2.514      867.285
12/31/2013  01:29:00      -70.661      -17.062      -14.139        8.948        7.985        6.529       80.071       63.764       42.626        0.284        0.009       72.692        4.069        0.003      333.256        2.451      867.289
12/31/2013  01:30:00      -98.690      -38.535      -12.981       13.463       11.646        7.173      181.263      135.637       51.453        0.588        0.018      105.947        2.815        0.001      333.094        2.183      867.285
12/31/2013  01:31:00      -46.497      -64.784       -2.709       24.090       13.616       15.852      580.329      185.386      251.289        0.369        0.051       79.743       10.649        0.018      333.146        2.269      867.268
12/31/2013  01:32:00      -30.429      -36.089        2.022       22.195       12.045       14.782      492.628      145.088      218.516        0.154        0.043       47.205       13.993        0.088      333.223        2.396      867.256
12/31/2013  01:33:00      -61.401      -27.269       -2.396       23.635       11.096        9.431      558.630      123.129       88.945        0.264        0.039       67.184        9.355        0.019      333.243        2.429      867.264
12/31/2013  01:34:00      -91.514      -31.583       -1.040       18.988       18.077       12.393      360.553      326.763      153.582        0.511        0.042       96.810        9.952        0.011      333.193        2.347      867.277
12/31/2013  01:35:00      -88.935      -35.380      -10.394       13.573       18.839        8.081      184.214      354.907       65.305        0.494        0.030       95.714        5.973        0.004      333.222        2.392      867.286
12/31/2013  01:36:00      -63.934      -19.780       -5.881       15.354       12.064       11.736      235.740      145.552      137.728        0.252        0.026       66.924        6.120        0.008      333.242        2.427      867.276
12/31/2013  01:37:00      -79.352      -28.448      -11.909       12.008       11.043        8.998      144.203      121.945       80.955        0.380        0.017       84.297        2.550        0.001      333.160        2.293      867.266
12/31/2013  01:38:00      -93.685      -34.497       -5.330       19.957       18.645       10.612      398.302      347.639      112.618        0.543        0.043       99.834       10.892        0.012      333.132        2.246      867.280
12/31/2013  01:39:00      -28.289      -22.228       -0.452       39.834       41.246       21.575     1586.781     1701.273      465.481        0.252        0.188       35.978        9.466        0.069      333.236        2.418      867.293
12/31/2013  01:40:00      -36.380        0.886        8.991       40.157       34.754       22.532     1612.605     1207.863      507.704        0.237        0.166       36.391       15.768        0.188      333.206        2.368      867.285
12/31/2013  01:41:00      -27.279      -17.212       -0.885       23.796       26.324       14.716      566.239      692.930      216.555        0.126        0.074       32.255       15.646        0.235      333.206        2.367      867.259
12/31/2013  01:42:00      -66.367      -29.806       -3.155       44.982       22.308       12.202     2023.372      497.665      148.888        0.399        0.133       72.752        9.814        0.018      333.216        2.384      867.256
12/31/2013  01:43:00     -145.798      -31.635      -14.175       22.702       24.729       14.398      515.379      611.504      207.304        1.190        0.067      149.191       13.239        0.008      333.035        2.087      867.281
12/31/2013  01:44:00      -31.759      -23.062        1.487       39.047       21.328       15.510     1524.701      454.902      240.562        0.188        0.111       39.248       12.575        0.103      333.084        2.168      867.302
12/31/2013  01:45:00      -47.132      -21.157       -2.447       24.960       17.971       13.119      623.024      322.962      172.117        0.190        0.056       51.663        8.753        0.029      333.076        2.155      867.306
12/31/2013  01:46:00      -83.499      -24.437       -8.176       19.972       14.694       10.149      398.899      215.911      103.001        0.418        0.036       87.001        9.849        0.013      333.095        2.184      867.310
12/31/2013  01:47:00     -105.124      -17.927       -9.227       34.046       29.752       18.216     1159.106      885.183      331.831        0.692        0.119      106.642       16.011        0.023      333.048        2.108      867.316
12/31/2013  01:48:00     -152.953       10.312      -14.138       39.994       29.635       22.866     1599.483      878.214      522.846        1.335        0.150      153.300       22.804        0.022      333.132        2.246      867.327
12/31/2013  01:49:00     -135.411      -11.823      -12.278       27.278       22.601       13.450      744.082      510.808      180.896        1.003        0.072      135.926        7.337        0.003      333.130        2.242      867.328
12/31/2013  01:50:00     -152.468       -7.627      -18.867       14.112       14.186        9.467      199.144      201.250       89.632        1.208        0.025      152.659        7.225        0.002      333.098        2.193      867.323
12/31/2013  01:51:00     -148.329       -0.700       -9.652       36.976       23.099       21.814     1367.188      533.570      475.859        1.224        0.119      148.331       21.055        0.020      333.051        2.114      867.307
12/31/2013  01:52:00     -148.205       17.650      -11.103       36.077       28.249       17.490     1301.579      798.007      305.893        1.240        0.120      149.252       14.714        0.010      333.016        2.055      867.305
12/31/2013  01:53:00     -159.467       39.822      -17.530       44.153       34.718       21.522     1949.508     1205.352      463.214        1.547        0.181      164.364       14.932        0.008      333.025        2.070      867.320
12/31/2013  01:54:00     -133.222      -22.252      -13.543       32.875       41.393       23.615     1080.768     1713.351      557.655        1.089        0.168      135.068       19.896        0.022      333.018        2.059      867.347
12/31/2013  01:55:00     -183.028      -17.803      -25.572       29.455       28.119       19.282      867.626      790.667      371.803        1.825        0.102      183.892       17.021        0.009      333.045        2.103      867.369
12/31/2013  01:56:00     -152.810       -2.405       -8.223       32.745       33.592       18.627     1072.251     1128.447      346.975        1.299        0.127      152.829       18.317        0.014      333.029        2.076      867.392
12/31/2013  01:57:00     -183.430       36.983      -11.330       22.740       17.799       12.386      517.129      316.817      153.424        1.806        0.049      187.122       11.149        0.004      333.114        2.216      867.398
12/31/2013  01:58:00     -132.039       14.652      -15.007       45.011       29.045       20.704     2026.001      843.603      428.636        1.059        0.165      132.849       23.949        0.032      333.115        2.218      867.402
12/31/2013  01:59:00      -72.172       16.492       -5.562       23.507       27.505       16.512      552.590      756.498      272.659        0.355        0.079       74.033       12.306        0.028      333.083        2.167      867.395
12/31/2013  02:00:00      -56.182       -4.154       -8.405       23.644       21.899       14.339      559.036      479.565      205.620        0.224        0.062       56.335       11.282        0.040      333.247        2.436      867.387
12/31/2013  02:01:00      -93.709        9.868       -9.669       43.684       24.304       17.808     1908.258      590.690      317.134        0.589        0.141       94.227       12.709        0.018      333.590        3.004      867.391
12/31/2013  02:02:00     -101.194       -4.464      -11.886       33.959       30.226       21.392     1153.187      913.612      457.614        0.646        0.126      101.293       17.366        0.029      333.517        2.884      867.390
12/31/2013  02:03:00     -121.890      -15.541       -9.654       34.486       27.765       19.157     1189.299      770.874      366.988        0.876        0.116      122.877       13.818        0.013      333.259        2.454      867.385
12/31/2013  02:04:00      -96.607      -14.853      -12.706       37.219       19.645       16.884     1385.247      385.924      285.080        0.589        0.103       97.742       19.935        0.042      333.194        2.349      867.367
12/31/2013  02:05:00      -33.144      -14.845        3.665       19.535       18.574       10.746      381.630      345.004      115.478        0.109        0.042       36.317       10.944        0.091      333.266        2.468      867.356
12/31/2013  02:06:00      -32.392      -49.677        0.276       20.268       15.043        8.827      410.811      226.294       77.923        0.212        0.036       59.305        7.867        0.018      333.519        2.886      867.345
12/31/2013  02:07:00      -16.892      -24.697       -2.663       14.087       23.168       12.695      198.447      536.759      161.165        0.090        0.045       29.921       11.480        0.147      333.439        2.752      867.347
12/31/2013  02:08:00      -36.431      -11.936        4.728       17.294       15.255        6.138      299.086      232.724       37.673        0.103        0.028       38.337        8.340        0.047      333.247        2.436      867.347
12/31/2013  02:09:00        4.093       12.035       13.289       10.162        7.202       12.007      103.270       51.866      144.174        0.032        0.015       12.712        8.706        0.469      333.230        2.406      867.340
12/31/2013  02:10:00       27.774       14.741        6.021        4.745        5.747        5.821       22.510       33.023       33.890        0.056        0.004       31.443        2.679        0.007      333.500        2.854      867.344
12/31/2013  02:11:00        3.099        3.976       10.004       12.557       16.428       11.526      157.670      269.888      132.853        0.034        0.028        5.041       10.755        4.551      333.497        2.850      867.378
12/31/2013  02:12:00        7.492       11.690       22.800       13.929       11.390        9.668      194.014      129.737       93.463        0.056        0.021       13.884        8.848        0.406      333.229        2.408      867.416
12/31/2013  02:13:00       34.159       10.330       17.038       22.385       16.217       19.204      501.094      263.004      368.780        0.135        0.057       35.687        9.831        0.076      333.086        2.172      867.445
12/31/2013  02:14:00       25.437       31.257       44.051       32.314       29.219       22.353     1044.216      853.772      499.664        0.298        0.120       40.300       20.296        0.254      332.892        1.853      867.450
12/31/2013  02:15:00       44.707       45.506       38.657       32.482       25.089       24.185     1055.050      629.438      584.933        0.392        0.113       63.793       17.222        0.073      332.905        1.873      867.442
12/31/2013  02:16:00       19.631       17.488       27.721       25.494       23.926       14.809      649.921      572.446      219.295        0.145        0.072       26.291       10.665        0.165      332.916        1.890      867.434
12/31/2013  02:17:00       -4.590       -0.283       20.067       10.066       12.631        9.694      101.331      159.536       93.982        0.039        0.018        4.598        5.548        1.456      332.974        1.985      867.437
12/31/2013  02:18:00      -26.052       -3.187        4.085        5.581        4.705        6.925       31.152       22.141       47.958        0.040        0.005       26.246        3.991        0.023      333.024        2.067      867.434
12/31/2013  02:19:00      -20.809       -2.678        1.358        8.564        5.399        6.850       73.346       29.144       46.928        0.030        0.007       20.981        2.931        0.020      333.029        2.075      867.431
12/31/2013  02:20:00       -2.451       -9.050        8.493       11.075        9.750        7.577      122.658       95.068       57.408        0.022        0.014        9.376        6.812        0.528      333.024        2.068      867.436
12/31/2013  02:21:00      -36.702       -9.257       -1.867       13.346        8.786        8.747      178.122       77.193       76.515        0.088        0.017       37.851        6.858        0.033      332.897        1.859      867.451
12/31/2013  02:22:00      -10.408       -0.682        7.538       10.380        5.405        9.103      107.744       29.211       82.864        0.019        0.011       10.430        7.744        0.551      332.957        1.957      867.471
12/31/2013  02:23:00       22.550       14.768       21.502        8.085        8.886        7.721       65.363       78.969       59.620        0.070        0.010       26.956        4.592        0.029      332.925        1.905      867.496
12/31/2013  02:24:00       47.318       32.244       25.294       11.640        6.599        6.858      135.482       43.545       47.027        0.207        0.011       57.260        4.301        0.006      333.022        2.065      867.515
12/31/2013  02:25:00       58.364       53.026       14.549       15.774       15.770       15.636      248.820      248.705      244.477        0.359        0.037       78.855       11.546        0.021      332.965        1.971      867.509
12/31/2013  02:26:00       67.359       58.502       -7.742       28.156       30.224       19.824      792.768      913.479      392.997        0.506        0.105       89.218       13.047        0.021      332.896        1.857      867.494
12/31/2013  02:27:00       79.119       51.609        6.713       43.012       30.082       27.830     1850.064      904.916      774.530        0.625        0.176       94.463       19.587        0.043      332.733        1.589      867.490
12/31/2013  02:28:00       40.223       41.041        5.340       38.275       30.241       24.020     1465.003      914.538      576.951        0.314        0.148       57.465       14.703        0.065      332.593        1.357      867.494
12/31/2013  02:29:00       71.434       59.903        4.040       28.312       26.599       26.672      801.566      707.482      711.410        0.546        0.111       93.227       14.999        0.026      332.582        1.338      867.500
12/31/2013  02:30:00       96.093       69.018        2.696       26.194       22.636       18.363      686.114      512.399      337.204        0.777        0.077      118.310       12.116        0.010      332.616        1.395      867.496
12/31/2013  02:31:00      104.766       49.341       -0.192       26.919       20.725       16.662      724.659      429.532      277.606        0.742        0.072      115.804        9.834        0.007      332.676        1.493      867.501
12/31/2013  02:32:00       61.571       37.173        3.793       25.084       19.582       13.864      629.205      383.440      192.213        0.320        0.060       71.923        9.741        0.018      332.703        1.539      867.515
12/31/2013  02:33:00       13.177       19.993        7.951       18.508       14.173       11.977      342.536      200.868      143.457        0.066        0.034       23.944        6.754        0.080      332.719        1.566      867.525
12/31/2013  02:34:00       14.384       31.016       -3.570       11.778       16.187       10.624      138.718      262.015      112.872        0.085        0.026       34.189       10.317        0.091      332.722        1.571      867.520
12/31/2013  02:35:00       29.712       27.591        5.010       20.970       11.756       11.516      439.744      138.196      132.627        0.119        0.036       40.547        9.342        0.053      332.714        1.557      867.496
12/31/2013  02:36:00       71.914       36.841       11.094       14.466       13.090       11.510      209.269      171.351      132.483        0.358        0.026       80.802        8.398        0.011      332.730        1.583      867.458
12/31/2013  02:37:00       68.657       46.105       23.320       20.319       13.135       22.427      412.855      172.516      502.983        0.424        0.054       82.701       14.544        0.031      332.753        1.622      867.424
12/31/2013  02:38:00       63.155       49.759       36.845       23.728       21.173       26.460      563.041      448.287      700.148        0.477        0.086       80.402       14.104        0.031      332.778        1.663      867.410
12/31/2013  02:39:00       69.932       43.920       26.274       26.650       21.633       24.057      710.245      467.989      578.734        0.463        0.088       82.580       14.712        0.032      332.715        1.558      867.419
12/31/2013  02:40:00       64.592       40.689       13.243       18.325       12.531       14.940      335.807      157.016      223.192        0.336        0.036       76.339        6.345        0.007      332.616        1.395      867.427
12/31/2013  02:41:00       75.887       53.527        9.142       20.894       15.758       16.354      436.548      248.314      267.438        0.483        0.048       92.865       11.594        0.016      332.623        1.407      867.415
12/31/2013  02:42:00       97.598       73.341        5.944       26.889       20.749       16.585      723.003      430.515      275.077        0.818        0.071      122.083       14.419        0.014      332.661        1.470      867.416
12/31/2013  02:43:00       79.255       65.915        0.859       34.402       30.474       24.823     1183.488      928.663      616.192        0.668        0.136      103.083       18.357        0.032      332.632        1.421      867.425
12/31/2013  02:44:00       65.430       45.515        6.128       40.033       23.598       25.775     1602.664      556.844      664.341        0.461        0.141       79.704       16.009        0.040      332.631        1.420      867.436
12/31/2013  02:45:00       86.677       57.210        7.991       29.223       16.976       22.857      854.001      288.173      522.424        0.626        0.083      103.855       13.308        0.016      332.667        1.478      867.443
12/31/2013  02:46:00       41.204       42.342        3.176       30.093       21.088       20.640      905.602      444.706      425.998        0.264        0.089       59.081       11.808        0.040      332.675        1.490      867.431
12/31/2013  02:47:00       38.129       49.249       -0.562       21.633       23.455       16.720      467.989      550.140      279.559        0.259        0.065       62.284       11.977        0.037      332.683        1.505      867.417
12/31/2013  02:48:00       24.834       70.632       -2.589       23.339       22.940       19.857      544.722      526.257      394.302        0.354        0.073       74.871       16.685        0.050      332.686        1.509      867.397
12/31/2013  02:49:00       21.949       79.286       -1.048       25.812       27.878       27.922      666.276      777.190      779.658        0.450        0.111       82.268       21.762        0.070      332.706        1.542      867.386
12/31/2013  02:50:00       20.618       62.379        3.166       28.156       46.507       27.531      792.744     2162.861      757.958        0.402        0.186       65.698       28.628        0.190      332.730        1.582      867.385
12/31/2013  02:51:00       26.492      117.941      -18.747       21.740       20.304       14.088      472.649      412.257      198.485        0.802        0.054      120.880       10.341        0.007      332.761        1.636      867.395
12/31/2013  02:52:00       20.323      112.776      -15.440       18.996       20.529       17.358      360.864      421.435      301.285        0.723        0.054      114.593       12.756        0.012      332.815        1.723      867.401
12/31/2013  02:53:00       19.708       68.049       -2.552       27.603       38.008       22.617      761.910     1444.576      511.536        0.387        0.136       70.846       23.670        0.112      332.830        1.748      867.391
12/31/2013  02:54:00       20.374       81.270      -12.501       20.890       38.721       17.885      436.393     1499.284      319.860        0.472        0.113       83.785       19.734        0.055      332.808        1.713      867.387
12/31/2013  02:55:00        5.390      128.105      -20.995       23.371       21.869       11.375      546.180      478.258      129.397        0.902        0.058      128.219       10.404        0.007      332.864        1.804      867.382
12/31/2013  02:56:00      -12.929      155.785      -23.036       11.414       13.451       10.002      130.270      180.927      100.031        1.269        0.021      156.321        3.618        0.001      332.876        1.825      867.379
12/31/2013  02:57:00      -16.948      153.922      -23.590       14.148       18.299        8.259      200.157      334.838       68.215        1.257        0.030      154.852        4.763        0.001      332.964        1.970      867.379
12/31/2013  02:58:00      -16.297      123.011      -11.963       18.217       41.652       12.088      331.853     1734.927      146.122        0.888        0.111      124.086       15.364        0.015      333.048        2.107      867.394
12/31/2013  02:59:00      -59.784       36.358       -9.689       19.229       23.376       17.609      369.746      546.423      310.075        0.311        0.061       69.972        7.168        0.010      332.932        1.917      867.405
12/31/2013  03:00:00      -47.374       48.201      -13.711       20.092       25.230       10.956      403.670      636.556      120.036        0.296        0.058       67.584       10.019        0.022      332.936        1.924      867.385
12/31/2013  03:01:00       -5.515       75.062       -2.087       33.874       25.783       19.889     1147.448      664.748      395.585        0.394        0.110       75.264       17.563        0.054      333.140        2.259      867.345
12/31/2013  03:02:00       12.952      112.408      -17.892       13.649       19.502        8.833      186.282      380.347       78.030        0.688        0.032      113.151       10.012        0.008      333.058        2.126      867.319
12/31/2013  03:03:00      -12.918       52.837       -5.124       25.132       40.879       10.544      631.619     1671.069      111.175        0.270        0.121       54.393        9.605        0.031      333.090        2.178      867.339
12/31/2013  03:04:00      -63.293      -28.069       -6.011       27.095       12.685        8.486      734.155      160.899       72.009        0.290        0.048       69.238        9.191        0.018      332.860        1.798      867.359
12/31/2013  03:05:00      -38.138      -20.089       -4.605       19.138       13.330        9.661      366.267      177.699       93.338        0.126        0.032       43.106        8.932        0.043      332.761        1.634      867.353
12/31/2013  03:06:00      -42.016      -12.700       -7.011        7.487        7.606        5.794       56.053       57.845       33.568        0.106        0.007       43.893        2.841        0.004      332.753        1.619      867.325
12/31/2013  03:07:00      -63.313      -16.417      -12.819       12.199        7.331        4.775      148.822       53.742       22.803        0.233        0.011       65.407        2.199        0.001      332.783        1.672      867.321
12/31/2013  03:08:00      -86.934      -23.147      -11.098       12.881       11.804        9.483      165.913      139.332       89.931        0.431        0.020       89.963        5.977        0.004      332.808        1.711      867.327
12/31/2013  03:09:00      -77.123      -31.957       -8.232       17.875       12.022        9.105      319.499      144.526       82.893        0.379        0.027       83.482        9.293        0.012      332.801        1.699      867.327
12/31/2013  03:10:00      -68.142      -23.154      -12.804       12.413        8.582        6.894      154.091       73.650       47.528        0.281        0.014       71.968        3.765        0.003      332.758        1.629      867.292
12/31/2013  03:11:00      -42.980      -27.783       -7.348        8.018        5.333        6.275       64.294       28.439       39.381        0.140        0.007       51.178        3.282        0.004      332.825        1.744      867.263
12/31/2013  03:12:00      -41.201      -17.377       -3.582        6.984        7.136        6.804       48.773       50.929       46.292        0.108        0.007       44.716        4.133        0.009      332.826        1.743      867.243
12/31/2013  03:13:00      -40.592      -21.202       -6.372       10.466        6.422        5.908      109.541       41.237       34.907        0.116        0.009       45.795        3.958        0.007      332.852        1.785      867.236
12/31/2013  03:14:00      -61.743      -25.125       -8.077       12.351        6.400        4.908      152.550       40.958       24.086        0.236        0.011       66.659        4.483        0.005      332.826        1.742      867.237
12/31/2013  03:15:00      -75.309      -18.556       -6.279        7.860        6.014        5.715       61.784       36.166       32.658        0.309        0.007       77.562        2.712        0.001      332.859        1.798      867.255
12/31/2013  03:16:00      -48.920      -19.975       -6.086       11.589        4.643        3.667      134.314       21.554       13.450        0.150        0.008       52.841        0.609        0.000      332.899        1.863      867.271
12/31/2013  03:17:00      -43.152      -22.112       -5.187       14.941        4.721        4.783      223.221       22.290       22.875        0.132        0.013       48.488        6.143        0.016      332.925        1.906      867.293
12/31/2013  03:18:00      -86.796      -22.732      -13.593       17.372       11.385        9.486      301.769      129.623       89.980        0.438        0.026       89.723        8.744        0.009      332.875        1.823      867.332
12/31/2013  03:19:00     -142.197      -37.097      -11.846       13.499       15.979       10.172      182.226      255.324      103.463        1.114        0.027      146.956        4.727        0.001      332.698        1.530      867.375
12/31/2013  03:20:00     -117.597      -69.735       -1.114       34.488       21.709       20.905     1189.418      471.289      437.004        1.040        0.105      136.719       17.645        0.017      332.639        1.433      867.395
12/31/2013  03:21:00      -59.191      -37.030        1.503       41.157       26.101       17.214     1693.863      681.286      296.325        0.377        0.134       69.820       20.240        0.084      332.808        1.712      867.376
12/31/2013  03:22:00      -33.480      -27.980        8.462       25.164       16.940       12.552      633.252      286.961      157.565        0.153        0.054       43.633       10.088        0.053      332.823        1.736      867.344
12/31/2013  03:23:00      -53.502      -37.896       -1.290       49.681       26.531       17.768     2468.191      703.910      315.714        0.389        0.174       65.563       25.865        0.156      332.790        1.683      867.325
12/31/2013  03:24:00      -49.785      -27.278        1.160       30.355       25.750       16.811      921.440      663.041      282.596        0.255        0.093       56.769       14.051        0.061      332.698        1.529      867.314
12/31/2013  03:25:00      -12.914      -14.256        8.384       24.759       14.287       16.403      612.993      204.108      269.056        0.076        0.054       19.236       16.000        0.692      332.765        1.641      867.311
12/31/2013  03:26:00      -55.291      -13.977        2.659       15.295       17.375       12.243      233.952      301.893      149.884        0.197        0.034       57.030       10.202        0.032      332.668        1.479      867.305
12/31/2013  03:27:00      -75.322      -14.076       -0.986       22.557       18.203       14.741      508.796      331.346      217.293        0.346        0.053       76.626       13.035        0.029      332.690        1.517      867.306
12/31/2013  03:28:00      -58.788      -17.030        4.261       27.472       16.879       15.487      754.695      284.892      239.857        0.252        0.064       61.205       14.222        0.054      332.666        1.477      867.318
12/31/2013  03:29:00      -64.454      -23.309       -1.987       16.133       17.141        9.274      260.276      293.809       86.008        0.267        0.032       68.539        8.716        0.016      332.647        1.446      867.334
12/31/2013  03:30:00      -95.401      -27.174       -4.240       17.206       15.873       10.156      296.038      251.959      103.138        0.525        0.033       99.195        7.515        0.006      332.574        1.325      867.331
12/31/2013  03:31:00     -143.100      -47.008       -8.812       21.113       23.304       14.560      445.767      543.061      211.988        1.198        0.060      150.623       11.222        0.006      332.458        1.134      867.324
12/31/2013  03:32:00     -123.128      -60.434      -10.055       25.277       29.036       17.258      638.933      843.081      297.839        1.035        0.089      137.160       12.832        0.009      332.387        1.017      867.318
12/31/2013  03:33:00      -86.334      -11.819       -6.014       34.036       39.935       14.100     1158.417     1594.844      198.821        0.529        0.148       87.139       14.141        0.026      332.348        0.951      867.285
12/31/2013  03:34:00      -38.713       15.110       -1.261       27.693       20.591       16.600      766.875      423.999      275.576        0.160        0.073       41.558       10.297        0.061      332.404        1.043      867.246
12/31/2013  03:35:00      -57.748       27.362       -5.624       27.866       27.469       20.392      776.514      754.527      415.831        0.303        0.097       63.902       15.076        0.056      332.591        1.354      867.236
12/31/2013  03:36:00      -85.300       23.748       -4.873       15.424       36.934       14.504      237.905     1364.140      210.353        0.484        0.091       88.545       11.432        0.017      332.535        1.260      867.236
12/31/2013  03:37:00      -93.129      -43.562       -9.298       26.097       25.637       17.544      681.028      657.280      307.790        0.615        0.082      102.813       12.411        0.015      332.253        0.795      867.243
12/31/2013  03:38:00      -84.518      -23.356       -7.940       41.187       40.787       21.836     1696.400     1663.594      476.818        0.579        0.192       87.685       12.809        0.021      332.184        0.682      867.234
12/31/2013  03:39:00      -95.115       37.027      -10.063       60.215       35.075       24.853     3625.906     1230.258      617.695        0.800        0.274      102.068       25.878        0.064      332.312        0.892      867.207
12/31/2013  03:40:00     -104.617       43.119       -9.863       51.842       28.575       27.686     2687.614      816.546      766.539        0.859        0.214      113.155       19.983        0.031      332.416        1.063      867.180
12/31/2013  03:41:00     -112.951       15.536       -6.935       32.340       30.304       17.411     1045.863      918.314      303.145        0.766        0.113      114.014       14.290        0.016      332.426        1.081      867.171
12/31/2013  03:42:00      -87.213       -8.219       -5.753       37.308       26.218       20.971     1391.904      687.394      439.801        0.511        0.126       87.600       20.106        0.053      332.379        1.004      867.176
12/31/2013  03:43:00     -104.656        6.102       -3.304       46.261       40.651       21.689     2140.105     1652.478      470.404        0.763        0.213      104.834       21.357        0.042      332.434        1.095      867.169
12/31/2013  03:44:00     -150.978       43.060       -3.993       31.589       28.837       28.394      997.851      831.575      806.242        1.365        0.132      156.999       15.039        0.009      332.549        1.284      867.169
12/31/2013  03:45:00     -144.483       41.504      -11.536       27.377       18.555       18.047      749.491      344.282      325.702        1.208        0.071      150.326        9.959        0.004      332.524        1.243      867.172
12/31/2013  03:46:00     -141.787       31.296       -9.924       29.967       22.892       13.730      898.031      524.022      188.510        1.140        0.081      145.200       12.198        0.007      332.337        0.934      867.181
12/31/2013  03:47:00      -96.645        2.807        1.338       44.684       30.374       23.092     1996.687      922.576      533.255        0.640        0.173       96.685       22.328        0.053      332.348        0.951      867.171
12/31/2013  03:48:00     -117.375       31.645       -4.188       35.561       31.052       18.462     1264.565      964.224      340.838        0.868        0.128      121.566       17.747        0.021      332.438        1.100      867.133
12/31/2013  03:49:00     -132.173       38.965      -11.259       46.709       33.077       19.060     2181.729     1094.104      363.277        1.138        0.182      137.797       17.989        0.017      332.431        1.089      867.087
12/31/2013  03:50:00     -121.802       30.620      -11.168       39.652       34.438       21.673     1572.255     1185.956      469.723        0.956        0.161      125.592       13.434        0.011      332.461        1.138      867.071
12/31/2013  03:51:00     -115.130      -34.013       -9.960       33.742       35.891       20.326     1138.493     1288.191      413.162        0.867        0.142      120.049       19.367        0.026      332.332        0.926      867.080
12/31/2013  03:52:00     -125.755      -36.077       -5.439       37.784       42.559       23.138     1427.594     1811.245      535.349        1.046        0.189      130.828       10.811        0.007      332.183        0.682      867.093
12/31/2013  03:53:00     -145.798       -7.452      -16.906       40.122       33.807       27.462     1609.736     1142.935      754.135        1.255        0.175      145.989       26.731        0.034      332.158        0.639      867.087
12/31/2013  03:54:00     -142.961       16.485      -21.226       37.353       37.581       18.086     1395.243     1412.333      327.096        1.215        0.157      143.908        8.520        0.004      332.249        0.789      867.067
12/31/2013  03:55:00     -126.847       -3.156      -13.125       32.466       37.984       21.843     1054.049     1442.807      477.109        0.962        0.149      126.886       21.987        0.030      332.317        0.901      867.046
12/31/2013  03:56:00      -73.571        9.438       -0.508       38.089       23.203       18.204     1450.751      538.369      331.400        0.391        0.116       74.174       12.179        0.027      332.338        0.935      867.019
12/31/2013  03:57:00     -113.184       28.222       -6.410       27.592       24.967       17.871      761.335      623.369      319.362        0.768        0.085      116.650       15.531        0.018      332.378        1.001      867.006
12/31/2013  03:58:00      -95.016      -39.270       -9.717       24.519       27.760       16.116      601.169      770.637      259.715        0.615        0.082      102.811       10.334        0.010      332.341        0.940      867.015
12/31/2013  03:59:00     -117.603      -52.091      -13.972       22.475       19.420       13.198      505.125      377.133      174.195        0.890        0.053      128.624        4.333        0.001      332.178        0.674      867.046
12/31/2013  04:00:00     -105.103       17.903      -10.021       18.274       17.797       10.381      333.949      316.722      107.759        0.611        0.038      106.617        6.265        0.003      332.179        0.673      867.051
12/31/2013  04:01:00      -96.490       22.867      -11.469       23.655       19.370       15.016      559.567      375.209      225.469        0.556        0.058       99.163        6.025        0.004      332.253        0.796      867.050
12/31/2013  04:02:00      -93.539        6.669       -7.618       20.558       19.101       12.764      422.612      364.857      162.911        0.490        0.048       93.776        8.518        0.008      332.451        1.122      867.061
12/31/2013  04:03:00      -98.356      -20.266       -8.876       26.402       24.847       15.921      697.092      617.357      253.485        0.587        0.078      100.422       13.840        0.019      332.472        1.156      867.079
12/31/2013  04:04:00      -87.473       -3.899      -14.902       22.355       31.974       15.194      499.752     1022.368      230.846        0.482        0.088       87.560       13.543        0.024      332.379        1.002      867.092
12/31/2013  04:05:00     -117.137       17.908      -13.892       35.653       23.403       17.294     1271.145      547.695      299.077        0.818        0.106      118.498       17.579        0.022      332.326        0.914      867.070
12/31/2013  04:06:00      -67.634      -17.275       -5.979       31.983       19.726       15.263     1022.880      389.103      232.967        0.328        0.082       69.805       12.078        0.030      332.192        0.695      867.045
12/31/2013  04:07:00      -57.689      -38.645        3.279       45.538       20.372       13.183     2073.717      415.027      173.789        0.375        0.133       69.437       18.764        0.073      332.345        0.946      867.027
12/31/2013  04:08:00      -66.920      -16.263      -12.375       22.073       10.262       10.420      487.212      105.300      108.578        0.280        0.035       68.868        9.063        0.017      332.243        0.779      867.023
12/31/2013  04:09:00      -55.807      -21.374       -1.601       13.068       13.350       10.530      170.784      178.215      110.878        0.202        0.023       59.760        6.895        0.013      332.284        0.847      867.029
12/31/2013  04:10:00      -54.939      -17.460       -2.373       23.288       11.515        8.289      542.316      132.595       68.703        0.204        0.037       57.647        6.069        0.011      332.309        0.886      867.025
12/31/2013  04:11:00      -59.973      -23.156       -7.775       16.341       15.471       13.182      267.042      239.363      173.756        0.244        0.034       64.288        9.777        0.023      332.241        0.776      867.014
12/31/2013  04:12:00      -64.481       -8.475       -6.089       17.036        8.631        6.912      290.236       74.503       47.781        0.234        0.021       65.036        6.089        0.009      332.436        1.096      867.008
12/31/2013  04:13:00      -17.479      -29.897       -3.782       13.070       14.172        7.987      170.819      200.858       63.798        0.082        0.022       34.632        5.205        0.023      332.594        1.359      867.002
12/31/2013  04:14:00      -36.437      -25.595       -4.977       23.687       10.475       10.176      561.051      109.722      103.542        0.139        0.039       44.528        9.441        0.045      332.576        1.329      866.995
12/31/2013  04:15:00      -93.213      -39.775       -6.496       11.479       14.925        9.375      131.769      222.749       87.885        0.538        0.022      101.345        4.866        0.002      332.400        1.039      866.976
12/31/2013  04:16:00      -82.960      -22.020       -6.878       28.624       18.040       14.625      819.357      325.441      213.885        0.439        0.068       85.833       14.802        0.030      332.300        0.872      866.945
12/31/2013  04:17:00      -12.529      -33.875        7.754       28.982       23.210       17.527      839.935      538.713      307.208        0.152        0.084       36.118       16.023        0.197      332.366        0.981      866.911
12/31/2013  04:18:00       10.991      -22.335        4.429       20.946       20.842       14.496      438.718      434.409      210.124        0.086        0.054       24.893        6.818        0.075      332.491        1.188      866.904
12/31/2013  04:19:00       16.746        4.612       -3.542        7.263       13.747       12.479       52.747      188.969      155.726        0.036        0.020       17.369        5.192        0.089      332.660        1.467      866.909
12/31/2013  04:20:00       -0.594       14.115       -5.850        7.362       11.280        7.963       54.195      127.247       63.404        0.024        0.012       14.127        4.347        0.095      332.873        1.820      866.913
12/31/2013  04:21:00       -0.128       10.489       23.034        7.685       11.207       12.671       59.052      125.597      160.553        0.049        0.017       10.490        9.511        0.822      332.742        1.603      866.908
12/31/2013  04:22:00        4.185       10.331       15.605       12.616       16.243       10.780      159.155      263.822      116.218        0.045        0.027       11.146        6.702        0.362      332.462        1.140      866.907
12/31/2013  04:23:00       -0.264       -5.831       10.882        6.519        6.225        4.443       42.499       38.749       19.738        0.013        0.005        5.837        3.773        0.418      332.420        1.070      866.911
12/31/2013  04:24:00       26.825       28.831       14.169       14.183       17.817       12.106      201.158      317.454      146.549        0.121        0.033       39.380       10.590        0.072      332.262        0.810      866.916
12/31/2013  04:25:00       34.016       33.802       -3.935       11.306       13.817        8.600      127.824      190.911       73.960        0.135        0.020       47.954        7.061        0.022      332.183        0.680      866.912
12/31/2013  04:26:00       31.435       24.192       -4.751        4.980        5.643        4.687       24.798       31.843       21.964        0.084        0.004       39.666        2.697        0.005      332.270        0.823      866.898
12/31/2013  04:27:00       31.024       20.244        6.719       14.701        9.415       10.619      216.108       88.635      112.773        0.092        0.021       37.044        7.005        0.036      332.210        0.725      866.875
12/31/2013  04:28:00      -11.162       -8.393        9.115        7.558       11.935        8.963       57.125      142.446       80.340        0.028        0.014       13.966        7.250        0.269      332.338        0.935      866.860
12/31/2013  04:29:00      -21.786       -4.792        0.371       14.892        9.793       11.222      221.761       95.907      125.943        0.047        0.022       22.307        9.833        0.194      332.378        1.002      866.853
12/31/2013  04:30:00      -28.406       13.953        4.008       10.497       10.779        6.382      110.191      116.182       40.734        0.064        0.013       31.648        6.512        0.042      332.382        1.008      866.848
12/31/2013  04:31:00      -35.699       18.074        2.161       16.219       11.143        7.578      263.055      124.171       57.419        0.103        0.022       40.013        4.991        0.016      332.184        0.681      866.833
12/31/2013  04:32:00      -59.771        8.653       -1.256       14.454       10.022       10.991      208.904      100.441      120.804        0.204        0.022       60.394        6.379        0.011      332.298        0.871      866.820
12/31/2013  04:33:00      -35.935      -15.351       -5.001       10.710       16.387        7.546      114.702      268.519       56.942        0.100        0.022       39.077        6.318        0.026      332.205        0.718      866.813
12/31/2013  04:34:00      -44.158      -19.401       -3.271       14.615       11.782        9.469      213.595      138.826       89.666        0.139        0.022       48.232        7.150        0.022      332.126        0.586      866.812
12/31/2013  04:35:00      -76.199        2.201       -4.674       23.064       20.966       16.413      531.949      439.594      269.385        0.354        0.062       76.231       15.367        0.041      332.042        0.447      866.817
12/31/2013  04:36:00     -105.664        3.007       -8.659       36.270       23.538       18.992     1315.481      554.044      360.701        0.674        0.112      105.707       19.841        0.035      332.106        0.552      866.834
12/31/2013  04:37:00      -71.973        1.925       -8.225       31.611       25.955       15.797      999.271      673.668      249.540        0.359        0.096       71.999       12.820        0.032      332.103        0.549      866.850
12/31/2013  04:38:00      -25.079       13.964        1.179       16.032       16.065       11.652      257.012      258.098      135.764        0.074        0.033       28.705        8.822        0.094      332.147        0.621      866.858
12/31/2013  04:39:00      -51.125       37.342       -9.953       24.816       24.232       11.512      615.813      587.202      132.525        0.272        0.067       63.311       14.446        0.052      332.252        0.792      866.855
12/31/2013  04:40:00      -65.172       27.168       -6.734       16.416       15.452       12.454      269.496      238.761      155.096        0.285        0.033       70.608       10.282        0.021      332.328        0.918      866.861
12/31/2013  04:41:00      -75.211       16.297       -7.350       13.101       14.307        9.539      171.625      204.688       90.987        0.322        0.023       76.957        6.537        0.007      332.203        0.715      866.888
12/31/2013  04:42:00      -71.574       -9.846       -7.442       14.072       14.282        8.264      198.029      203.979       68.290        0.287        0.024       72.248        4.353        0.004      332.148        0.622      866.896
12/31/2013  04:43:00      -46.922      -19.441        0.365       24.142       17.752       10.826      582.821      315.138      117.206        0.180        0.051       50.790        7.840        0.024      332.146        0.619      866.888
12/31/2013  04:44:00      -41.811      -26.095       -6.147       21.976       17.779        9.624      482.924      316.099       92.612        0.168        0.045       49.286        8.701        0.031      332.144        0.616      866.875
12/31/2013  04:45:00       -1.321      -15.237        3.049       13.172       12.075       12.650      173.509      145.801      160.025        0.036        0.024       15.294        8.454        0.306      332.169        0.656      866.864
12/31/2013  04:46:00      -23.110      -18.958       -3.636       14.591       12.676        9.931      212.900      160.683       98.615        0.069        0.024       29.891        3.569        0.014      332.153        0.630      866.861
12/31/2013  04:47:00      -48.939      -21.265       -6.743       16.634       11.750       12.360      276.681      138.066      152.774        0.173        0.028       53.360        7.018        0.017      332.111        0.561      866.857
12/31/2013  04:48:00      -47.461      -17.670       -7.710       13.200       11.266        8.802      174.247      126.932       77.483        0.150        0.019       50.644        5.608        0.012      332.120        0.577      866.849
12/31/2013  04:49:00      -56.882      -18.393       -7.007        9.657       10.740        7.202       93.267      115.356       51.871        0.194        0.013       59.781        3.372        0.003      332.044        0.453      866.851
12/31/2013  04:50:00      -60.384      -19.912      -10.473        9.105        9.724        7.098       82.907       94.555       50.383        0.219        0.011       63.582        4.628        0.005      331.975        0.339      866.871
12/31/2013  04:51:00      -65.415       -9.074      -13.793       26.696       13.495        9.195      712.662      182.104       84.547        0.277        0.049       66.042        8.050        0.015      331.950        0.295      866.895
12/31/2013  04:52:00      -51.623        1.814       -8.786       21.816       12.536       11.539      475.958      157.149      133.160        0.176        0.038       51.655       11.641        0.051      331.951        0.296      866.905
12/31/2013  04:53:00      -37.114        4.165       -2.626       16.005       16.651       15.824      256.173      277.270      250.404        0.109        0.039       37.347       10.820        0.084      331.957        0.309      866.908
12/31/2013  04:54:00      -38.125       20.003       -2.997       19.362       29.188       15.739      374.883      851.913      247.731        0.167        0.074       43.054        7.655        0.032      332.168        0.655      866.882
12/31/2013  04:55:00      -55.294       15.090       -1.881       24.306       17.183       14.100      590.794      295.260      198.802        0.219        0.054       57.316        9.608        0.028      332.349        0.954      866.864
12/31/2013  04:56:00      -75.106      -11.366      -10.848       14.290       20.313       11.642      204.218      412.613      135.527        0.332        0.038       75.961       11.087        0.021      332.160        0.641      866.875
12/31/2013  04:57:00     -111.309      -43.332      -15.028       15.258       13.237       10.259      232.794      175.226      105.238        0.750        0.026      119.447        8.125        0.005      331.809        0.063      866.888
12/31/2013  04:58:00      -82.770      -20.185       -7.150       33.565       19.854       14.604     1126.629      394.180      213.278        0.452        0.087       85.196        8.498        0.010      331.884        0.188      866.873
12/31/2013  04:59:00      -29.794       10.334       -1.182       31.138       26.260       17.079      969.556      689.595      291.680        0.147        0.098       31.535       15.349        0.237      332.168        0.655      866.834
12/31/2013  05:00:00      -65.934      -23.347       -7.955       31.062       22.028       13.842      964.834      485.231      191.588        0.330        0.082       69.946       13.985        0.040      332.164        0.649      866.805
12/31/2013  05:01:00     -103.623      -41.423      -11.452       23.219       23.188       12.632      539.134      537.676      159.568        0.691        0.062      111.595        7.670        0.005      331.942        0.283      866.798
12/31/2013  05:02:00     -125.247      -34.104       -6.972       29.192       21.977       18.933      852.180      483.000      358.472        0.930        0.085      129.807       18.237        0.020      331.944        0.284      866.792
12/31/2013  05:03:00     -112.073       -7.653       -6.050       28.325       23.187       22.936      802.295      537.649      526.057        0.726        0.093      112.334       19.611        0.030      331.864        0.153      866.783
12/31/2013  05:04:00     -115.135       -7.774       -8.301       22.292       19.335       14.789      496.925      373.848      218.721        0.724        0.054      115.398        9.146        0.006      331.908        0.225      866.779
12/31/2013  05:05:00      -85.241       -4.517       -1.208       29.336       17.821       17.998      860.582      317.592      323.927        0.439        0.075       85.361       18.608        0.048      331.991        0.362      866.777
12/31/2013  05:06:00      -65.714        1.771        1.822       25.236       16.758       12.794      636.859      280.824      163.678        0.270        0.054       65.738       13.803        0.044      332.088        0.523      866.787
12/31/2013  05:07:00      -61.466       -1.049       -4.495       21.290       23.195       15.042      453.258      537.994      226.264        0.251        0.061       61.475       10.495        0.029      332.160        0.642      866.786
12/31/2013  05:08:00      -52.528       22.719       -7.095       16.440       23.436       11.402      270.260      549.233      130.003        0.214        0.047       57.230        7.716        0.018      332.315        0.899      866.785
12/31/2013  05:09:00      -40.947       27.393       -4.901       24.248       21.341       13.467      587.978      455.445      181.374        0.184        0.061       49.265       16.260        0.109      332.399        1.035      866.804
12/31/2013  05:10:00        5.067       -6.292       12.429       12.177        8.797        9.629      148.281       77.392       92.715        0.027        0.016        8.078        9.878        1.495      332.441        1.104      866.839
12/31/2013  05:11:00       -3.059      -14.081       -0.371        6.777       12.427        9.424       45.922      154.427       88.811        0.025        0.014       14.409        8.672        0.362      332.440        1.104      866.876
12/31/2013  05:12:00       14.964      -14.433       -9.956       10.514        9.798       11.838      110.543       96.009      140.130        0.044        0.017       20.790        4.738        0.052      332.603        1.373      866.900
12/31/2013  05:13:00        2.286       -3.961        2.067       12.013       11.717        9.093      144.318      137.293       82.675        0.019        0.018        4.574        8.140        3.167      332.605        1.376      866.893
12/31/2013  05:14:00       -0.485      -13.070        4.451        8.087        8.281        8.014       65.406       68.572       64.224        0.019        0.010       13.079        4.567        0.122      332.505        1.211      866.892
12/31/2013  05:15:00      -36.701      -12.176       -4.107        9.277        5.715        6.109       86.059       32.660       37.314        0.083        0.008       38.668        4.660        0.015      332.248        0.787      866.895
12/31/2013  05:16:00      -34.550       -9.118       -5.670       12.066        8.695        6.195      145.597       75.610       38.373        0.078        0.013       35.733        3.768        0.011      332.233        0.764      866.888
12/31/2013  05:17:00      -21.122       -9.482       -3.130        8.428        5.840        5.619       71.036       34.101       31.570        0.034        0.007       23.153        5.675        0.060      332.273        0.829      866.871
12/31/2013  05:18:00      -13.989       -0.008        5.641        7.548        5.889        3.561       56.967       34.675       12.681        0.017        0.005       13.989        2.986        0.046      332.282        0.843      866.847
12/31/2013  05:19:00       15.406       21.136       15.685       13.302       12.897       12.711      176.947      166.330      161.561        0.072        0.025       26.155        8.546        0.107      332.254        0.796      866.824
12/31/2013  05:20:00       29.098       31.961       -7.419        8.376       18.827       10.750       70.154      354.473      115.555        0.123        0.027       43.223       10.602        0.060      332.141        0.610      866.804
12/31/2013  05:21:00       39.325       20.932        4.162       12.015       16.774       16.730      144.366      281.356      279.902        0.135        0.035       44.549       10.652        0.057      332.052        0.464      866.793
12/31/2013  05:22:00       62.297       35.036        0.039       18.578       16.174       13.290      345.140      261.611      176.625        0.295        0.039       71.474        6.940        0.009      331.932        0.266      866.791
12/31/2013  05:23:00       60.335       51.947        5.795       21.359       16.962       14.491      456.197      287.712      209.979        0.366        0.048       79.617       10.805        0.018      331.957        0.307      866.803
12/31/2013  05:24:00       66.698       59.916        2.682       23.081       13.285       15.353      532.737      176.490      235.715        0.450        0.047       89.658       12.353        0.019      332.005        0.387      866.815
12/31/2013  05:25:00       66.586       51.292        5.108       15.156       13.187       13.831      229.712      173.887      191.293        0.384        0.030       84.051        7.131        0.007      332.119        0.575      866.823
12/31/2013  05:26:00       47.011       31.854        1.247       15.343       14.238        8.680      235.401      202.715       75.344        0.187        0.026       56.786        4.079        0.005      332.130        0.595      866.831
12/31/2013  05:27:00       29.568       11.015       -3.373       13.696        9.621        7.977      187.569       92.556       63.631        0.068        0.017       31.553        4.920        0.024      332.186        0.686      866.852
12/31/2013  05:28:00        4.630       -8.462        3.246        7.976       14.005        7.937       63.613      196.137       62.993        0.021        0.016        9.645        4.969        0.265      332.284        0.845      866.879
12/31/2013  05:29:00        0.799       -5.257       12.731        5.506       13.443        6.357       30.320      180.703       40.406        0.022        0.013        5.317        2.631        0.245      332.311        0.889      866.903
12/31/2013  05:30:00      -12.714       -4.700        8.636        8.709       10.618        6.727       75.853      112.738       45.247        0.025        0.012       13.555        5.884        0.188      332.315        0.896      866.914
12/31/2013  05:31:00      -30.146        1.678        5.225       16.053       10.633        6.756      257.691      113.056       45.649        0.068        0.021       30.192        6.758        0.050      332.246        0.784      866.922
12/31/2013  05:32:00      -30.037       15.610       -3.050        9.122        4.549        6.224       83.212       20.692       38.734        0.065        0.007       33.851        5.843        0.030      332.192        0.695      866.916
12/31/2013  05:33:00        0.783        8.438        7.725        9.418        7.691        6.950       88.695       59.151       48.306        0.016        0.010        8.475        6.250        0.544      332.294        0.861      866.914
12/31/2013  05:34:00       -8.944        1.844        1.424       15.581        5.680        3.402      242.753       32.265       11.574        0.019        0.014        9.132        1.054        0.013      332.346        0.949      866.933
12/31/2013  05:35:00      -90.107      -21.683       -9.599       19.573       14.556        8.432      383.084      211.886       71.106        0.467        0.033       92.679        9.533        0.011      332.200        0.708      866.973
12/31/2013  05:36:00      -96.695      -49.122       -2.895       28.658       25.418       13.594      821.268      646.097      184.796        0.671        0.083      108.457       12.865        0.014      332.166        0.652      867.002
12/31/2013  05:37:00      -50.860       -0.849       -5.548       19.080       15.983       11.379      364.061      255.461      129.473        0.168        0.037       50.867       11.944        0.055      332.093        0.532      866.986
12/31/2013  05:38:00      -34.366        6.288       -4.382        5.520        7.664        3.645       30.473       58.733       13.284        0.067        0.005       34.936        2.295        0.004      332.221        0.743      866.955
12/31/2013  05:39:00      -44.656      -18.265       -8.996       12.760        9.724        6.923      162.827       94.555       47.935        0.136        0.015       48.247        8.250        0.029      332.334        0.928      866.965
12/31/2013  05:40:00      -95.792      -44.556       -8.515       14.030       15.781        6.751      196.841      249.054       45.582        0.586        0.025      105.647        5.277        0.002      332.304        0.879      866.991
12/31/2013  05:41:00      -94.288      -51.717      -11.730       18.548       21.591       12.493      344.036      466.173      156.068        0.633        0.048      107.540        7.279        0.005      332.251        0.794      867.000
12/31/2013  05:42:00      -42.690      -25.757       -4.061       13.844       14.518       11.527      191.664      210.781      132.876        0.152        0.027       49.858        9.470        0.036      332.271        0.826      866.966
12/31/2013  05:43:00      -50.372       -6.957       -9.897       14.560       11.208        9.119      211.992      125.625       83.153        0.155        0.021       50.850        8.032        0.025      332.288        0.853      866.926
12/31/2013  05:44:00      -69.010      -25.296       -5.025       13.234       13.560        9.075      175.145      183.883       82.348        0.293        0.022       73.501        6.611        0.008      332.346        0.948      866.922
12/31/2013  05:45:00      -39.537      -20.538        0.956       16.803       15.168       11.500      282.344      230.066      132.246        0.132        0.032       44.554        9.150        0.042      332.311        0.891      866.931
12/31/2013  05:46:00      -24.290       -4.800       -1.879        7.613        9.439        6.205       57.964       89.086       38.497        0.040        0.009       24.760        3.430        0.019      332.353        0.957      866.924
12/31/2013  05:47:00       -9.181        1.324        9.268        7.268        4.083        5.051       52.818       16.670       25.516        0.013        0.005        9.276        2.906        0.098      332.402        1.041      866.925
12/31/2013  05:48:00      -20.441       14.657       -1.941       22.676       13.907        7.694      514.190      193.410       59.202        0.070        0.038       25.152       10.805        0.185      332.519        1.234      866.951
12/31/2013  05:49:00      -53.967      -20.542       -4.027       12.824       17.009        7.956      164.444      289.303       63.297        0.193        0.026       57.744        2.685        0.002      332.307        0.885      866.990
12/31/2013  05:50:00      -41.361      -30.119      -10.545       20.546       14.079       11.415      422.142      198.219      130.298        0.174        0.038       51.165       10.000        0.038      332.220        0.743      867.024
12/31/2013  05:51:00      -55.123       -2.604       -5.585       18.817       13.117        9.943      354.093      172.045       98.872        0.185        0.031       55.185       10.110        0.034      332.175        0.667      867.033
12/31/2013  05:52:00      -11.749        4.814        7.590        7.073        8.295        7.439       50.028       68.813       55.334        0.020        0.009       12.697        3.851        0.092      332.333        0.927      867.020
12/31/2013  05:53:00      -28.473      -10.918       -0.615       19.773        5.968        4.981      390.984       35.618       24.812        0.069        0.023       30.494        8.311        0.074      332.380        1.006      867.011
12/31/2013  05:54:00      -95.521      -39.821      -10.512       16.321       16.014       11.090      266.377      256.464      122.982        0.573        0.032      103.489        6.120        0.003      332.158        0.640      867.002
12/31/2013  05:55:00      -84.974      -53.966       -6.943       29.472       17.754       13.818      868.570      315.203      190.943        0.578        0.069      100.662       11.311        0.013      332.176        0.669      867.000
12/31/2013  05:56:00      -36.580       -8.280        5.892       13.903       13.313       11.603      193.298      177.233      134.640        0.097        0.025       37.505        4.464        0.014      332.205        0.716      866.978
12/31/2013  05:57:00      -16.817       -9.608       -1.780        8.878        7.670        5.088       78.822       58.831       25.889        0.027        0.008       19.368        5.136        0.070      332.310        0.887      866.960
12/31/2013  05:58:00      -29.866       -2.650       -3.393       13.944        5.860        4.860      194.433       34.335       23.618        0.058        0.013       29.983        4.022        0.018      332.325        0.915      866.969
12/31/2013  05:59:00      -67.002      -28.357       -6.746       16.251       18.294        9.758      264.081      334.682       95.214        0.302        0.035       72.755        8.199        0.013      332.333        0.928      866.999
12/31/2013  06:00:00      -91.521      -39.182       -6.143       11.453       13.921        9.679      131.182      193.808       93.678        0.518        0.021       99.556        6.836        0.005      332.241        0.777      867.034
12/31/2013  06:01:00      -73.491      -29.892        0.490       18.452       11.059       12.263      340.485      122.310      150.369        0.345        0.031       79.338       10.133        0.016      332.219        0.740      867.048
12/31/2013  06:02:00      -43.340      -16.033       -2.980       20.082       17.956        8.687      403.304      322.424       75.470        0.147        0.040       46.211       10.232        0.049      332.214        0.731      867.044
12/31/2013  06:03:00      -60.843        9.924       -7.888       10.358        8.840        6.362      107.297       78.149       40.473        0.204        0.011       61.647        4.638        0.006      332.235        0.766      867.055
12/31/2013  06:04:00      -83.795       -6.205       -8.453       12.312       10.802        9.618      151.583      116.681       92.500        0.375        0.018       84.024        8.278        0.010      332.299        0.870      867.065
12/31/2013  06:05:00      -66.106      -15.480       -4.060       13.469       10.584        9.059      181.417      112.013       82.069        0.250        0.019       67.894        3.628        0.003      332.286        0.849      867.053
12/31/2013  06:06:00      -25.320      -14.308        4.112       17.872        8.778        6.834      319.411       77.053       46.699        0.065        0.022       29.083        8.655        0.089      332.404        1.045      867.028
12/31/2013  06:07:00      -35.856      -23.669       -0.388       20.878       11.916       10.789      435.905      141.995      116.399        0.127        0.035       42.964        8.725        0.041      332.354        0.961      867.015
12/31/2013  06:08:00      -41.839      -27.274       -4.724       22.272        9.895        6.583      496.031       97.917       43.335        0.158        0.032       49.944        5.370        0.012      332.326        0.915      867.019
12/31/2013  06:09:00      -34.776      -19.746        6.764       26.400       15.851       15.844      696.958      251.247      251.046        0.142        0.060       39.991       15.211        0.145      332.256        0.802      867.038
12/31/2013  06:10:00      -36.618      -26.810        5.210       31.099       20.977       13.106      967.133      440.033      171.754        0.183        0.079       45.383       15.349        0.114      332.222        0.745      867.038
12/31/2013  06:11:00       -7.462       -8.895       10.496       13.534       14.508       10.131      183.176      210.477      102.639        0.037        0.025       11.611        8.988        0.599      332.325        0.914      867.019
12/31/2013  06:12:00      -25.808      -37.112       -0.808       19.695       18.993       11.247      387.883      360.726      126.503        0.146        0.044       45.204        8.851        0.038      332.403        1.043      867.002
12/31/2013  06:13:00      -31.729      -17.176        6.856        9.413       14.006        8.941       88.611      196.155       79.937        0.086        0.018       36.080        6.127        0.029      332.372        0.989      866.989
12/31/2013  06:14:00      -25.534       -4.808       -6.275        6.666        7.650        7.430       44.435       58.527       55.206        0.044        0.008       25.983        4.344        0.028      332.421        1.075      866.986
12/31/2013  06:15:00      -43.302      -24.563       -7.658        5.883        5.318        4.992       34.607       28.285       24.924        0.131        0.004       49.783        3.920        0.006      332.435        1.098      866.987
12/31/2013  06:16:00      -68.799      -38.291       -7.919       12.118       10.317        6.582      146.855      106.432       43.318        0.328        0.015       78.737        3.353        0.002      332.444        1.111      867.018
12/31/2013  06:17:00      -75.299      -48.143        0.483       42.422       26.343       17.972     1799.610      693.977      323.001        0.540        0.141       89.374       16.858        0.036      332.333        0.927      867.067
12/31/2013  06:18:00      -78.920      -45.828        4.818       43.976       31.489       26.524     1933.915      991.573      703.534        0.599        0.181       91.262       23.470        0.066      332.268        0.820      867.095
12/31/2013  06:19:00      -63.466      -36.300        4.303       47.985       27.720       17.821     2302.602      768.375      317.577        0.438        0.169       73.114       18.928        0.067      332.325        0.913      867.097
12/31/2013  06:20:00      -75.394      -50.989       -1.138       21.256       28.469       11.985      451.831      810.462      143.639        0.485        0.070       91.018        6.657        0.005      332.414        1.062      867.084
12/31/2013  06:21:00      -71.405      -32.351        5.597       41.249       20.191       17.510     1701.459      407.682      306.595        0.430        0.121       78.392       19.313        0.061      332.362        0.975      867.088
12/31/2013  06:22:00      -59.052      -29.851        5.285       45.624       25.522       22.090     2081.506      651.387      487.984        0.381        0.161       66.168       23.566        0.127      332.388        1.018      867.104
12/31/2013  06:23:00      -75.321      -29.578        1.675       25.215       24.701       14.935      635.808      610.133      223.049        0.401        0.073       80.920       14.868        0.034      332.372        0.991      867.128
12/31/2013  06:24:00      -76.085      -14.510        2.053       29.972       22.564       13.818      898.331      509.147      190.924        0.380        0.080       77.456       12.897        0.028      332.335        0.929      867.150
12/31/2013  06:25:00      -86.142      -21.048       -5.849       16.871       29.958       13.513      284.637      897.480      182.598        0.463        0.068       88.676       10.411        0.014      332.331        0.924      867.172
12/31/2013  06:26:00      -45.726      -12.027       -4.374       18.398       21.993       12.508      338.470      483.677      156.439        0.162        0.049       47.282        6.322        0.018      332.343        0.943      867.187
12/31/2013  06:27:00      -53.306        5.656       -4.836       14.525       11.296       10.416      210.970      127.598      108.496        0.167        0.022       53.605        7.599        0.020      332.412        1.056      867.186
12/31/2013  06:28:00      -97.539        7.513       -6.989       20.311       12.751        8.185      412.557      162.592       67.000        0.513        0.032       97.828        9.449        0.009      332.450        1.120      867.185
12/31/2013  06:29:00     -107.990      -34.579      -10.288       13.552        9.780       11.327      183.669       95.639      128.309        0.669        0.020      113.391        7.000        0.004      332.365        0.981      867.195
12/31/2013  06:30:00      -65.646      -45.998        2.315       25.573       17.587       16.534      653.973      309.317      273.370        0.383        0.062       80.158       14.166        0.031      332.374        0.994      867.206
12/31/2013  06:31:00      -59.214      -47.809        3.424       26.376       17.734       18.504      695.696      314.488      342.380        0.358        0.068       76.105       15.130        0.040      332.405        1.048      867.213
12/31/2013  06:32:00      -66.592       -9.864       -0.025       21.041       17.240       13.188      442.724      297.218      173.928        0.272        0.046       67.318       11.734        0.030      332.417        1.064      867.210
12/31/2013  06:33:00      -91.567      -49.045       -6.420       19.614       14.010       12.410      384.714      196.291      154.010        0.578        0.037      103.874        9.375        0.008      332.428        1.084      867.217
12/31/2013  06:34:00      -95.551      -31.066       -4.248       15.971       14.882        8.710      255.064      221.471       75.871        0.533        0.028      100.474        6.644        0.004      332.315        0.896      867.219
12/31/2013  06:35:00      -57.832        2.200       -3.153       20.665       17.248       10.909      427.033      297.499      119.011        0.210        0.042       57.874        9.821        0.029      332.261        0.809      867.215
12/31/2013  06:36:00      -46.014      -11.006       -4.034       15.915        9.891        9.077      253.283       97.824       82.396        0.134        0.022       47.312        7.578        0.026      332.230        0.757      867.205
12/31/2013  06:37:00      -22.335       -3.410        1.992       10.753       10.071        6.570      115.626      101.423       43.166        0.039        0.013       22.594        4.749        0.044      332.191        0.693      867.200
12/31/2013  06:38:00      -24.455      -13.911        5.107       11.910       13.571        8.410      141.850      184.183       70.724        0.061        0.020       28.135        7.231        0.066      332.261        0.810      867.201
12/31/2013  06:39:00      -15.723       13.083       10.911       16.567       14.186       11.682      274.458      201.248      136.462        0.057        0.031       20.454       11.056        0.292      332.294        0.862      867.212
12/31/2013  06:40:00       -7.765       36.748       -3.410       11.417       13.481       10.554      130.350      181.742      111.377        0.092        0.021       37.560        6.139        0.027      332.531        1.253      867.235
12/31/2013  06:41:00      -19.700       11.466        0.015       14.302       14.424       10.783      204.559      208.051      116.272        0.052        0.026       22.793        5.844        0.066      332.398        1.034      867.264
12/31/2013  06:42:00      -34.719       -3.780       -0.989       15.737        8.667        9.563      247.645       75.117       91.454        0.082        0.021       34.924        9.543        0.075      332.342        0.940      867.282
12/31/2013  06:43:00      -19.466      -16.295        2.691        9.418       10.959        6.893       88.696      120.093       47.511        0.045        0.013       25.386        5.070        0.040      332.272        0.826      867.281
12/31/2013  06:44:00       -7.593       -2.261       -4.674        9.593        4.219        5.537       92.027       17.801       30.662        0.011        0.007        7.923        4.177        0.278      332.267        0.816      867.273
12/31/2013  06:45:00        1.544        6.702       -0.657        6.110        7.697        6.386       37.326       59.246       40.777        0.009        0.007        6.878        2.477        0.130      332.364        0.978      867.262
12/31/2013  06:46:00       12.461       16.392        9.044        9.249        7.271        7.811       85.538       52.860       61.020        0.035        0.010       20.591        3.808        0.034      332.320        0.907      867.260
12/31/2013  06:47:00       19.480       35.958        1.590        8.041        7.121        7.849       64.655       50.713       61.610        0.093        0.009       40.896        7.547        0.034      332.128        0.589      867.258
12/31/2013  06:48:00       27.027       38.630       -5.040        7.138       12.328        7.647       50.956      151.980       58.472        0.125        0.013       47.145        8.043        0.029      332.048        0.457      867.260
12/31/2013  06:49:00       37.505       36.956      -10.667       15.019       12.246       13.258      225.583      149.976      175.775        0.172        0.028       52.653        8.190        0.024      331.936        0.273      867.253
12/31/2013  06:50:00       40.682       48.445       -9.782       13.261       10.369        8.804      175.853      107.509       77.503        0.223        0.018       63.260        6.958        0.012      331.954        0.301      867.244
12/31/2013  06:51:00       19.681       53.740      -13.553        7.419        8.043        6.627       55.040       64.686       43.913        0.181        0.008       57.231        5.558        0.009      332.073        0.501      867.248
12/31/2013  06:52:00       26.547       37.161       -8.887        6.030       12.309        8.092       36.355      151.522       65.488        0.121        0.013       45.670        6.350        0.019      332.053        0.467      867.253
12/31/2013  06:53:00       23.189       26.478       -4.325       10.710       10.933        9.852      114.700      119.529       97.069        0.079        0.017       35.197        8.610        0.060      332.074        0.499      867.254
12/31/2013  06:54:00        6.692       24.232       -8.962       10.019        9.710        7.084      100.373       94.283       50.186        0.048        0.012       25.139        6.803        0.073      332.103        0.547      867.257
12/31/2013  06:55:00        1.974       22.321       -4.589        4.906        6.391        4.256       24.067       40.847       18.110        0.030        0.004       22.408        3.066        0.019      332.078        0.509      867.253
12/31/2013  06:56:00        2.786       22.870        1.955       13.243       10.607        8.912      175.379      112.498       79.418        0.045        0.018       23.039        6.060        0.069      332.108        0.559      867.230
12/31/2013  06:57:00       32.347       53.551       -3.349       18.768       20.270       14.412      352.252      410.870      207.709        0.245        0.049       62.562       11.794        0.036      332.066        0.488      867.207
12/31/2013  06:58:00       45.290       28.484        2.269       17.082       19.757        9.731      291.786      390.326       94.694        0.182        0.039       53.502        8.845        0.027      332.040        0.445      867.191
12/31/2013  06:59:00       33.746       18.906       -4.806       11.976       13.579        8.308      143.423      184.383       69.030        0.096        0.020       38.681        7.754        0.040      332.045        0.455      867.193
12/31/2013  07:00:00        6.649       20.419        1.846       17.231       13.526        9.470      296.909      182.955       89.673        0.052        0.028       21.474        7.198        0.112      332.050        0.461      867.202
12/31/2013  07:01:00      -30.296        2.772        2.138       11.087        9.426        7.478      122.931       88.853       55.918        0.060        0.013       30.422        5.214        0.029      332.011        0.399      867.206
12/31/2013  07:02:00      -50.338        1.797       -9.073       10.022       10.825        8.134      100.433      117.177       66.156        0.145        0.014       50.371        5.462        0.012      331.888        0.195      867.207
12/31/2013  07:03:00      -57.111      -14.954       -7.286       14.556        9.658        8.509      211.869       93.284       72.402        0.196        0.019       59.036        5.674        0.009      331.933        0.269      867.212
12/31/2013  07:04:00      -53.611       -8.181       -8.424       12.966       13.262       10.849      168.105      175.876      117.693        0.174        0.023       54.232        8.737        0.026      331.900        0.213      867.227
12/31/2013  07:05:00      -53.974      -11.764       -1.082       13.746       13.735       10.481      188.961      188.647      109.860        0.177        0.024       55.241        5.317        0.009      332.089        0.525      867.247
12/31/2013  07:06:00      -50.001       21.161       -1.331       31.244       19.144       10.714      976.193      366.486      114.797        0.220        0.073       54.295       10.982        0.041      332.107        0.555      867.257
12/31/2013  07:07:00      -46.480        8.369       -7.341       15.162       10.834        6.975      229.882      117.384       48.654        0.134        0.020       47.228        6.805        0.021      332.022        0.415      867.270
12/31/2013  07:08:00      -16.633        2.437       -4.195       12.392       12.717        5.990      153.571      161.734       35.879        0.033        0.018       16.810        5.998        0.127      332.179        0.674      867.277
12/31/2013  07:09:00       11.156       22.713        2.987       15.414       25.348       10.762      237.585      642.524      115.810        0.082        0.050       25.305       13.881        0.301      332.175        0.668      867.294
12/31/2013  07:10:00        7.056       45.599        1.747        5.801       13.539        7.240       33.655      183.317       52.411        0.120        0.013       46.141        5.094        0.012      332.238        0.770      867.312
12/31/2013  07:11:00        4.548       15.761       -2.678       11.832       10.795        9.442      140.005      116.527       89.149        0.031        0.017       16.404        4.038        0.061      331.998        0.374      867.330
12/31/2013  07:12:00       18.454       38.709       -9.832       11.357       23.076       11.277      128.971      532.496      127.161        0.136        0.039       42.883       13.923        0.105      332.059        0.475      867.349
12/31/2013  07:13:00        0.119       10.360       -1.592        8.031       12.774        6.077       64.503      163.185       36.932        0.019        0.013       10.360        3.995        0.149      331.991        0.363      867.368
12/31/2013  07:14:00       13.525       28.325       -7.340       11.510       14.878        5.602      132.470      221.341       31.381        0.071        0.019       31.388        4.581        0.021      331.985        0.354      867.382
12/31/2013  07:15:00       -3.341        4.052        0.543       14.773       15.621        7.364      218.234      244.001       54.230        0.027        0.026        5.252        9.156        3.040      331.947        0.289      867.402
12/31/2013  07:16:00       -2.775        7.504       -8.955       16.080       12.071        7.719      258.553      145.700       59.589        0.030        0.023        8.001        6.760        0.714      332.082        0.515      867.402
12/31/2013  07:17:00       21.362       25.656       -2.296       11.814       10.048        9.748      139.563      100.959       95.024        0.073        0.017       33.385        6.124        0.034      332.062        0.482      867.405
12/31/2013  07:18:00       16.708       21.637       -0.725       14.758       12.694        9.853      217.805      161.130       97.082        0.061        0.024       27.337        7.781        0.081      332.105        0.553      867.413
12/31/2013  07:19:00        0.239       12.079       -1.419       11.760       11.811        7.634      138.291      139.499       58.276        0.024        0.017       12.081        8.900        0.543      332.102        0.546      867.432
12/31/2013  07:20:00      -51.915      -12.517       -9.239        9.834        8.210        6.831       96.710       67.397       46.659        0.157        0.011       53.403        5.766        0.012      331.881        0.182      867.447
12/31/2013  07:21:00      -64.945       -5.170      -10.140       13.065        8.916        9.304      170.682       79.492       86.567        0.234        0.017       65.150        6.228        0.009      331.778        0.012      867.469
12/31/2013  07:22:00      -84.867       -3.572      -13.147       13.983       13.354       10.748      195.522      178.331      115.515        0.394        0.024       84.942        7.735        0.008      331.693       -0.126      867.490
12/31/2013  07:23:00      -61.932       -5.834       -8.788       20.540       14.265       11.264      421.873      203.495      126.882        0.235        0.038       62.206       10.697        0.030      331.640       -0.214      867.513
12/31/2013  07:24:00      -76.395        2.561      -14.751       14.380        9.972        8.584      206.783       99.434       73.692        0.322        0.019       76.438        6.108        0.006      331.608       -0.267      867.526
12/31/2013  07:25:00      -82.796       -3.282      -14.835       19.370       13.940       11.443      375.186      194.332      130.944        0.389        0.035       82.861        9.884        0.014      331.604       -0.273      867.557
12/31/2013  07:26:00      -55.000      -10.759       -4.703       36.026       34.273       21.252     1297.863     1174.640      451.628        0.304        0.146       56.043       17.487        0.097      331.583       -0.309      867.579
12/31/2013  07:27:00      -68.370       16.368      -15.008       43.500       34.723       23.365     1892.228     1205.661      545.918        0.441        0.182       70.302       12.294        0.031      331.646       -0.204      867.586
12/31/2013  07:28:00      -29.437      -15.029       -7.503       31.146       17.785       17.641      970.080      316.301      311.221        0.137        0.080       33.052       14.283        0.187      331.712       -0.094      867.569
12/31/2013  07:29:00       -5.707       -5.649        3.386       15.393       18.276       12.648      236.957      334.000      159.973        0.040        0.037        8.030       13.127        2.673      331.794        0.037      867.544
12/31/2013  07:30:00      -45.461      -21.726       -6.026       51.332       12.472       10.198     2635.000      155.550      103.997        0.273        0.145       50.386       17.921        0.127      331.759       -0.019      867.560
12/31/2013  07:31:00      -97.843      -27.905      -17.848       26.388       25.725       14.658      696.349      661.784      214.863        0.612        0.079      101.744       13.984        0.019      331.600       -0.280      867.612
12/31/2013  07:32:00     -114.595      -14.602      -11.566       27.310       23.366       19.176      745.855      545.990      367.706        0.757        0.083      115.522       14.381        0.015      331.536       -0.385      867.666
12/31/2013  07:33:00      -57.575      -11.011       -3.637       24.164       17.496       15.172      583.905      306.109      230.191        0.228        0.056       58.619       13.224        0.051      331.592       -0.292      867.678
12/31/2013  07:34:00      -53.099      -11.865      -11.393       25.373       13.799       10.769      643.808      190.411      115.979        0.202        0.048       54.408        5.987        0.012      331.640       -0.215      867.651
12/31/2013  07:35:00        6.581      -38.899       -0.550       24.730       14.417       17.138      611.595      207.857      293.718        0.133        0.056       39.452       14.979        0.144      331.728       -0.069      867.631
12/31/2013  07:36:00      -12.166      -34.864        1.782       32.189       17.846       14.679     1036.119      318.473      215.487        0.147        0.079       36.925        9.236        0.063      331.786        0.026      867.603
12/31/2013  07:37:00      -64.694      -16.728       -4.611       19.269       16.129       11.511      371.307      260.151      132.503        0.263        0.038       66.822        9.823        0.022      331.781        0.017      867.589
12/31/2013  07:38:00      -71.473       -1.974       -1.961       26.187       12.701        9.778      685.756      161.320       95.613        0.303        0.047       71.500       12.051        0.028      331.766       -0.007      867.592
12/31/2013  07:39:00      -69.741        2.503      -11.597       19.877       17.976        9.917      395.101      323.120       98.339        0.291        0.041       69.786       10.616        0.023      331.745       -0.042      867.602
12/31/2013  07:40:00      -31.274        0.850       -4.187       18.620       22.247       15.727      346.701      494.929      247.329        0.104        0.054       31.286       12.930        0.171      331.819        0.081      867.616
12/31/2013  07:41:00      -52.129      -22.418       -8.188       17.888       12.595       11.720      319.968      158.641      137.355        0.195        0.031       56.745       11.490        0.041      331.812        0.068      867.636
12/31/2013  07:42:00      -59.272      -42.396       -6.815       16.436       15.546       10.566      270.130      241.669      111.642        0.299        0.031       72.874        6.480        0.008      331.799        0.046      867.645
12/31/2013  07:43:00      -95.046      -13.580       -9.637       14.140       10.831        9.620      199.934      117.311       92.549        0.486        0.020       96.012        5.710        0.004      331.747       -0.037      867.638
12/31/2013  07:44:00      -64.986      -12.164       -8.458       24.455       10.157       10.863      598.041      103.164      118.006        0.263        0.041       66.114        9.875        0.022      331.687       -0.135      867.613
12/31/2013  07:45:00      -20.835       -5.304       -2.951       14.831        7.855        9.350      219.967       61.708       87.431        0.042        0.018       21.500        9.616        0.200      331.827        0.092      867.584
12/31/2013  07:46:00       11.514       -0.464       -2.408        9.248        9.872        9.957       85.526       97.453       99.149        0.021        0.014       11.524        8.515        0.546      331.866        0.158      867.591
12/31/2013  07:47:00       -4.635       -8.687       -1.277        8.268        4.148        4.119       68.355       17.203       16.967        0.010        0.005        9.846        2.563        0.068      331.946        0.288      867.616
12/31/2013  07:48:00        4.801       -2.375        9.037        3.730        5.696        6.979       13.911       32.445       48.706        0.010        0.005        5.356        5.690        1.128      332.067        0.489      867.630
12/31/2013  07:49:00       31.121       20.955       11.212       11.440        8.789       10.493      130.867       77.241      110.095        0.093        0.016       37.518        8.064        0.046      331.948        0.293      867.640
12/31/2013  07:50:00       34.414       11.416        3.475       11.390        8.714       10.293      129.742       75.941      105.956        0.082        0.016       36.258        4.672        0.017      331.967        0.324      867.655
12/31/2013  07:51:00        1.183      -13.607       -1.690        6.685       11.608        8.809       44.693      134.748       77.592        0.022        0.013       13.659        7.818        0.328      332.097        0.539      867.690
12/31/2013  07:52:00      -28.090       -8.322       -1.433       11.719        7.445        5.656      137.329       55.435       31.987        0.054        0.011       29.297        6.527        0.050      331.793        0.037      867.706
12/31/2013  07:53:00       -2.753        0.538        9.279        5.083       12.760        9.379       25.833      162.828       87.967        0.019        0.014        2.806        9.293       10.972      332.031        0.429      867.687
12/31/2013  07:54:00       31.927       12.257       16.181       14.854        9.927       13.631      220.653       98.539      185.797        0.097        0.025       34.199        8.062        0.056      332.051        0.463      867.683
12/31/2013  07:55:00       21.765       21.013       17.749       14.765        8.650       12.292      218.011       74.825      151.093        0.084        0.022       30.253        5.296        0.031      332.079        0.510      867.702
12/31/2013  07:56:00      -16.828      -12.045       14.364       20.473       23.545       13.307      419.164      554.374      177.064        0.089        0.058       20.694       12.193        0.347      332.162        0.647      867.729
12/31/2013  07:57:00      -45.331       -5.851       -0.400        7.461        8.188        7.297       55.669       67.037       53.243        0.113        0.009       45.707        4.856        0.011      331.859        0.145      867.756
12/31/2013  07:58:00      -18.862       18.209        0.719       27.445        9.013       10.480      753.202       81.235      109.835        0.082        0.047       26.217       14.171        0.292      331.992        0.367      867.768
12/31/2013  07:59:00       27.258       28.505        1.716       10.126        8.689        8.859      102.537       75.490       78.488        0.091        0.013       39.440        5.405        0.019      332.214        0.732      867.767
12/31/2013  08:00:00       12.318       -2.749        4.264       11.096        8.608        9.717      123.116       74.100       94.418        0.023        0.015       12.621        6.318        0.251      332.342        0.941      867.781
12/31/2013  08:01:00       12.914       -0.804        1.253        7.818        7.101        5.750       61.128       50.431       33.062        0.016        0.007       12.939        3.142        0.059      332.386        1.016      867.803
12/31/2013  08:02:00       -7.487      -26.770        4.505       10.846        7.764       14.482      117.635       60.281      209.737        0.059        0.019       27.798        5.537        0.040      332.252        0.794      867.832
12/31/2013  08:03:00       -2.933      -10.668        6.405        7.471        8.075        8.952       55.822       65.203       80.144        0.018        0.010       11.064        5.829        0.278      332.151        0.627      867.859
12/31/2013  08:04:00       19.936       12.663       17.217       26.330       15.069       11.707      693.290      227.075      137.046        0.096        0.053       23.617       15.865        0.451      332.367        0.982      867.868
12/31/2013  08:05:00       64.850       41.409       26.510       20.971       19.687       24.544      439.777      387.566      602.395        0.403        0.071       76.943       19.373        0.063      332.376        0.997      867.867
12/31/2013  08:06:00       18.366       39.937       53.986       22.067       19.937       10.989      486.943      397.468      120.765        0.293        0.050       43.958        8.605        0.038      332.495        1.192      867.866
12/31/2013  08:07:00       21.233      -17.858       20.167       28.285       30.346       19.674      800.018      920.899      387.083        0.164        0.105       27.745       21.534        0.602      332.637        1.429      867.881
12/31/2013  08:08:00       12.198      -10.232       18.603       12.646       19.785       11.900      159.912      391.462      141.621        0.065        0.035       15.921        9.662        0.368      332.616        1.393      867.927
12/31/2013  08:09:00       10.490      -61.369       -1.853       29.752       29.645       19.306      885.170      878.803      372.722        0.301        0.107       62.259       15.974        0.066      332.513        1.222      867.927
12/31/2013  08:10:00        7.076      -40.432       17.731       28.128       35.774       26.091      791.198     1279.792      680.723        0.237        0.138       41.047       26.571        0.419      332.731        1.586      867.923
12/31/2013  08:11:00       18.828        8.091       17.192       25.435       21.918       22.980      646.947      480.417      528.098        0.119        0.083       20.493       14.775        0.520      332.815        1.723      867.908
12/31/2013  08:12:00       12.203      -10.966       22.884       21.970       24.938       28.718      482.662      621.882      824.722        0.136        0.096       16.406       22.904        1.949      332.871        1.816      867.920
12/31/2013  08:13:00       20.800      -38.119        1.519       24.285       39.639       24.962      589.753     1571.257      623.092        0.234        0.139       43.425       25.775        0.352      332.809        1.714      867.951
12/31/2013  08:14:00      -35.284      -36.126      -11.471       26.137       21.026       10.520      683.126      442.085      110.662        0.196        0.062       50.498        6.574        0.017      332.675        1.492      868.003
12/31/2013  08:15:00      -20.973       -6.885        2.563       12.666       11.436        7.113      160.423      130.786       50.590        0.042        0.017       22.074        6.145        0.078      332.713        1.554      868.039
12/31/2013  08:16:00      -22.692        6.098        0.657       20.635        9.266       15.808      425.790       85.857      249.886        0.066        0.038       23.497       15.201        0.419      332.745        1.609      868.060
12/31/2013  08:17:00       -1.627       28.431       29.193       17.248       22.388       33.677      297.497      501.210     1134.151        0.180        0.097       28.478       18.257        0.411      332.996        2.022      868.079
12/31/2013  08:18:00       28.410       69.529       73.371       34.390       35.333       19.630     1182.681     1248.437      385.321        0.692        0.141       75.109       13.524        0.032      332.927        1.909      868.086
12/31/2013  08:19:00       43.270       93.915       90.312       38.850       33.419       29.311     1509.324     1116.845      859.142        1.117        0.174      103.403       20.445        0.039      332.845        1.773      868.087
12/31/2013  08:20:00       55.762       63.797       65.468       42.177       40.454       35.120     1778.920     1636.493     1233.424        0.806        0.232       84.732       29.070        0.118      332.835        1.757      868.098
12/31/2013  08:21:00       30.971       25.965       30.582       39.992       30.789       29.225     1599.351      947.952      854.101        0.298        0.170       40.416       23.963        0.352      332.974        1.986      868.111
12/31/2013  08:22:00       43.751       12.807        8.154       27.290       18.757       19.070      744.753      351.811      363.677        0.180        0.073       45.587        8.716        0.037      332.831        1.751      868.120
12/31/2013  08:23:00       82.031       37.691       16.372       56.039       38.179       25.726     3140.319     1457.609      661.822        0.684        0.263       90.276       18.665        0.043      332.867        1.809      868.107
12/31/2013  08:24:00       38.839       86.367       89.200       41.858       44.997       34.901     1752.068     2024.739     1218.094        1.096        0.250       94.698       25.464        0.072      332.859        1.796      868.083
12/31/2013  08:25:00       23.635       84.140       85.831       34.910       40.979       23.078     1218.686     1679.270      532.606        0.922        0.172       87.397       23.746        0.074      332.775        1.656      868.076
12/31/2013  08:26:00       83.473       79.468       53.336       28.037       18.155       25.517      786.099      329.609      651.118        0.895        0.088      115.251       15.316        0.018      332.579        1.331      868.079
12/31/2013  08:27:00      106.622       71.601       17.632       29.689       22.097       27.028      881.451      488.265      730.510        0.945        0.105      128.433        7.603        0.004      332.573        1.322      868.086
12/31/2013  08:28:00       94.947       59.767        9.735       44.274       45.506       32.879     1960.209     2070.752     1081.007        0.890        0.256      112.192       21.928        0.038      332.720        1.565      868.080
12/31/2013  08:29:00       82.295       46.568       16.500       52.303       37.204       34.855     2735.560     1384.164     1214.895        0.727        0.267       94.558       21.095        0.050      332.718        1.562      868.094
12/31/2013  08:30:00        5.738      -35.954       31.114       42.366       50.598       24.711     1794.918     2560.168      610.657        0.363        0.248       36.409       16.445        0.204      332.907        1.875      868.126
12/31/2013  08:31:00       82.624       75.066       30.706       30.511       22.892       24.837      930.897      524.029      616.866        0.774        0.104      111.631       10.386        0.009      332.561        1.304      868.145
12/31/2013  08:32:00      159.408       98.004       29.044       45.067       48.525       37.915     2031.026     2354.699     1437.531        2.084        0.291      187.125       18.642        0.010      332.669        1.478      868.109
12/31/2013  08:33:00       82.183       57.810       35.766       68.067       49.958       39.668     4633.172     2495.759     1573.524        1.004        0.435      100.479       23.114        0.053      332.701        1.533      868.099
12/31/2013  08:34:00       30.720       20.804        8.112       36.285       24.383       18.977     1316.591      594.549      360.135        0.186        0.114       37.101       13.302        0.129      332.739        1.598      868.169
12/31/2013  08:35:00       69.043       47.661       15.262       47.539       26.076       17.130     2259.930      679.979      293.436        0.525        0.162       83.895       12.962        0.024      332.735        1.591      868.179
12/31/2013  08:36:00       63.767       78.944       68.999       50.369       38.763       36.845     2537.078     1502.597     1357.582        1.023        0.270      101.481       34.374        0.115      332.742        1.603      868.134
12/31/2013  08:37:00       -6.669       57.509       75.512       25.493       32.530       32.771      649.917     1058.182     1073.929        0.592        0.139       57.894       23.699        0.168      332.731        1.584      868.153
12/31/2013  08:38:00        0.751       16.456       17.785       10.353       14.136       12.000      107.178      199.832      143.991        0.052        0.023       16.473        8.145        0.244      332.780        1.666      868.196
12/31/2013  08:39:00       52.656       29.012        5.561       37.838       20.961       15.586     1431.719      439.364      242.919        0.288        0.106       60.120       13.233        0.048      332.520        1.237      868.205
12/31/2013  08:40:00      120.660       94.127       14.902       26.990       27.210       21.862      728.440      740.366      477.965        1.279        0.097      153.032        6.648        0.002      332.569        1.315      868.168
12/31/2013  08:41:00      -32.864        8.137       17.264       42.126       34.021       27.611     1774.621     1157.400      762.393        0.257        0.185       33.857        4.088        0.015      332.746        1.611      868.183
12/31/2013  08:42:00      -96.676      -11.999       -3.920       53.293       27.608       23.778     2840.117      762.205      565.412        0.684        0.208       97.418       23.758        0.059      332.748        1.612      868.218
12/31/2013  08:43:00       26.868       50.949       16.937       53.621       39.447       25.045     2875.216     1556.036      627.274        0.433        0.253       57.599       31.341        0.296      332.832        1.752      868.221
12/31/2013  08:44:00      160.691       98.591        8.181       55.317       39.899       39.843     3059.951     1591.941     1587.426        2.092        0.312      188.525       23.128        0.015      332.776        1.657      868.154
12/31/2013  08:45:00       28.122       48.056        3.052       63.596       35.137       37.399     4044.493     1234.617     1398.675        0.489        0.334       55.680       23.349        0.176      332.756        1.626      868.188
12/31/2013  08:46:00     -121.024      -32.425       -9.222       67.223       71.514       30.202     4518.877     5114.242      912.157        1.316        0.527      125.293       29.829        0.057      333.038        2.091      868.267
12/31/2013  08:47:00      -59.450      -46.426        1.517       90.627       38.287       26.064     8213.193     1465.858      679.307        0.802        0.518       75.430       23.061        0.093      333.035        2.084      868.275
12/31/2013  08:48:00       29.710       72.420       64.813       62.068       48.732       51.558     3852.435     2374.832     2658.179        0.961        0.444       78.277       43.669        0.311      333.251        2.443      868.186
12/31/2013  08:49:00       14.448       34.560       12.876       48.973       28.021       29.182     2398.315      785.200      851.597        0.280        0.202       37.458       24.657        0.433      333.156        2.287      868.211
12/31/2013  08:50:00      -14.281       27.055        1.035       27.582       22.198       17.552      760.785      492.768      308.062        0.125        0.078       30.593       17.257        0.318      333.165        2.300      868.273
12/31/2013  08:51:00     -116.647      -29.315      -11.076       24.578       33.755       13.004      604.062     1139.371      169.105        0.825        0.096      120.274        9.014        0.006      333.085        2.169      868.324
12/31/2013  08:52:00      -54.915       14.880        2.499       40.718       25.647       18.472     1657.934      657.783      341.232        0.295        0.133       56.895       15.794        0.077      333.283        2.496      868.354
12/31/2013  08:53:00       -3.653       70.384       -8.058       25.486       44.499       18.957      649.550     1980.177      359.361        0.401        0.149       70.479       16.843        0.057      333.376        2.649      868.368
12/31/2013  08:54:00      -12.001       65.967        0.320       32.973       42.686       32.479     1087.237     1822.133     1054.853        0.423        0.198       67.050       24.647        0.135      333.447        2.767      868.401
12/31/2013  08:55:00      -45.117        8.746       -8.522       28.890       21.029       12.806      834.604      442.225      163.989        0.181        0.072       45.957        6.700        0.021      333.346        2.601      868.412
12/31/2013  08:56:00      -99.629        2.119      -11.389       35.000       17.313       13.087     1225.000      299.739      171.267        0.588        0.085       99.652       15.023        0.023      333.288        2.506      868.417
12/31/2013  08:57:00      -18.455       -6.757       15.439       21.341       13.055       14.196      455.430      170.432      201.528        0.073        0.041       19.653       15.081        0.589      333.947        3.597      868.407
12/31/2013  08:58:00        6.224       22.639       -5.733       33.613       28.318       15.171     1129.852      801.900      230.149        0.137        0.108       23.479       11.426        0.237      333.646        3.097      868.416
12/31/2013  08:59:00       10.215       43.523       -4.960       21.055       28.485       23.487      443.297      811.380      551.627        0.191        0.090       44.706       14.497        0.105      333.788        3.333      868.415
12/31/2013  09:00:00        4.139       -0.075       16.171       20.949       14.552       12.788      438.865      211.766      163.527        0.055        0.041        4.140        5.296        1.636      334.017        3.713      868.429
12/31/2013  09:01:00       17.214       37.479        9.658       24.540       26.720       20.395      602.215      713.950      415.959        0.176        0.087       41.243       19.097        0.214      333.867        3.464      868.456
12/31/2013  09:02:00       78.059       72.574        3.025       35.590       24.001       26.618     1266.656      576.031      708.516        0.696        0.128      106.584       15.352        0.021      333.568        2.969      868.478
12/31/2013  09:03:00       28.483       59.510       -3.815       29.059       24.960       22.590      844.413      623.021      510.295        0.317        0.099       65.975       20.433        0.096      333.710        3.202      868.531
12/31/2013  09:04:00        8.742       12.517        0.026       11.896       17.151       17.363      141.510      294.173      301.476        0.049        0.037       15.267       11.115        0.530      333.912        3.539      868.597
12/31/2013  09:05:00       -1.771       36.342        7.884       20.481       19.827       12.774      419.475      393.120      163.180        0.118        0.049       36.386        6.887        0.036      333.804        3.360      868.628
12/31/2013  09:06:00       52.594       71.859        0.247       35.503       20.968       20.876     1260.459      439.652      435.806        0.503        0.107       89.050       15.209        0.029      333.732        3.239      868.618
12/31/2013  09:07:00       59.490       37.289       -3.476       16.394       15.172       11.976      268.747      230.199      143.422        0.279        0.032       70.211        4.743        0.005      333.716        3.213      868.618
12/31/2013  09:08:00      101.612       53.177        7.295       32.652       21.135       21.026     1066.138      446.694      442.095        0.758        0.098      114.686        8.657        0.006      333.662        3.123      868.603
12/31/2013  09:09:00       96.476       71.877       -0.122       24.080       25.224       22.057      579.836      636.228      486.496        0.809        0.085      120.307       13.426        0.012      333.640        3.088      868.597
12/31/2013  09:10:00       68.604       57.774        8.535       25.755       20.754       17.034      663.338      430.731      290.173        0.475        0.069       89.690       12.084        0.018      333.663        3.125      868.607
12/31/2013  09:11:00       50.525       42.733        3.457       26.541       16.560       19.455      704.442      274.224      378.510        0.287        0.068       66.173       13.030        0.039      333.678        3.150      868.616
12/31/2013  09:12:00       36.251       29.976        7.616       19.977       12.895       18.755      399.085      166.292      351.733        0.159        0.046       47.040       10.285        0.048      333.766        3.297      868.623
12/31/2013  09:13:00       31.314       22.526        9.307       24.922       22.622       19.451      621.098      511.737      378.353        0.154        0.076       38.575       14.514        0.142      333.774        3.310      868.648
12/31/2013  09:14:00       56.248       50.281       20.624       25.149       26.090       20.933      632.491      680.710      438.189        0.393        0.088       75.445       12.652        0.028      333.873        3.473      868.659
12/31/2013  09:15:00        2.153       52.556       65.324       27.961       35.324       21.233      781.798     1247.818      450.820        0.476        0.124       52.600       15.069        0.082      334.055        3.775      868.669
12/31/2013  09:16:00       22.870       66.098       58.138       37.894       33.902       35.990     1435.960     1149.322     1295.298        0.608        0.194       69.943       24.329        0.121      333.837        3.413      868.695
12/31/2013  09:17:00       79.484       54.888       20.713       18.907       14.926       23.477      357.467      222.786      551.161        0.545        0.057       96.594        8.750        0.008      333.651        3.106      868.712
12/31/2013  09:18:00       48.202       49.956        6.614       30.705       21.337       22.411      942.818      455.259      502.264        0.338        0.095       69.419        9.825        0.020      333.782        3.322      868.702
12/31/2013  09:19:00       94.261       71.454        4.600       40.700       21.900       23.381     1656.456      479.622      546.652        0.835        0.134      118.283       19.824        0.028      333.666        3.130      868.697
12/31/2013  09:20:00       66.915       48.922       26.530       30.281       16.669       25.262      916.930      277.867      638.179        0.470        0.092       82.891       15.634        0.036      333.641        3.089      868.694
12/31/2013  09:21:00       40.766       36.689       20.407       15.241       15.683       14.598      232.287      245.951      213.105        0.206        0.035       54.845       11.146        0.041      333.644        3.093      868.706
12/31/2013  09:22:00       16.093       19.961       20.944       18.637       21.468       10.786      347.327      460.885      116.342        0.101        0.046       25.640       10.437        0.166      333.912        3.539      868.730
12/31/2013  09:23:00        6.339       16.177       25.560       11.315       13.925        9.432      128.028      193.909       88.962        0.068        0.021       17.375        7.452        0.184      333.978        3.648      868.747
12/31/2013  09:24:00        7.080        8.854       34.172       14.615       17.249       10.719      213.590      297.524      114.900        0.096        0.031       11.337        5.527        0.238      334.161        3.952      868.757
12/31/2013  09:25:00        6.359       30.366       39.396       16.114       23.030       13.301      259.672      530.390      176.907        0.174        0.048       31.024        7.056        0.052      334.103        3.856      868.759
12/31/2013  09:26:00        4.359       -0.055       28.670       10.817       23.440       19.111      116.998      549.446      365.225        0.094        0.052        4.360       18.380       17.775      334.190        4.000      868.775
12/31/2013  09:27:00      -24.317       -4.088        7.427       30.297       16.953       12.596      917.929      287.399      158.659        0.101        0.068       24.658       15.744        0.408      334.190        4.001      868.811
12/31/2013  09:28:00      -92.946      -24.327       -5.817       14.859       20.408        9.866      220.782      416.501       97.343        0.500        0.037       96.077        6.702        0.005      333.951        3.603      868.860
12/31/2013  09:29:00      -53.669      -30.161        0.432       51.322       17.857       17.889     2633.913      318.878      320.011        0.353        0.164       61.563       20.997        0.116      334.009        3.700      868.872
12/31/2013  09:30:00      -46.747      -27.958       -4.697       34.882       27.139       19.085     1216.754      736.516      364.228        0.265        0.116       54.469       16.374        0.090      334.046        3.761      868.871
12/31/2013  09:31:00      -26.731      -19.756        5.465       18.360       18.789       13.526      337.076      353.015      182.951        0.100        0.044       33.240       10.772        0.105      334.121        3.886      868.858
12/31/2013  09:32:00      -31.502      -11.217       -4.765       13.095       10.074        9.710      171.476      101.487       94.288        0.075        0.018       33.440        5.519        0.027      334.052        3.772      868.838
12/31/2013  09:33:00      -42.124       -9.409        2.562       20.485       21.768       12.005      419.625      473.856      144.117        0.145        0.052       43.162       10.850        0.063      334.094        3.839      868.838
12/31/2013  09:34:00       -4.964        9.304        1.384       19.664       11.802       15.086      386.671      139.283      227.602        0.043        0.038       10.545       14.516        1.895      334.268        4.129      868.843
12/31/2013  09:35:00       31.166       43.625       -3.675       13.041       12.560       12.847      170.061      157.747      165.036        0.169        0.025       53.614        3.979        0.006      334.146        3.926      868.843
12/31/2013  09:36:00       11.194       48.780       -3.077       15.857       14.503       17.369      251.444      210.333      301.693        0.164        0.038       50.048        6.655        0.018      334.226        4.059      868.856
12/31/2013  09:37:00       21.370       29.546       21.897       31.306       23.195       26.766      980.037      538.001      716.392        0.202        0.112       36.464       17.461        0.229      334.397        4.343      868.860
12/31/2013  09:38:00       -2.420        1.780       18.990        5.307        9.488       14.333       28.167       90.016      205.434        0.035        0.016        3.004        8.954        8.886      334.577        4.641      868.879
12/31/2013  09:39:00      -31.885      -13.131        6.358       25.660       24.762       15.037      658.437      613.132      226.108        0.136        0.075       34.483       11.179        0.105      334.305        4.190      868.908
12/31/2013  09:40:00      -49.120      -28.226       -3.236       19.578       17.928       14.690      383.292      321.410      215.790        0.207        0.046       56.652        8.152        0.021      334.244        4.089      868.925
12/31/2013  09:41:00      -19.008      -60.128       -0.884       45.293       35.248       16.824     2051.487     1242.445      283.047        0.378        0.179       63.061        9.288        0.022      334.259        4.113      868.920
12/31/2013  09:42:00      -76.052      -54.472       -0.654       19.736       38.530       18.440      389.491     1484.590      340.031        0.548        0.111       93.548       12.301        0.017      334.131        3.901      868.899
12/31/2013  09:43:00      -61.861      -42.815       -2.797       45.861       31.910       19.178     2103.241     1018.218      367.809        0.458        0.174       75.232       11.994        0.025      334.252        4.102      868.866
12/31/2013  09:44:00      -23.164       11.841       -2.102       22.700       26.777       11.737      515.298      717.004      137.762        0.103        0.069       26.015        7.783        0.090      334.229        4.064      868.843
12/31/2013  09:45:00        7.700       18.991       -6.536       31.453       16.553       14.895      989.301      274.009      221.875        0.097        0.074       20.493       11.548        0.318      334.332        4.236      868.849
12/31/2013  09:46:00      -24.115       -5.624        3.481       20.126       24.358       13.498      405.059      593.319      182.204        0.090        0.059       24.762        5.983        0.058      334.434        4.406      868.881
12/31/2013  09:47:00      -30.463      -58.999        5.223       48.113       41.802       27.004     2314.814     1747.378      729.242        0.461        0.240       66.399       26.587        0.160      334.388        4.328      868.912
12/31/2013  09:48:00      -73.132      -47.175       -0.599       35.214       31.100       20.618     1240.042      967.196      425.084        0.510        0.132       87.028        2.637        0.001      334.306        4.191      868.926
12/31/2013  09:49:00      -62.679      -66.878       -9.471       23.560       23.130       16.757      555.061      535.012      280.789        0.493        0.069       91.659       16.337        0.032      334.219        4.048      868.957
12/31/2013  09:50:00      -70.062      -49.071       -5.786       26.021       24.258       15.044      677.117      588.437      226.319        0.442        0.075       85.537       14.475        0.029      334.198        4.015      869.002
12/31/2013  09:51:00      -82.329      -49.597       -0.109       36.503       31.814       14.300     1332.469     1012.159      204.489        0.589        0.127       96.114       14.588        0.023      334.273        4.137      869.053
12/31/2013  09:52:00     -126.157      -53.368       -6.645       28.389       29.396       18.277      805.941      864.143      334.037        1.041        0.100      136.981       18.365        0.018      334.220        4.048      869.099
12/31/2013  09:53:00     -105.391      -55.511      -11.597       19.273       19.630       12.489      371.431      385.326      155.983        0.762        0.046      119.116        7.046        0.003      334.127        3.896      869.133
12/31/2013  09:54:00      -29.431      -35.497        1.314       21.632       22.334       17.272      467.948      498.803      298.327        0.170        0.063       46.111        9.818        0.045      334.336        4.241      869.117
12/31/2013  09:55:00      -70.467      -33.099      -11.251       12.193        8.292        5.670      148.665       68.759       32.154        0.322        0.012       77.854        3.230        0.002      334.175        3.976      869.078
12/31/2013  09:56:00      -55.092      -32.501        0.822       22.115       16.962       14.332      489.077      287.717      205.405        0.254        0.049       63.964       12.491        0.038      334.343        4.255      869.071
12/31/2013  09:57:00     -114.745      -57.087       -2.562       24.980       21.893       17.272      624.010      479.318      298.339        0.892        0.070      128.161       14.946        0.014      334.252        4.103      869.076
12/31/2013  09:58:00      -63.635      -44.947       -7.405       26.463       15.587        7.335      700.282      242.950       53.800        0.356        0.050       77.908        4.403        0.003      334.243        4.089      869.093
12/31/2013  09:59:00      -11.895      -22.964        4.006       23.959       18.744       10.316      574.043      351.353      106.420        0.086        0.052       25.862        4.075        0.025      334.415        4.375      869.101
12/31/2013  10:00:00        1.519      -39.974       -4.671       16.835       23.440       17.752      283.434      549.416      315.138        0.138        0.057       40.003       13.590        0.115      334.469        4.462      869.103
12/31/2013  10:01:00      -30.704      -16.642       -1.390       11.687       15.507       13.255      136.586      240.482      175.704        0.089        0.028       34.924        6.540        0.035      334.511        4.532      869.099
12/31/2013  10:02:00       -5.555        9.288       -0.820       25.960       31.578       15.299      673.919      997.192      234.044        0.101        0.095       10.823        7.609        0.494      334.606        4.691      869.103
12/31/2013  10:03:00       17.544       62.098       -2.496       28.410       46.548       15.432      807.110     2166.745      238.154        0.369        0.161       64.529       17.542        0.074      334.651        4.764      869.100
12/31/2013  10:04:00       68.840       53.629        7.323       35.464       25.597       23.436     1257.699      655.188      549.269        0.506        0.123       87.264       16.742        0.037      334.604        4.685      869.080
12/31/2013  10:05:00      125.364       78.340       10.040       33.143       22.784       25.004     1098.486      519.104      625.178        1.210        0.112      147.829        8.649        0.003      334.559        4.611      869.079
12/31/2013  10:06:00       52.518       60.847       31.148       44.704       33.713       31.758     1998.452     1136.559     1008.601        0.579        0.207       80.377       10.946        0.019      334.672        4.799      869.067
12/31/2013  10:07:00       55.461       53.946       -4.117       29.037       33.945       27.166      843.130     1152.233      738.015        0.437        0.137       77.370       19.059        0.061      334.560        4.613      869.055
12/31/2013  10:08:00       74.152       50.441       -1.262       25.814       20.555       23.101      666.354      422.510      533.679        0.483        0.081       89.681       11.786        0.017      334.752        4.932      869.040
12/31/2013  10:09:00       65.221       49.805        9.038       36.161       31.568       22.139     1307.620      996.542      490.147        0.480        0.140       82.063       13.818        0.028      334.791        4.996      869.034
12/31/2013  10:10:00       -4.494       34.472       -1.774       22.210       15.747       16.203      493.264      247.983      262.548        0.111        0.050       34.763        9.777        0.079      334.795        5.004      869.023
12/31/2013  10:11:00       12.320       45.879       15.003       38.134       33.482       18.664     1454.184     1121.066      348.355        0.270        0.146       47.504       12.447        0.069      334.955        5.270      869.003
12/31/2013  10:12:00       56.197       58.049       -7.728       17.584       20.100       20.695      309.213      404.026      428.289        0.386        0.057       80.795       14.785        0.033      334.727        4.892      868.982
12/31/2013  10:13:00       41.683       12.540       -3.911       26.954       23.794       15.926      726.529      566.161      253.651        0.173        0.077       43.529       10.609        0.059      334.733        4.900      868.963
12/31/2013  10:14:00       38.956       45.902       30.742       41.723       25.361       31.820     1740.815      643.190     1012.517        0.398        0.170       60.205       21.992        0.133      334.867        5.124      868.963
12/31/2013  10:15:00       74.116       21.803       14.280       33.186       29.304       22.255     1101.302      858.721      495.300        0.431        0.123       77.256       16.442        0.045      334.732        4.900      868.960
12/31/2013  10:16:00       36.274       20.076       36.628       24.671       31.894       26.282      608.660     1017.242      690.734        0.269        0.116       41.459       24.936        0.362      334.841        5.080      868.950
12/31/2013  10:17:00       27.467       30.668       28.395       24.931       21.850       18.388      621.570      477.432      338.114        0.197        0.072       41.169        6.695        0.026      334.951        5.263      868.932
12/31/2013  10:18:00       50.994       62.195       60.236       29.549       21.228       21.066      873.130      450.633      443.774        0.593        0.088       80.428       17.124        0.045      334.810        5.029      868.912
12/31/2013  10:19:00       12.971       36.839       36.554       23.026       30.491       16.744      530.202      929.702      280.347        0.230        0.087       39.056        7.160        0.034      334.961        5.279      868.908
12/31/2013  10:20:00        8.263       23.370       42.128       26.610       41.462       30.564      708.104     1719.107      934.163        0.287        0.168       24.787       28.267        1.301      335.067        5.456      868.909
12/31/2013  10:21:00        7.230       26.024       40.265       32.261       36.621       24.203     1040.797     1341.091      585.795        0.266        0.148       27.010       14.078        0.272      335.080        5.476      868.907
12/31/2013  10:22:00       39.697       -3.813       42.648       29.376       37.447       31.043      862.969     1402.296      963.652        0.332        0.161       39.880       21.011        0.278      335.074        5.466      868.880
12/31/2013  10:23:00       39.677       26.163       41.398       27.329       39.974       23.577      746.869     1597.913      555.870        0.344        0.145       47.527       21.728        0.209      334.954        5.267      868.854
12/31/2013  10:24:00       38.958      -62.107        0.315       37.976       42.558       34.648     1442.140     1811.198     1200.461        0.491        0.223       73.314       33.790        0.212      335.021        5.379      868.824
12/31/2013  10:25:00       28.465       -4.987       33.105       33.541       52.642       43.567     1124.986     2771.188     1898.126        0.386        0.290       28.898       40.394        1.954      335.136        5.570      868.813
12/31/2013  10:26:00       33.186       35.868       62.837       34.247       42.061       27.673     1172.841     1769.117      765.772        0.502        0.185       48.865       29.092        0.354      334.971        5.296      868.804
12/31/2013  10:27:00       70.718      -58.342        0.946       42.625       55.644       37.568     1816.871     3096.213     1411.352        0.736        0.316       91.678       43.692        0.227      334.970        5.294      868.809
12/31/2013  10:28:00       34.901      -25.155       26.641       29.992       57.718       36.722      899.523     3331.325     1348.474        0.407        0.279       43.021       35.503        0.681      335.116        5.537      868.815
12/31/2013  10:29:00       60.590      -69.400        3.025       45.682       56.975       29.847     2086.868     3246.141      890.816        0.736        0.311       92.128       28.728        0.097      334.979        5.309      868.805
12/31/2013  10:30:00       48.488      -52.384       13.547       69.198       42.875       33.146     4788.407     1838.306     1098.675        0.650        0.386       71.381       39.567        0.307      335.058        5.441      868.763
12/31/2013  10:31:00        6.000        7.920       61.187       22.004       41.401       23.395      484.193     1714.017      547.330        0.329        0.137        9.936       16.756        2.844      335.244        5.749      868.725
12/31/2013  10:32:00      -17.772      -53.573       10.938       44.624       48.692       29.682     1991.318     2370.955      881.028        0.427        0.262       56.444       17.532        0.096      335.101        5.512      868.707
12/31/2013  10:33:00      -45.636      -67.707       11.720       43.813       39.230       31.855     1919.614     1538.972     1014.749        0.564        0.224       81.652       18.726        0.053      335.125        5.551      868.708
12/31/2013  10:34:00       26.063      -52.075       15.936       37.201       60.629       43.914     1383.896     3675.827     1928.467        0.532        0.349       58.233       28.076        0.232      335.137        5.573      868.707
12/31/2013  10:35:00        9.686       13.090       55.704       31.320       43.826       35.097      980.966     1920.741     1231.810        0.375        0.207       16.284       33.798        4.308      335.199        5.673      868.713
12/31/2013  10:36:00        1.345       -2.468       48.738       44.529       39.700       30.392     1982.846     1576.054      923.673        0.343        0.224        2.811       33.264      140.072      335.314        5.865      868.715
12/31/2013  10:37:00      -54.056      -22.909       -3.219       39.253       27.991       22.712     1540.778      783.505      515.830        0.315        0.142       58.710       16.250        0.077      335.231        5.726      868.714
12/31/2013  10:38:00        3.784       10.571       33.206       17.032        9.831       10.042      290.091       96.653      100.836        0.086        0.024       11.228        5.402        0.231      335.685        6.484      868.693
12/31/2013  10:39:00       23.590      -16.551       26.763       40.236       41.768       39.268     1618.964     1744.603     1541.982        0.323        0.245       28.817       39.634        1.892      335.290        5.826      868.680
12/31/2013  10:40:00      114.538     -108.339      -20.353       41.342       44.195       28.517     1709.120     1953.206      813.221        1.487        0.224      157.659       22.900        0.021      335.081        5.477      868.659
12/31/2013  10:41:00       27.264      -31.165       34.626       35.741       61.963       45.909     1277.427     3839.424     2107.613        0.507        0.361       41.408       47.857        1.336      335.354        5.932      868.650
12/31/2013  10:42:00       25.112       46.202       62.386       38.524       41.047       38.010     1484.133     1684.872     1444.778        0.563        0.231       52.586       32.272        0.377      335.247        5.755      868.659
12/31/2013  10:43:00       44.003      -22.379       29.970       62.516       90.632       49.891     3908.211     8214.238     2489.113        0.897        0.731       49.367       68.248        1.911      335.075        5.470      868.672
12/31/2013  10:44:00       64.999      -50.866       -4.605       55.400       57.204       39.345     3069.120     3272.344     1548.014        0.736        0.394       82.536       44.991        0.297      335.006        5.354      868.671
12/31/2013  10:45:00       23.638       12.263       26.344       33.780       39.763       35.320     1141.116     1581.104     1247.531        0.269        0.198       26.630       23.174        0.757      335.153        5.597      868.657
12/31/2013  10:46:00       81.159      -72.208      -12.793       51.972       49.764       33.156     2701.056     2476.431     1099.336        0.912        0.314      108.631       36.769        0.115      334.989        5.325      868.633
12/31/2013  10:47:00       38.698      -15.016       36.680       35.969       41.298       40.335     1293.805     1705.556     1626.935        0.385        0.231       41.509       26.510        0.408      335.189        5.658      868.596
12/31/2013  10:48:00       18.791       20.582       49.965       34.822       40.912       32.748     1212.574     1673.776     1072.423        0.362        0.198       27.870       31.872        1.308      335.235        5.734      868.560
12/31/2013  10:49:00       15.102       -4.344       46.709       33.791      109.067       52.511     1141.842    11895.627     2757.392        0.911        0.790       15.715       69.470       19.543      335.152        5.597      868.518
12/31/2013  10:50:00       -1.116      -57.775       23.417       43.714       41.718       42.107     1910.933     1740.432     1773.015        0.466        0.271       57.786       32.135        0.309      335.299        5.839      868.480
12/31/2013  10:51:00       -1.951      -35.890       30.580       29.778       45.114       33.272      886.702     2035.253     1107.058        0.313        0.201       35.943       26.291        0.535      335.367        5.953      868.448
12/31/2013  10:52:00      -13.728      -34.558       -6.971       34.675       30.237       23.845     1202.381      914.257      568.604        0.206        0.134       37.185       10.889        0.086      335.351        5.926      868.433
12/31/2013  10:53:00        6.012      -10.784       20.257       22.773       31.843       19.760      518.589     1013.951      390.440        0.124        0.096       12.347       17.396        1.985      335.557        6.269      868.416
12/31/2013  10:54:00      -36.069        2.128       -2.059       31.360       28.092       15.729      983.422      789.142      247.412        0.166        0.101       36.131       14.045        0.151      335.345        5.915      868.396
12/31/2013  10:55:00      -33.377      -54.869       -7.256       30.945       31.263       33.715      957.603      977.390     1136.673        0.362        0.154       64.223       20.795        0.105      335.402        6.010      868.387
12/31/2013  10:56:00        7.067        6.165       10.751       25.942       33.075       25.866      672.996     1093.980      669.054        0.132        0.122        9.378       16.761        3.194      335.495        6.167      868.395
12/31/2013  10:57:00       39.321       58.274       33.927       16.484       16.716       23.012      271.731      279.416      529.550        0.359        0.054       70.299        6.741        0.009      335.216        5.701      868.429
12/31/2013  10:58:00       -0.899       47.302       -4.120       48.161       24.666       19.744     2319.462      608.393      389.809        0.279        0.166       47.311       26.247        0.308      335.254        5.767      868.484
12/31/2013  10:59:00      -93.868       90.466      -31.879       15.050       18.907       12.830      226.509      357.487      164.598        0.938        0.037      130.366        9.932        0.006      335.208        5.689      868.523
12/31/2013  11:00:00      -68.814       66.962      -15.251       44.110       20.054       21.075     1945.683      402.175      444.167        0.612        0.140       96.017       22.592        0.055      335.198        5.673      868.516
12/31/2013  11:01:00      -77.766        7.958       -6.597       18.521       21.482       11.994      343.033      461.487      143.854        0.355        0.047       78.173        4.602        0.003      335.184        5.649      868.453
12/31/2013  11:02:00      -25.287      -19.568       -4.326       23.411       10.130       10.265      548.058      102.609      105.370        0.090        0.038       31.974       10.754        0.113      335.194        5.665      868.362
12/31/2013  11:03:00       -9.080      -14.119        7.843       10.807        9.840        8.613      116.796       96.832       74.176        0.032        0.014       16.787        6.584        0.154      335.372        5.959      868.284
12/31/2013  11:04:00       14.548       38.238        4.691       20.316       23.541       19.249      412.754      554.160      370.537        0.152        0.067       40.912       18.300        0.200      335.470        6.126      868.239
12/31/2013  11:05:00       31.164       22.654        9.175       36.267       18.430       16.444     1315.323      339.677      270.393        0.175        0.096       38.528       14.455        0.141      335.464        6.115      868.230
12/31/2013  11:06:00       47.296       39.243       20.099       22.315       21.826       17.797      497.942      476.389      316.741        0.274        0.065       61.456       11.429        0.035      335.341        5.909      868.248
12/31/2013  11:07:00       42.671       42.343       32.273       27.298       23.801       26.056      745.191      566.498      678.922        0.332        0.100       60.114       16.937        0.079      335.543        6.247      868.274
12/31/2013  11:08:00       65.368       60.308       -9.419       33.102       29.219       33.380     1095.713      853.728     1114.238        0.553        0.153       88.938       13.203        0.022      335.348        5.922      868.296
12/31/2013  11:09:00       94.501       54.154       -0.937       34.132       24.902       18.279     1165.013      620.104      334.117        0.699        0.106      108.917       20.757        0.036      335.216        5.702      868.301
12/31/2013  11:10:00       71.591       26.649        9.731       36.954       34.461       23.491     1365.562     1187.592      551.825        0.452        0.155       76.390       20.310        0.071      335.169        5.624      868.255
12/31/2013  11:11:00       22.976       45.597       35.427       37.909       38.894       32.824     1437.076     1512.757     1077.417        0.394        0.201       51.058       29.918        0.343      335.440        6.075      868.146
12/31/2013  11:12:00       29.355       40.527       47.342       43.675       48.862       33.964     1907.526     2387.470     1153.532        0.510        0.272       50.042       28.682        0.329      335.475        6.131      868.061
12/31/2013  11:13:00       41.026      -44.773       13.816       38.141       43.374       32.772     1454.712     1881.339     1073.992        0.414        0.221       60.727       27.266        0.202      335.530        6.225      868.022
12/31/2013  11:14:00       21.099        4.331       38.490       36.282       39.968       27.968     1316.367     1597.470      782.204        0.282        0.185       21.539       24.927        1.339      335.746        6.586      868.006
12/31/2013  11:15:00       39.453       31.962       53.290       33.674       41.435       31.437     1133.942     1716.853      988.291        0.463        0.192       50.775       26.796        0.279      335.619        6.374      867.994
12/31/2013  11:16:00       24.431       48.054       57.384       38.856       30.681       26.017     1509.787      941.348      676.889        0.466        0.156       53.908       17.147        0.101      335.723        6.546      867.991
12/31/2013  11:17:00       51.969       41.403       12.377       49.196       37.653       23.843     2420.287     1417.766      568.512        0.449        0.220       66.445       17.245        0.067      335.711        6.527      867.981
12/31/2013  11:18:00       26.359       18.013       30.248       31.415       34.498       27.635      986.896     1190.145      763.701        0.244        0.147       31.926        9.391        0.087      336.122        7.211      867.962
12/31/2013  11:19:00       40.296       35.889       35.454       45.601       30.291       31.867     2079.443      917.543     1015.505        0.409        0.201       53.961       27.105        0.252      336.024        7.049      867.933
12/31/2013  11:20:00       27.110       61.079       65.032       64.326       45.295       32.735     4137.822     2051.608     1071.575        0.798        0.363       66.825       20.759        0.096      336.089        7.158      867.902
12/31/2013  11:21:00        5.087       51.617       83.984       24.242       47.722       27.901      587.673     2277.357      778.490        0.669        0.182       51.867       32.187        0.385      336.054        7.100      867.883
12/31/2013  11:22:00       45.927       72.250       80.323       34.617       37.433       27.750     1198.340     1401.259      770.049        0.857        0.168       85.611       26.350        0.095      335.793        6.664      867.871
12/31/2013  11:23:00       29.300       36.862       51.432       25.811       30.045       17.401      666.186      902.718      302.786        0.337        0.094       47.088       13.384        0.081      335.932        6.896      867.870
12/31/2013  11:24:00       25.738      -33.171       16.877       33.820       54.052       34.956     1143.772     2921.623     1221.934        0.367        0.264       41.985       28.468        0.460      336.040        7.075      867.845
12/31/2013  11:25:00      -12.631       10.786       32.869       50.554       58.871       43.600     2555.673     3465.747     1900.944        0.464        0.396       16.610       43.826        6.962      336.120        7.207      867.826
12/31/2013  11:26:00      -25.073      -33.543       12.739       39.989       41.514       31.259     1599.125     1723.453      977.097        0.311        0.215       41.878       27.853        0.442      336.178        7.306      867.822
12/31/2013  11:27:00       11.736       -0.800       27.323       27.996       35.628       25.314      783.771     1269.384      640.802        0.179        0.135       11.763       23.157        3.875      336.411        7.694      867.818
12/31/2013  11:28:00      -10.807       -7.988       13.268       57.259       54.383       28.693     3278.592     2957.547      823.279        0.371        0.353       13.439       19.261        2.054      336.049        7.090      867.801
12/31/2013  11:29:00      -56.181      -40.833       -4.876       30.823       39.175       23.474      950.075     1534.669      551.030        0.394        0.152       69.452       12.154        0.031      336.169        7.290      867.780
12/31/2013  11:30:00      -41.579      -21.624       -4.866       19.898       19.967       19.626      395.944      398.701      385.191        0.170        0.059       46.866       12.164        0.067      336.097        7.170      867.763
12/31/2013  11:31:00       32.421      -52.861        8.796       37.297       76.313       39.357     1391.059     5823.699     1548.966        0.634        0.438       62.011       51.347        0.686      336.175        7.301      867.749
12/31/2013  11:32:00       37.658      -85.449       15.648       48.985       65.743       41.582     2399.500     4322.156     1729.095        0.871        0.423       93.379       50.241        0.289      336.222        7.380      867.727
12/31/2013  11:33:00      130.260      -77.706       16.094       47.988       72.073       43.466     2302.872     5194.505     1889.335        1.632        0.469      151.677       45.484        0.090      336.026        7.051      867.713
12/31/2013  11:34:00       11.163       35.370       22.027       46.330       41.008       42.172     2146.495     1681.654     1778.447        0.373        0.280       37.089       30.864        0.692      336.071        7.126      867.698
12/31/2013  11:35:00       16.363       -9.710       34.348       35.445       53.345       30.126     1256.345     2845.728      907.596        0.327        0.250       19.028       14.240        0.560      336.458        7.774      867.667
12/31/2013  11:36:00       46.670      -36.261       38.143       45.924       83.389       47.084     2109.056     6953.729     2216.893        0.811        0.564       59.101       60.163        1.036      336.319        7.541      867.649
12/31/2013  11:37:00       -2.380        1.545       56.717       37.076       55.200       29.728     1374.645     3047.094      883.745        0.426        0.265        2.837       26.105       84.643      336.689        8.158      867.625
12/31/2013  11:38:00       83.138      -22.800       34.683       55.905       60.299       47.214     3125.318     3635.969     2229.124        0.881        0.450       86.208       51.694        0.360      336.321        7.544      867.625
12/31/2013  11:39:00       24.264       62.789       85.746       46.078       64.028       38.513     2123.209     4099.537     1483.258        0.979        0.385       67.315       41.406        0.378      336.289        7.490      867.630
12/31/2013  11:40:00       69.945      -73.398       16.858       67.331       80.436       44.107     4533.423     6469.954     1945.404        1.175        0.647      101.388       57.113        0.317      336.130        7.225      867.643
12/31/2013  11:41:00       99.434      -96.443      -18.509       19.712       29.736       19.209      388.567      884.246      368.991        1.059        0.082      138.523        4.888        0.001      335.821        6.711      867.648
12/31/2013  11:42:00       66.384      -58.344       -8.337       31.182       29.708       25.314      972.330      882.579      640.792        0.519        0.125       88.379       20.265        0.053      335.957        6.936      867.632
12/31/2013  11:43:00       50.495      -15.745       13.493       23.662       37.923       27.254      559.905     1438.127      742.780        0.286        0.137       52.892       13.422        0.064      336.167        7.287      867.600
12/31/2013  11:44:00       64.411       75.012        0.812       21.630       33.424       27.085      467.871     1117.154      733.598        0.605        0.116       98.872        9.939        0.010      336.051        7.093      867.530
12/31/2013  11:45:00       64.112       53.951       23.895       47.419       37.563       26.646     2248.535     1410.949      710.019        0.598        0.218       83.792       20.767        0.061      336.362        7.612      867.467
12/31/2013  11:46:00       33.155      -44.111        7.460       51.462       46.925       35.138     2648.370     2201.946     1234.705        0.459        0.304       55.182       31.240        0.320      336.627        8.056      867.435
12/31/2013  11:47:00       -0.340      -23.856       -7.726       32.566       24.692       35.927     1060.544      609.710     1290.764        0.179        0.148       23.858       22.617        0.899      336.493        7.831      867.418
12/31/2013  11:48:00       43.723      -50.874       -1.083       23.259       32.009       28.097      540.998     1024.573      789.461        0.343        0.118       67.081       19.849        0.088      336.355        7.601      867.401
12/31/2013  11:49:00       33.424      -47.465       -0.030       31.392       32.632       24.796      985.448     1064.866      614.860        0.302        0.133       58.053       22.959        0.156      336.342        7.579      867.390
12/31/2013  11:50:00        1.561       37.014       52.094       19.695       25.172       23.372      387.875      633.641      546.270        0.283        0.078       37.047       16.656        0.202      336.941        8.581      867.369
12/31/2013  11:51:00       40.496      -18.231       39.867       69.091       59.868       39.512     4773.534     3584.179     1561.187        0.674        0.496       44.411       35.555        0.641      336.824        8.384      867.362
12/31/2013  11:52:00       55.496      -17.993       40.887       43.064       61.161       34.549     1854.519     3740.721     1193.664        0.593        0.339       58.340       37.453        0.412      336.575        7.968      867.350
12/31/2013  11:53:00       43.992       16.821       61.256       51.459       57.081       31.496     2648.078     3258.195      991.986        0.643        0.345       47.098       33.941        0.519      336.602        8.014      867.339
12/31/2013  11:54:00       45.534       66.728       53.649       46.425       50.289       44.918     2155.299     2528.995     2017.600        0.805        0.335       80.783       35.938        0.198      336.552        7.931      867.324
12/31/2013  11:55:00      127.091       85.741       21.587       79.009       40.314       52.317     6242.434     1625.179     2737.084        1.729        0.530      153.309       42.093        0.075      336.426        7.718      867.304
12/31/2013  11:56:00      143.033       85.458       15.946       82.042       55.273       43.416     6730.900     3055.153     1884.920        1.984        0.584      166.618       28.361        0.029      336.260        7.440      867.296
12/31/2013  11:57:00      168.851       99.280       21.964       67.082       52.238       38.901     4499.929     2728.807     1513.304        2.379        0.437      195.875       14.226        0.005      336.205        7.347      867.293
12/31/2013  11:58:00      105.442       22.901       32.714       72.704       51.119       44.298     5285.869     2613.143     1962.348        1.129        0.493      107.900       37.581        0.121      336.344        7.582      867.273
12/31/2013  11:59:00      141.095       66.830       37.799       65.496       50.622       46.164     4289.739     2562.593     2131.077        1.739        0.449      156.122       42.537        0.074      336.370        7.626      867.265
12/31/2013  12:00:00       92.498       78.687       66.046       77.293       65.677       62.072     5974.184     4313.530     3852.959        1.662        0.707      121.440       56.563        0.217      336.500        7.844      867.245
12/31/2013  12:01:00      101.607       92.583       27.586       44.532       40.802       35.253     1983.078     1664.781     1242.788        1.227        0.245      137.461       28.525        0.043      336.466        7.787      867.216
12/31/2013  12:02:00       31.608       48.374       67.867       34.804       35.798       33.303     1211.294     1281.506     1109.118        0.577        0.180       57.785       17.714        0.094      336.753        8.268      867.199
12/31/2013  12:03:00       55.328       53.557       40.506       49.513       37.623       31.205     2451.508     1415.468      973.743        0.620        0.242       77.004       29.850        0.150      336.745        8.253      867.180
12/31/2013  12:04:00      114.442       72.557       18.702       54.287       50.188       43.915     2947.052     2518.845     1928.514        1.305        0.370      135.505       29.844        0.049      336.553        7.932      867.174
12/31/2013  12:05:00      127.020       49.316        7.047       66.935       50.295       26.628     4480.235     2529.575      709.052        1.317        0.386      136.258       20.488        0.023      336.322        7.543      867.154
12/31/2013  12:06:00       56.101       56.579       29.206       50.306       41.767       41.834     2530.667     1744.490     1750.100        0.661        0.301       79.678       33.981        0.182      336.636        8.071      867.146
12/31/2013  12:07:00       77.617       87.381       37.179       65.641       47.195       50.434     4308.713     2227.365     2543.593        1.206        0.454      116.875       45.573        0.152      336.567        7.955      867.122
12/31/2013  12:08:00       49.323       52.147        8.604       37.521       32.134       31.475     1407.838     1032.568      990.693        0.433        0.172       71.778       19.684        0.075      336.501        7.846      867.121
12/31/2013  12:09:00       71.679       83.876      -10.597       37.333       49.667       40.981     1393.746     2466.833     1679.407        0.891        0.277      110.332       32.294        0.086      336.550        7.928      867.093
12/31/2013  12:10:00      119.788       70.866       14.127       55.372       45.524       32.133     3066.045     2072.391     1032.513        1.287        0.309      139.180       25.750        0.034      336.588        7.991      867.066
12/31/2013  12:11:00      124.562       88.170       44.658       45.218       35.996       41.030     2044.711     1295.680     1683.423        1.515        0.251      152.609       18.005        0.014      336.559        7.943      867.033
12/31/2013  12:12:00      123.840       82.219       12.207       54.153       39.205       33.375     2932.547     1537.053     1113.892        1.391        0.279      148.649       24.591        0.027      336.663        8.115      867.007
12/31/2013  12:13:00      131.520       93.561       16.771       38.701       33.100       30.674     1497.742     1095.596      940.899        1.493        0.177      161.404       18.962        0.014      336.572        7.963      866.996
12/31/2013  12:14:00       69.704       50.123       19.931       43.933       44.792       28.593     1930.108     2006.317      817.560        0.626        0.238       85.855       20.847        0.059      336.769        8.295      866.988
12/31/2013  12:15:00       81.605       62.827        9.056       48.027       31.128       30.070     2306.563      968.939      904.211        0.743        0.209      102.988       21.772        0.045      336.697        8.174      866.990
12/31/2013  12:16:00       46.901       43.748       43.280       41.690       33.651       27.281     1738.075     1132.379      744.269        0.480        0.181       64.137       18.795        0.086      336.875        8.469      867.004
12/31/2013  12:17:00      108.509       78.938       11.603       45.284       32.519       37.059     2050.679     1057.505     1373.350        1.131        0.224      134.184       16.520        0.015      336.636        8.071      867.015
12/31/2013  12:18:00       65.401       21.910       26.629       42.787       38.458       37.246     1830.723     1479.034     1387.275        0.508        0.235       68.974       32.575        0.223      336.857        8.440      866.999
12/31/2013  12:19:00       50.836       49.496       16.045       25.549       23.783       26.628      652.737      565.627      709.074        0.361        0.096       70.952        5.636        0.006      336.918        8.540      866.974
12/31/2013  12:20:00       52.527       59.874       55.758       54.291       37.967       41.845     2947.504     1441.528     1750.977        0.780        0.307       79.650       25.458        0.102      336.988        8.659      866.943
12/31/2013  12:21:00       91.240       97.359       70.827       54.576       39.259       46.746     2978.516     1541.263     2185.176        1.476        0.335      133.430       41.051        0.095      336.765        8.286      866.898
12/31/2013  12:22:00       36.303       77.795       85.181       39.233       44.139       27.518     1539.227     1948.234      757.219        0.943        0.212       85.849       26.116        0.093      336.796        8.339      866.860
12/31/2013  12:23:00       44.582       52.535       75.799       60.254       39.659       27.891     3630.538     1572.810      777.930        0.824        0.299       68.902       28.076        0.166      336.905        8.519      866.849
12/31/2013  12:24:00       58.926       22.218       33.897       54.461       38.833       37.633     2965.991     1507.971     1416.242        0.550        0.295       62.975       23.199        0.136      336.775        8.303      866.850
12/31/2013  12:25:00       62.575       36.267       30.219       39.988       27.491       22.938     1599.071      755.733      526.170        0.451        0.144       72.325       19.908        0.076      336.853        8.433      866.838
12/31/2013  12:26:00       29.312      -73.527       19.588       43.329       45.216       36.706     1877.410     2044.444     1347.355        0.596        0.263       79.155       29.934        0.143      337.132        8.899      866.798
12/31/2013  12:27:00       35.243       24.252       58.815       31.040       61.416       30.381      963.463     3771.906      923.021        0.547        0.283       42.781       37.441        0.766      337.146        8.923      866.772
12/31/2013  12:28:00       78.777        9.985       46.649       45.670       58.520       32.806     2085.760     3424.572     1076.254        0.753        0.329       79.407       39.765        0.251      337.004        8.686      866.758
12/31/2013  12:29:00       21.661       -3.321       23.045       36.664       37.883       26.595     1344.248     1435.116      707.278        0.225        0.174       21.914       23.590        1.159      337.248        9.093      866.753
12/31/2013  12:30:00       46.969      -86.124       17.327       42.508       59.610       44.023     1806.968     3553.315     1937.990        0.861        0.365       98.099       36.968        0.142      337.179        8.978      866.754
12/31/2013  12:31:00       46.774       28.581       60.890       34.150       58.206       42.573     1166.204     3387.966     1812.479        0.654        0.318       54.815       43.728        0.636      337.324        9.221      866.750
12/31/2013  12:32:00       94.932       47.935       33.070       56.388       64.556       41.474     3179.620     4167.433     1720.076        1.073        0.453      106.347       31.438        0.087      337.108        8.859      866.756
12/31/2013  12:33:00       85.813       20.606       26.505       39.567       50.667       38.542     1565.527     2567.179     1485.460        0.705        0.281       88.253       32.195        0.133      337.138        8.908      866.758
12/31/2013  12:34:00       59.795       60.919       68.482       55.738       45.496       35.558     3106.780     2069.898     1264.343        0.921        0.322       85.362       30.289        0.126      337.309        9.197      866.743
12/31/2013  12:35:00       30.221       40.086       73.764       45.849       51.463       35.652     2102.108     2648.434     1271.052        0.699        0.301       50.202       41.943        0.698      337.294        9.171      866.735
12/31/2013  12:36:00        9.801       10.922       35.247       33.333       25.365       27.596     1111.105      643.397      761.559        0.199        0.126       14.675       29.471        4.033      337.529        9.565      866.732
12/31/2013  12:37:00        4.082      -30.739       16.890       28.024       39.697       26.540      785.346     1575.822      704.389        0.216        0.153       31.009       21.283        0.471      337.715        9.878      866.733
12/31/2013  12:38:00       -7.468       57.659       16.059       23.660       27.860       21.955      559.802      776.163      482.033        0.273        0.091       58.140       16.301        0.079      337.851       10.103      866.733
12/31/2013  12:39:00        5.539       31.517       -3.291       28.896       27.334       21.070      834.991      747.148      443.941        0.153        0.101       32.000        7.925        0.061      337.600        9.683      866.718
12/31/2013  12:40:00        4.465       67.601        8.436       36.950       37.226       21.698     1365.328     1385.741      470.815        0.394        0.161       67.748       17.279        0.065      337.646        9.762      866.704
12/31/2013  12:41:00       31.851       69.339        5.569       43.382       68.299       38.349     1881.993     4664.740     1470.641        0.693        0.401       76.304       42.794        0.315      337.513        9.539      866.689
12/31/2013  12:42:00       44.763       62.233        1.389       28.420       43.142       30.505      807.706     1861.257      930.538        0.474        0.180       76.659       27.993        0.133      337.500        9.516      866.669
12/31/2013  12:43:00       90.207       45.562        7.168       25.060       26.463       20.003      628.001      700.281      400.129        0.600        0.086      101.060        8.475        0.007      337.299        9.180      866.644
12/31/2013  12:44:00       31.837       60.976       51.265       34.766       20.920       27.546     1208.686      437.662      758.767        0.488        0.120       68.787       26.869        0.153      337.614        9.706      866.616
12/31/2013  12:45:00       67.563       48.784       44.519       27.688       23.715       31.030      766.639      562.382      962.867        0.561        0.115       83.334       11.915        0.020      337.547        9.593      866.605
12/31/2013  12:46:00       80.228       42.713       30.651       23.152       25.557       28.822      535.992      653.170      830.683        0.561        0.101       90.889       16.786        0.034      337.505        9.523      866.594
12/31/2013  12:47:00       58.634       -0.815       10.334       17.642       22.671       23.173      311.232      513.952      536.991        0.245        0.068       58.640       16.037        0.075      337.554        9.604      866.591
12/31/2013  12:48:00       35.845       14.875       17.564       23.182       26.815       20.547      537.414      719.055      422.167        0.175        0.084       38.809        7.017        0.033      337.724        9.891      866.587
12/31/2013  12:49:00       18.167       70.649        1.052       30.920       53.203       28.003      956.048     2830.540      784.164        0.495        0.229       72.947       30.046        0.170      337.897       10.182      866.573
12/31/2013  12:50:00       19.825       60.486       -5.919       24.323       36.480       23.423      591.617     1330.771      548.635        0.328        0.124       63.652       10.237        0.026      337.794       10.008      866.567
12/31/2013  12:51:00       -6.922       64.570       -7.740       26.632       27.444       24.262      709.245      753.183      588.662        0.316        0.103       64.940       15.179        0.055      337.804       10.025      866.543
12/31/2013  12:52:00        6.705       64.353      -13.757       32.532       33.123       20.387     1058.347     1097.133      415.649        0.347        0.129       64.702       13.249        0.042      337.807       10.031      866.526
12/31/2013  12:53:00       24.748       31.439        9.770       18.643       27.465       26.155      347.573      754.303      684.101        0.174        0.089       40.011       21.026        0.276      337.860       10.118      866.506
12/31/2013  12:54:00      -20.731       48.234       -0.497       30.631       40.467       30.682      938.233     1637.558      941.375        0.314        0.176       52.500       19.050        0.132      338.033       10.410      866.474
12/31/2013  12:55:00      -22.299       76.575       -0.314       23.416       36.226       23.542      548.306     1312.322      554.220        0.439        0.121       79.755       23.022        0.083      337.966       10.297      866.451
12/31/2013  12:56:00        5.013       32.589       13.672       21.126       33.863       16.270      446.302     1146.690      264.702        0.157        0.093       32.972       11.117        0.114      338.274       10.814      866.432
12/31/2013  12:57:00        9.022       32.326       -2.536       17.508       31.132       19.012      306.518      969.183      361.454        0.138        0.082       33.561       19.651        0.343      338.163       10.627      866.414
12/31/2013  12:58:00       -0.797       13.518       11.106       18.011       20.227       18.613      324.385      409.113      346.446        0.069        0.054       13.541       18.393        1.845      338.733       11.586      866.399
12/31/2013  12:59:00      -33.122       17.636       -2.358       22.816       20.516       24.062      520.556      420.924      578.987        0.147        0.076       37.524       12.249        0.107      338.129       10.571      866.393
12/31/2013  13:00:00        0.955       16.713       13.561       10.399       13.692       12.762      108.146      187.471      162.864        0.046        0.023       16.740        9.143        0.298      338.510       11.210      866.376
12/31/2013  13:01:00       -0.444       18.337       20.934       17.861       13.701       14.085      319.006      187.707      198.398        0.074        0.035       18.342       13.230        0.520      338.513       11.217      866.367
12/31/2013  13:02:00       38.366       22.726       12.342       29.897       18.272       22.976      893.810      333.848      527.903        0.195        0.088       44.591       13.344        0.090      338.304       10.866      866.364
12/31/2013  13:03:00       64.858       34.320       -5.127       26.348       32.304       21.490      694.211     1043.557      461.803        0.380        0.110       73.378       11.621        0.025      337.963       10.292      866.363
12/31/2013  13:04:00        2.392       45.592       -0.890       21.406       32.124       16.415      458.207     1031.961      269.465        0.192        0.088       45.654       16.493        0.131      338.244       10.765      866.372
12/31/2013  13:05:00        6.430       52.815       -9.885       21.432       22.880       16.634      459.327      523.490      276.699        0.209        0.063       53.205       16.447        0.096      338.186       10.666      866.374
12/31/2013  13:06:00       10.972       20.295        2.363       11.617       34.983       15.062      134.953     1223.808      226.873        0.106        0.079       23.071       19.402        0.707      338.422       11.063      866.382
12/31/2013  13:07:00       16.605       39.549        3.871       28.581       20.871       25.798      816.862      435.618      665.545        0.189        0.096       42.894       16.788        0.153      338.213       10.712      866.388
12/31/2013  13:08:00        7.815        5.615      -10.949       19.478       14.220        9.142      379.377      202.219       83.579        0.044        0.033        9.623        9.652        1.006      338.184       10.664      866.391
12/31/2013  13:09:00       -0.883       51.517        0.419       27.831       27.536       20.004      774.538      758.208      400.173        0.229        0.097       51.524       14.450        0.079      338.307       10.870      866.393
12/31/2013  13:10:00        5.547        4.977       20.932       17.333       15.950       18.084      300.422      254.404      327.037        0.069        0.044        7.453       12.283        2.716      338.804       11.706      866.365
12/31/2013  13:11:00       15.731       18.564        7.165       20.375       19.372       17.199      415.146      375.289      295.819        0.086        0.054       24.333       13.444        0.305      338.642       11.432      866.339
12/31/2013  13:12:00       22.947       37.239       -0.985       21.708       32.536       19.854      471.219     1058.572      394.172        0.192        0.096       43.741       17.714        0.164      338.514       11.219      866.308
12/31/2013  13:13:00      -12.647       53.375       -1.160       23.000       27.694       24.554      528.999      766.977      602.916        0.245        0.095       54.853       19.933        0.132      338.575       11.321      866.287
12/31/2013  13:14:00      -47.752       11.007       28.514       25.320       26.685       24.076      641.110      712.076      579.654        0.257        0.097       49.004       21.542        0.193      338.934       11.925      866.281
12/31/2013  13:15:00       -9.821       -1.108        8.223       24.619       19.369       14.572      606.112      375.169      212.337        0.068        0.060        9.883       13.102        1.757      339.004       12.042      866.280
12/31/2013  13:16:00       43.863      -55.668       10.434       42.696       43.352       23.790     1822.942     1879.433      565.957        0.470        0.213       70.873       21.683        0.094      338.532       11.248      866.270
12/31/2013  13:17:00       32.095      -73.969        9.193       32.931       46.341       24.570     1084.459     2147.456      603.676        0.521        0.192       80.632       20.881        0.067      338.592       11.349      866.253
12/31/2013  13:18:00       30.881      -21.626        9.487       24.238       32.672       18.786      587.480     1067.481      352.929        0.176        0.100       37.701       15.657        0.172      338.609       11.378      866.236
12/31/2013  13:19:00       32.928       44.291       42.056       31.175       24.915       26.712      971.886      620.737      713.554        0.356        0.115       55.190       19.733        0.128      338.513       11.216      866.220
12/31/2013  13:20:00       37.845       30.511       40.429       55.178       52.877       39.668     3044.658     2795.973     1573.512        0.570        0.371       48.612       31.966        0.432      338.691       11.515      866.185
12/31/2013  13:21:00       63.796      -59.765       16.700       47.166       42.291       34.651     2224.634     1788.487     1200.671        0.657        0.261       87.417       25.459        0.085      338.435       11.085      866.172
12/31/2013  13:22:00       71.144      -34.113       30.362       57.848       62.608       49.560     3346.349     3919.715     2456.190        0.843        0.486       78.900       49.031        0.386      338.588       11.343      866.148
12/31/2013  13:23:00       91.497      -37.106       38.170       53.921       78.270       47.019     2907.449     6126.219     2210.833        1.122        0.562       98.734       51.977        0.277      338.511       11.213      866.139
12/31/2013  13:24:00       90.546       66.756       55.279       52.537       40.616       38.793     2760.146     1649.695     1504.916        1.081        0.296      112.494       28.176        0.063      338.361       10.960      866.138
12/31/2013  13:25:00      104.882       76.292       28.111       61.690       33.954       42.401     3805.640     1152.869     1797.808        1.218        0.338      129.695       35.727        0.076      338.335       10.917      866.141
12/31/2013  13:26:00       42.144       58.218       80.702       56.451       60.010       44.829     3186.688     3601.218     2009.661        1.024        0.440       71.871       46.113        0.412      338.542       11.264      866.151
12/31/2013  13:27:00       67.122       61.267       45.548       54.169       44.851       41.676     2934.308     2011.624     1736.877        0.851        0.334       90.879       33.585        0.137      338.509       11.208      866.178
12/31/2013  13:28:00       42.730       43.074      -14.253       27.271       18.474       18.048      743.681      341.291      325.719        0.265        0.071       60.673       15.407        0.064      338.365       10.968      866.185
12/31/2013  13:29:00       12.827        9.292       -5.348       19.841       32.187       20.472      393.683     1035.975      419.086        0.106        0.092       15.839        7.631        0.232      338.587       11.339      866.194
12/31/2013  13:30:00       16.851       16.904       22.476       23.474       34.015       19.538      551.006     1157.014      381.719        0.158        0.104       23.868       18.371        0.592      338.781       11.666      866.191
12/31/2013  13:31:00       11.343       24.923       26.985       19.116       29.146       20.892      365.427      849.490      436.478        0.156        0.083       27.383        8.640        0.100      338.887       11.845      866.200
12/31/2013  13:32:00       11.780       23.915       44.281       21.244       38.877       22.890      451.286     1511.386      523.963        0.258        0.124       26.659       19.686        0.545      338.881       11.835      866.190
12/31/2013  13:33:00       48.937       12.080       31.982       38.062       28.301       31.203     1448.727      800.939      973.639        0.339        0.161       50.406       10.463        0.043      338.693       11.518      866.192
12/31/2013  13:34:00       37.453       10.584       -1.532       31.822       45.056       20.660     1012.624     2030.078      426.856        0.249        0.173       38.920       15.585        0.160      338.498       11.192      866.177
12/31/2013  13:35:00       66.359       39.242       31.265       53.575       62.462       44.597     2870.255     3901.477     1988.872        0.784        0.438       77.094       46.555        0.365      338.605       11.369      866.163
12/31/2013  13:36:00       74.520       55.020       15.919       33.936       29.645       24.937     1151.635      878.820      621.864        0.574        0.133       92.631       17.101        0.034      338.574       11.318      866.159
12/31/2013  13:37:00       40.810       29.466        6.430       31.321       20.268       19.618      981.009      410.803      384.874        0.218        0.089       50.336        8.743        0.030      338.558       11.290      866.137
12/31/2013  13:38:00       16.942       67.708       -1.160       25.260       31.361       24.928      638.075      983.492      621.398        0.356        0.112       69.795       22.626        0.105      338.598       11.358      866.127
12/31/2013  13:39:00       35.857       30.125       -2.210       31.373       34.570       30.687      984.259     1195.078      941.694        0.266        0.156       46.832       27.171        0.337      338.706       11.541      866.109
12/31/2013  13:40:00        4.671        3.727        0.897       38.008       53.238       20.360     1444.635     2834.265      414.520        0.236        0.235        5.976       16.275        7.417      338.915       11.893      866.083
12/31/2013  13:41:00       85.787       34.812       49.988       57.752       47.103       35.338     3335.280     2218.662     1248.759        0.894        0.340       92.581       28.807        0.097      338.749       11.613      866.079
12/31/2013  13:42:00       69.295      -15.086       36.921       57.380       51.255       37.086     3292.438     2627.069     1375.375        0.684        0.365       70.919       38.582        0.296      338.806       11.708      866.087
12/31/2013  13:43:00       50.250        7.458       50.741       51.836       61.296       47.785     2686.936     3757.193     2283.416        0.694        0.436       50.800       50.021        0.970      338.783       11.670      866.100
12/31/2013  13:44:00       89.409      -33.427       36.469       58.487       66.069       44.120     3420.776     4365.114     1946.541        1.009        0.487       95.454       39.201        0.169      338.659       11.461      866.116
12/31/2013  13:45:00       50.067      -93.752       -6.609       38.498       51.566       40.662     1482.105     2659.052     1653.437        0.857        0.290      106.283       20.251        0.036      338.639       11.428      866.122
12/31/2013  13:46:00       12.770      -17.116       28.945       33.700       38.505       24.734     1135.682     1482.633      611.792        0.226        0.162       21.355       22.772        1.137      338.988       12.017      866.150
12/31/2013  13:47:00        6.093      -16.078       -0.015       19.460       24.359       16.654      378.707      593.345      277.346        0.077        0.062       17.194       14.905        0.751      338.952       11.953      866.166
12/31/2013  13:48:00       84.545       49.101       16.312       79.207       32.353       42.210     6273.807     1046.708     1781.708        0.946        0.455       97.769       15.184        0.024      338.765       11.639      866.172
12/31/2013  13:49:00       53.132       40.758        2.139       53.483       41.548       24.162     2860.421     1726.197      583.824        0.483        0.259       66.964       17.509        0.068      338.807       11.711      866.166
12/31/2013  13:50:00       49.302       53.848        4.731       42.568       40.352       24.014     1811.994     1628.266      576.675        0.468        0.201       73.009       16.445        0.051      338.815       11.724      866.157
12/31/2013  13:51:00       43.975       40.288       15.173       32.840       31.948       26.166     1078.450     1020.702      684.681        0.329        0.139       59.640       17.666        0.088      338.809       11.713      866.130
12/31/2013  13:52:00       58.719       34.511       47.524       45.913       32.308       35.115     2107.965     1043.792     1233.039        0.564        0.219       68.109       23.608        0.120      338.773       11.652      866.113
12/31/2013  13:53:00       52.483       -5.192       17.711       41.255       20.988       27.803     1701.987      440.507      773.006        0.300        0.146       52.739       22.873        0.188      338.757       11.625      866.114
12/31/2013  13:54:00       33.571       19.656       50.820       39.555       34.765       34.419     1564.624     1208.609     1184.640        0.403        0.198       38.902       27.285        0.492      338.913       11.889      866.105
12/31/2013  13:55:00       85.195       20.955       28.356       51.637       37.758       35.566     2666.409     1425.648     1264.940        0.693        0.268       87.734       20.553        0.055      338.673       11.485      866.112
12/31/2013  13:56:00       80.942       27.664        0.247       32.116       29.986       25.695     1031.425      899.181      660.228        0.495        0.130       85.539       19.242        0.051      338.628       11.409      866.127
12/31/2013  13:57:00       54.920      -19.048       20.817       38.302       38.120       26.412     1467.080     1453.113      697.584        0.371        0.181       58.129       20.968        0.130      338.843       11.770      866.127
12/31/2013  13:58:00       44.275       40.487       38.755       34.723       35.657       32.553     1205.688     1271.438     1059.730        0.432        0.177       59.995       30.647        0.261      338.806       11.708      866.127
12/31/2013  13:59:00      111.408      130.624       94.126       83.523       33.828       42.792     6976.117     1144.365     1831.127        2.414        0.498      171.681       44.985        0.069      338.780       11.662      866.129
12/31/2013  14:00:00       39.124       73.409       62.970       76.295       42.423       33.035     5821.001     1799.706     1091.325        0.980        0.436       83.184       34.064        0.168      338.932       11.921      866.142
12/31/2013  14:01:00       42.651       67.374       15.272       31.825       31.207       35.310     1012.817      973.878     1246.767        0.491        0.162       79.740       19.924        0.062      338.912       11.885      866.149
12/31/2013  14:02:00        2.032       41.143      -24.370       21.108       21.466       12.601      445.554      460.806      158.795        0.168        0.053       41.193       14.311        0.121      338.737       11.591      866.158
12/31/2013  14:03:00       -5.370       32.553        6.205       19.455       18.419       18.807      378.499      339.263      353.718        0.110        0.054       32.993       14.271        0.187      339.054       12.125      866.164
12/31/2013  14:04:00       35.342       27.767       28.997       35.751       20.972       26.652     1278.110      439.811      710.343        0.264        0.121       44.946       20.525        0.209      339.052       12.122      866.174
12/31/2013  14:05:00       68.269       41.536       16.751       45.822       41.749       24.682     2099.659     1743.019      609.197        0.556        0.223       79.911       20.667        0.067      338.976       11.993      866.179
12/31/2013  14:06:00       37.878       22.577        6.113       40.032       28.433       18.777     1602.528      808.436      352.579        0.237        0.138       44.096        8.294        0.035      339.055       12.126      866.188
12/31/2013  14:07:00       44.950       43.520       47.183       56.858       40.190       36.238     3232.801     1615.274     1313.218        0.615        0.308       62.566       28.664        0.210      339.120       12.237      866.185
12/31/2013  14:08:00       36.967       46.338       70.908       48.577       55.131       43.314     2359.725     3039.387     1876.135        0.791        0.364       59.277       46.995        0.629      338.988       12.014      866.195
12/31/2013  14:09:00       66.490       55.917       69.033       48.000       41.645       31.135     2304.013     1734.270      969.385        0.866        0.250       86.877       26.933        0.096      338.925       11.907      866.191
12/31/2013  14:10:00      117.430       82.631       58.289       52.278       43.494       38.354     2732.972     1891.707     1471.040        1.505        0.305      143.589       34.480        0.058      338.863       11.805      866.194
12/31/2013  14:11:00       66.618       68.418       80.483       42.190       61.714       45.549     1779.970     3808.640     2074.669        1.163        0.383       95.494       46.106        0.233      338.957       11.962      866.197
12/31/2013  14:12:00       80.925       54.538       52.379       59.845       37.463       49.694     3581.463     1403.487     2469.497        0.986        0.373       97.587       38.746        0.158      338.958       11.964      866.186
12/31/2013  14:13:00       18.246        7.003       44.041       48.934       72.591       46.295     2394.488     5269.405     2143.209        0.606        0.490       19.544       55.298        8.005      339.217       12.400      866.175
12/31/2013  14:14:00       41.356       14.462       57.842       49.981       67.590       54.677     2498.123     4568.408     2989.603        0.766        0.503       43.812       59.877        1.868      339.078       12.165      866.174
12/31/2013  14:15:00       60.343       24.741       56.528       63.315       38.898       31.105     4008.800     1513.076      967.501        0.697        0.324       65.218       31.275        0.230      339.057       12.129      866.165
12/31/2013  14:16:00       13.523       31.058       41.733       33.507       52.566       33.049     1122.723     2763.160     1092.242        0.393        0.249       33.875       22.750        0.451      339.271       12.490      866.137
12/31/2013  14:17:00       -3.005       21.054       26.570       18.032       33.825       19.480      325.138     1144.134      379.458        0.150        0.092       21.268       15.837        0.555      339.507       12.888      866.133
12/31/2013  14:18:00       43.501      -62.352       13.365       33.547       55.901       31.404     1125.406     3124.931      986.217        0.560        0.262       76.027       28.207        0.138      339.206       12.379      866.126
12/31/2013  14:19:00        8.940       -3.129       41.686       26.436       51.952       31.892      698.886     2699.027     1017.117        0.312        0.221        9.472       25.874        7.462      339.401       12.708      866.122
12/31/2013  14:20:00       55.399      -42.622       11.736       30.836       24.407       29.026      950.863      595.685      842.527        0.371        0.119       69.898        9.302        0.018      339.079       12.165      866.116
12/31/2013  14:21:00        3.402        9.473       38.707       16.886       29.623       25.352      285.152      877.502      642.740        0.170        0.090       10.066       23.670        5.530      339.431       12.759      866.103
12/31/2013  14:22:00        2.940       12.859       39.831       15.354       46.853       25.621      235.752     2195.199      656.458        0.242        0.154       13.190       28.429        4.645      339.404       12.714      866.096
12/31/2013  14:23:00       16.613      -40.409        5.869       25.416       38.521       25.980      645.992     1483.854      674.935        0.237        0.140       43.691       15.511        0.126      339.369       12.655      866.093
12/31/2013  14:24:00       53.253      -18.923       10.957       54.915       57.444       36.409     3015.689     3299.762     1325.592        0.548        0.382       56.515       18.907        0.112      339.260       12.472      866.092
12/31/2013  14:25:00       23.361       10.052       36.996       45.717       44.407       30.575     2090.059     1971.980      934.802        0.351        0.250       25.432       31.589        1.543      339.381       12.675      866.090
12/31/2013  14:26:00       34.568       27.062       27.749       29.890       54.437       36.668      893.405     2963.429     1344.515        0.395        0.260       43.901       22.130        0.254      339.200       12.371      866.081
12/31/2013  14:27:00       11.316       -0.337       16.287       42.699       38.736       21.859     1823.241     1500.496      477.821        0.210        0.190       11.321       16.163        2.038      339.393       12.695      866.086
12/31/2013  14:28:00       49.445       -1.980       35.003       51.672       79.438       38.832     2670.042     6310.451     1507.947        0.708        0.524       49.485       43.751        0.782      339.317       12.568      866.077
12/31/2013  14:29:00       86.108      -69.329      -13.716       42.627       61.938       36.859     1817.038     3836.276     1358.593        0.971        0.351      110.549       28.837        0.068      339.188       12.352      866.067
12/31/2013  14:30:00       37.341       -5.272       40.112       33.456       29.687       25.107     1119.330      881.290      630.355        0.283        0.132       37.711       16.839        0.199      339.244       12.444      866.059
12/31/2013  14:31:00       62.305       27.844       28.716       33.767       52.865       29.507     1140.223     2794.750      870.670        0.514        0.240       68.243       32.330        0.224      339.195       12.362      866.045
12/31/2013  14:32:00       34.534      -31.827       16.127       45.700       61.872       39.687     2088.509     3828.197     1575.056        0.498        0.375       46.963       45.448        0.937      339.353       12.629      866.034
12/31/2013  14:33:00       53.018     -100.530       -8.578       33.847       48.094       37.009     1145.621     2313.028     1369.703        0.891        0.241      113.654       26.431        0.054      339.275       12.497      866.039
12/31/2013  14:34:00       59.581      -71.269      -18.938       38.492       44.401       26.418     1481.653     1971.452      697.934        0.657        0.208       92.893       21.362        0.053      339.191       12.356      866.039
12/31/2013  14:35:00       58.223      -77.716       -4.113       29.215       35.413       17.981      853.510     1254.051      323.312        0.594        0.122       97.107       12.071        0.015      339.253       12.457      866.046
12/31/2013  14:36:00       43.795      -24.231        4.627       29.793       31.994       22.901      887.622     1023.599      524.465        0.248        0.122       50.052       20.655        0.170      339.368       12.653      866.045
12/31/2013  14:37:00       22.692      -19.589        5.389       23.855       17.323       14.635      569.053      300.084      214.171        0.101        0.054       29.978        2.101        0.005      339.527       12.922      866.046
12/31/2013  14:38:00       -3.800       14.959       20.320       13.489       22.155       25.673      181.946      490.866      659.090        0.099        0.067       15.434       15.604        1.022      339.508       12.889      866.048
12/31/2013  14:39:00       -8.623       14.258       43.860       11.077       18.651       17.511      122.703      347.863      306.630        0.149        0.039       16.663       13.227        0.630      339.822       13.420      866.053
12/31/2013  14:40:00       30.005       22.713       26.487       42.563       40.765       31.988     1811.617     1661.818     1023.230        0.331        0.225       37.632       30.766        0.668      339.412       12.727      866.050
12/31/2013  14:41:00       56.886        1.717       14.749       42.321       20.538       24.091     1791.032      421.802      580.354        0.312        0.140       56.912       11.133        0.038      339.433       12.762      866.048
12/31/2013  14:42:00       -5.319      -42.032       15.462       31.741       61.342       33.954     1007.496     3762.841     1152.897        0.398        0.296       42.367       14.644        0.119      339.628       13.092      866.038
12/31/2013  14:43:00       22.896      -37.526       22.504       50.115       67.501       31.962     2511.525     4556.345     1021.585        0.526        0.404       43.959       29.891        0.462      339.668       13.159      866.028
12/31/2013  14:44:00       58.990      -81.307       -0.212       56.280       62.575       41.557     3167.494     3915.664     1726.959        0.945        0.441      100.452       40.309        0.161      339.486       12.853      866.022
12/31/2013  14:45:00       85.822      -84.395      -16.965       23.460       28.246       17.683      550.378      797.851      312.679        0.822        0.083      120.366        9.852        0.007      339.244       12.444      866.036
12/31/2013  14:46:00       56.476      -65.242       -5.740       45.905       60.036       32.901     2107.288     3604.268     1082.500        0.714        0.340       86.291       37.473        0.189      339.419       12.738      866.036
12/31/2013  14:47:00       44.994      -51.604        1.906       44.759       50.223       34.634     2003.372     2522.348     1199.545        0.521        0.286       68.464       38.312        0.313      339.464       12.816      866.044
12/31/2013  14:48:00        6.693       25.258       48.653       19.821       23.658       16.857      392.881      559.695      284.159        0.214        0.062       26.130        9.530        0.133      339.686       13.189      866.053
12/31/2013  14:49:00       12.619       27.226       34.294       18.677       20.419       10.452      348.828      416.938      109.247        0.148        0.044       30.008        7.910        0.069      339.582       13.015      866.056
12/31/2013  14:50:00       13.045       14.287       23.002       16.296       24.612       13.296      265.573      605.741      176.773        0.098        0.052       19.347       12.949        0.448      339.488       12.856      866.057
12/31/2013  14:51:00       -0.775      -36.705        1.417       24.216       22.197       15.932      586.410      492.728      253.815        0.134        0.067       36.714        8.015        0.048      339.776       13.341      866.060
12/31/2013  14:52:00       27.538      -51.488       -5.419       21.690       11.482       13.135      470.467      131.836      172.532        0.211        0.039       58.389        7.968        0.019      339.611       13.063      866.057
12/31/2013  14:53:00        4.844       -1.387       10.283       14.015        9.764       13.121      196.429       95.338      172.172        0.030        0.023        5.039        3.994        0.628      339.961       13.655      866.066
12/31/2013  14:54:00      -50.450       15.832       -3.747       24.780       18.546       12.779      614.027      343.972      163.314        0.197        0.056       52.875        6.242        0.014      339.769       13.329      866.069
12/31/2013  14:55:00      -18.754       28.221        5.574       30.822       18.707       17.682      949.969      349.941      312.643        0.140        0.081       33.884       10.743        0.101      339.755       13.305      866.075
12/31/2013  14:56:00      -57.813       29.963        7.400       30.520       20.868       19.354      931.467      435.466      374.564        0.302        0.087       65.116       17.947        0.076      339.696       13.207      866.080
12/31/2013  14:57:00      -12.287       31.153       -8.727       20.399       23.138       11.940      416.133      535.355      142.565        0.115        0.055       33.488        8.441        0.064      339.704       13.220      866.090
12/31/2013  14:58:00      -22.865       37.626       -2.232       34.342       21.816       17.323     1179.352      475.925      300.078        0.195        0.098       44.029       14.095        0.102      339.820       13.414      866.092
12/31/2013  14:59:00        8.618       24.700       -4.828       16.682       26.235       14.345      278.289      688.268      205.784        0.094        0.059       26.160        8.657        0.110      339.664       13.151      866.086
12/31/2013  15:00:00       -0.020       25.888       -5.124       21.362       21.731        8.487      456.325      472.233       72.027        0.085        0.050       25.888        5.521        0.045      339.623       13.083      866.094
12/31/2013  15:01:00      -41.491       -3.924      -14.203       13.670       24.828        7.448      186.876      616.407       55.480        0.140        0.043       41.676        4.783        0.013      339.675       13.172      866.104
12/31/2013  15:02:00       -3.556      -23.090       15.884       24.574       22.894       16.240      603.857      524.138      263.748        0.109        0.070       23.362       17.965        0.591      339.869       13.498      866.116
12/31/2013  15:03:00       26.172       -3.601        6.968       24.815       14.702       13.221      615.807      216.148      174.782        0.088        0.050       26.419        9.469        0.128      339.715       13.239      866.125
12/31/2013  15:04:00       71.649       17.371        1.728       39.203       24.578       23.479     1536.904      604.061      551.250        0.406        0.135       73.725       15.118        0.042      339.436       12.770      866.125
12/31/2013  15:05:00       72.269       51.716        0.225       51.481       23.572       18.478     2650.260      555.618      341.446        0.572        0.177       88.867        7.613        0.007      339.351       12.626      866.116
12/31/2013  15:06:00       71.904       47.569       -3.239       37.354       21.420       19.191     1395.306      458.830      368.292        0.483        0.111       86.215       10.617        0.015      339.400       12.708      866.116
12/31/2013  15:07:00       37.205       30.979        5.917       17.869       14.489       14.456      319.286      209.941      208.971        0.156        0.037       48.413        8.833        0.033      339.365       12.649      866.123
12/31/2013  15:08:00       25.354       32.978        1.574       18.287       25.334       17.844      334.403      641.798      318.411        0.151        0.065       41.597       16.616        0.160      339.499       12.872      866.122
12/31/2013  15:09:00       56.175       -2.786       14.427       29.772       24.289       27.609      886.386      589.932      762.259        0.280        0.112       56.244       21.464        0.146      339.456       12.801      866.124
12/31/2013  15:10:00       64.484       25.783        6.198       30.342       39.116       24.104      920.608     1530.034      580.979        0.395        0.152       69.448       16.260        0.055      339.403       12.713      866.125
12/31/2013  15:11:00       21.905       14.943        6.887       23.814       19.644       16.114      567.127      385.868      259.665        0.098        0.061       26.517       13.088        0.244      339.517       12.906      866.138
12/31/2013  15:12:00       36.185       41.899       28.202       38.167       34.093       28.896     1456.744     1162.355      834.953        0.366        0.173       55.362       29.694        0.288      339.434       12.765      866.143
12/31/2013  15:13:00       70.583       68.189       37.485       23.547       22.792       22.234      554.482      519.493      494.339        0.630        0.078       98.141       11.204        0.013      339.362       12.644      866.134
12/31/2013  15:14:00       14.629      -51.401       -5.128       19.089       27.718       21.022      364.408      768.286      441.917        0.223        0.079       53.442       13.018        0.059      339.458       12.805      866.124
12/31/2013  15:15:00      -46.529        1.907      -25.986       21.951       15.962       10.167      481.841      254.773      103.375        0.184        0.042       46.568        8.942        0.037      339.476       12.838      866.116
12/31/2013  15:16:00      -50.886       34.005       11.247       25.657       15.873       18.674      658.264      251.956      348.702        0.257        0.063       61.203       18.842        0.095      339.597       13.041      866.113
12/31/2013  15:17:00       13.222       11.112        6.501       24.437       18.356       14.694      597.175      336.926      215.920        0.075        0.058       17.272       15.949        0.853      339.616       13.071      866.115
12/31/2013  15:18:00       23.148       22.909       16.253       24.738       19.048       13.403      611.958      362.813      179.641        0.124        0.058       32.567       12.470        0.147      339.549       12.958      866.116
12/31/2013  15:19:00       21.703       31.593       -4.936       14.947        6.903        7.986      223.405       47.647       63.782        0.091        0.017       38.330        5.387        0.020      339.480       12.841      866.122
12/31/2013  15:20:00       23.684       -1.451       -4.908       28.187       21.321       10.347      794.503      454.595      107.062        0.097        0.068       23.728       12.153        0.262      339.605       13.053      866.134
12/31/2013  15:21:00       33.745      -24.479        2.569       32.863       21.647       23.452     1080.003      468.571      549.997        0.192        0.105       41.688       22.921        0.302      339.663       13.150      866.143
12/31/2013  15:22:00       -8.095      -55.529        3.151       23.355       23.667       20.396      545.465      560.126      416.004        0.234        0.076       56.116       17.217        0.094      339.782       13.352      866.152
12/31/2013  15:23:00       -9.044       -3.489       11.649       25.368       13.234       14.159      643.552      175.147      200.469        0.062        0.051        9.694       14.054        2.102      339.763       13.319      866.158
12/31/2013  15:24:00      -13.542       -9.065       -3.692       13.705       21.483       14.626      187.817      461.536      213.922        0.057        0.043       16.296       10.478        0.413      339.654       13.135      866.153
12/31/2013  15:25:00      -27.123        3.046       -2.157       17.820       17.680       13.869      317.552      312.597      192.344        0.079        0.041       27.293        9.540        0.122      339.773       13.338      866.162
12/31/2013  15:26:00      -14.040      -43.129        1.702       24.472       26.629       17.741      598.877      709.101      314.728        0.184        0.081       45.357       15.582        0.118      339.721       13.249      866.171
12/31/2013  15:27:00      -17.881      -25.133        0.623       20.102       15.316       11.938      404.089      234.586      142.525        0.087        0.039       30.845       12.246        0.158      339.722       13.250      866.187
12/31/2013  15:28:00      -23.092      -20.539       -2.326       16.979       13.135        8.129      288.283      172.516       66.081        0.074        0.026       30.904        6.941        0.050      339.702       13.218      866.197
12/31/2013  15:29:00      -30.846      -48.662       -6.750       29.997       23.905       17.371      899.807      571.455      301.741        0.257        0.089       57.615       11.833        0.042      339.663       13.151      866.211
12/31/2013  15:30:00      -15.324      -49.728      -24.891       37.842       32.233       16.932     1432.053     1038.936      286.704        0.304        0.138       52.036       17.646        0.115      339.693       13.201      866.218
12/31/2013  15:31:00       -2.824      -28.377       -0.947       24.131       18.897       15.696      582.324      357.080      246.355        0.100        0.059       28.518        8.028        0.079      339.823       13.421      866.220
12/31/2013  15:32:00       20.969      -72.959       -3.733       23.860       24.398       17.992      569.317      595.254      323.721        0.363        0.074       75.912       15.693        0.043      339.599       13.043      866.218
12/31/2013  15:33:00       11.866        7.783        2.077       15.254       21.086       12.139      232.675      444.621      147.355        0.052        0.041       14.191       11.229        0.626      339.581       13.013      866.221
12/31/2013  15:34:00       -1.371       14.308       19.105        9.881       11.547       13.685       97.625      133.342      187.274        0.049        0.021       14.374        9.231        0.412      339.705       13.222      866.219
12/31/2013  15:35:00        8.060        2.924       19.161       16.194       23.376       16.735      262.261      546.420      280.053        0.076        0.054        8.574       15.478        3.259      339.714       13.237      866.226
12/31/2013  15:36:00        9.387      -29.702       -6.968       14.734       34.489       13.216      217.077     1189.523      174.660        0.130        0.079       31.150       18.904        0.368      339.557       12.971      866.215
12/31/2013  15:37:00       17.679       15.660       26.527       16.524       18.253       19.115      273.055      333.179      365.376        0.112        0.049       23.617       16.580        0.493      339.575       13.003      866.209
12/31/2013  15:38:00        5.948       29.042       30.536       15.557       15.541       17.256      242.035      241.523      297.775        0.130        0.039       29.645        8.590        0.084      339.620       13.078      866.206
12/31/2013  15:39:00        8.264        3.893       11.328       15.557       13.533       16.088      242.032      183.130      258.831        0.045        0.034        9.136       13.143        2.070      339.717       13.243      866.215
12/31/2013  15:40:00       -2.327       11.595       -0.045       14.804       10.926       13.487      219.162      119.372      181.894        0.033        0.026       11.826       10.490        0.787      339.784       13.354      866.225
12/31/2013  15:41:00        5.948       11.209       -0.392       15.358        8.779        7.842      235.864       77.067       61.496        0.027        0.019       12.689        5.391        0.181      339.748       13.294      866.234
12/31/2013  15:42:00        1.057       17.045        2.860        7.820        9.239        5.834       61.154       85.361       34.036        0.024        0.009       17.078        3.433        0.040      339.696       13.208      866.241
12/31/2013  15:43:00        9.608       20.552        2.834       10.005        6.566        9.399      100.094       43.115       88.337        0.038        0.012       22.687        5.425        0.057      339.630       13.096      866.248
12/31/2013  15:44:00       19.340       10.065        9.081       10.677        5.443        5.883      113.992       29.625       34.615        0.037        0.009       21.803        3.611        0.027      339.616       13.073      866.254
12/31/2013  15:45:00        4.005       11.590        2.964        6.796        8.252        6.285       46.186       68.102       39.506        0.016        0.008       12.263        5.367        0.192      339.720       13.247      866.254
12/31/2013  15:46:00        4.946       14.077        3.561        7.701        9.185        8.693       59.313       84.361       75.574        0.023        0.011       14.921        3.799        0.065      339.710       13.231      866.249
12/31/2013  15:47:00       11.859       18.881        1.208       12.143        7.418        6.715      147.445       55.031       45.086        0.037        0.012       22.296        4.034        0.033      339.643       13.117      866.243
12/31/2013  15:48:00       36.496       21.982        6.644       10.100        8.441       12.501      102.013       71.253      156.268        0.109        0.016       42.605        8.343        0.038      339.532       12.927      866.244
12/31/2013  15:49:00       30.325       25.133       29.189       24.377       18.061       16.480      594.249      326.190      271.588        0.180        0.060       39.386       15.835        0.162      339.527       12.922      866.254
12/31/2013  15:50:00       20.231       28.712       15.129       19.583       14.944       17.106      383.482      223.327      292.615        0.118        0.045       35.123       12.468        0.126      339.564       12.983      866.272
12/31/2013  15:51:00        3.514        3.608       15.476       10.940       12.449       12.585      119.673      154.978      158.378        0.035        0.022        5.036        9.525        3.577      339.752       13.301      866.291
12/31/2013  15:52:00       -2.813      -20.605       17.549       19.404       15.350       13.137      376.516      235.609      172.591        0.076        0.039       20.796        6.351        0.093      339.770       13.331      866.306
12/31/2013  15:53:00       -6.744      -42.798       -8.970       21.705       16.400       16.744      471.126      268.973      280.349        0.149        0.051       43.326       16.603        0.147      339.667       13.159      866.312
12/31/2013  15:54:00       21.728      -76.335      -20.982       25.957       22.715       14.710      673.752      515.950      216.396        0.407        0.070       79.367        4.979        0.004      339.590       13.028      866.317
12/31/2013  15:55:00       24.582      -55.675      -14.047       10.857       12.109        8.388      117.865      146.626       70.360        0.212        0.017       60.861        6.446        0.011      339.558       12.972      866.319
12/31/2013  15:56:00        8.578      -29.806        0.552       14.617       23.249       11.303      213.646      540.511      127.755        0.092        0.044       31.016       10.959        0.125      339.692       13.201      866.323
12/31/2013  15:57:00      -59.516        3.996       -2.761       25.850       11.958       14.342      668.230      142.999      205.698        0.229        0.051       59.650        9.558        0.026      339.700       13.211      866.330
12/31/2013  15:58:00      -28.665      -18.749        4.095       14.445       13.843       10.893      208.664      191.627      118.661        0.085        0.026       34.252       10.166        0.088      339.748       13.295      866.340
12/31/2013  15:59:00        5.037        0.033        7.320       17.220       15.945        9.881      296.540      254.236       97.627        0.036        0.032        5.037        4.850        0.927      339.728       13.261      866.355
12/31/2013  16:00:00       -6.278        1.862       12.735       17.382       12.022       14.661      302.130      144.529      214.939        0.043        0.033        6.548       14.055        4.607      339.912       13.571      866.369
12/31/2013  16:01:00      -17.543       12.303        1.434       23.751       13.963       10.651      564.101      194.966      113.436        0.067        0.044       21.427       11.928        0.310      339.713       13.236      866.377
12/31/2013  16:02:00      -66.611       20.664        3.171       25.737       19.484       11.385      662.371      379.611      129.627        0.302        0.059       69.743        9.667        0.019      339.700       13.213      866.385
12/31/2013  16:03:00      -36.001       -6.268       -2.277       23.605       25.788       12.130      557.191      665.025      147.134        0.135        0.068       36.543        3.921        0.012      339.642       13.116      866.385
12/31/2013  16:04:00      -26.670       20.996        8.465       15.942       12.568       13.909      254.144      157.947      193.467        0.091        0.030       33.943        8.211        0.059      339.697       13.207      866.388
12/31/2013  16:05:00       -1.162       22.207       -2.531        7.730        8.852       10.026       59.752       78.353      100.528        0.037        0.012       22.238        5.604        0.064      339.638       13.111      866.390
12/31/2013  16:06:00       -0.058        9.924       -4.304       11.502        7.884       11.738      132.306       62.165      137.781        0.022        0.017        9.924        8.621        0.755      339.647       13.123      866.392
12/31/2013  16:07:00       17.835       11.268        6.642        7.015        7.600        9.569       49.206       57.758       91.557        0.034        0.010       21.096        7.086        0.113      339.521       12.909      866.395
12/31/2013  16:08:00       32.369       25.311        4.769        9.265        6.882        7.443       85.840       47.366       55.398        0.095        0.009       41.090        3.512        0.007      339.499       12.874      866.400
12/31/2013  16:09:00       21.244       11.362        6.071       14.629        8.710        6.321      214.015       75.868       39.956        0.047        0.016       24.091        5.236        0.047      339.564       12.982      866.404
12/31/2013  16:10:00       18.107       10.058        0.315       10.689        7.883        5.646      114.262       62.146       31.876        0.032        0.010       20.713        3.926        0.036      339.492       12.863      866.411
12/31/2013  16:11:00       18.759        7.949        6.443        7.605        4.905        4.147       57.842       24.056       17.196        0.028        0.005       20.373        1.284        0.004      339.512       12.895      866.421
12/31/2013  16:12:00       10.706        7.293        4.823        4.490        3.798        2.930       20.159       14.423        8.584        0.012        0.002       12.954        3.012        0.054      339.533       12.928      866.439
12/31/2013  16:13:00       13.268        5.859        0.734        7.160        3.643        3.462       51.265       13.269       11.989        0.014        0.004       14.504        1.821        0.016      339.501       12.872      866.453
12/31/2013  16:14:00       25.234        8.083        8.099       11.344        6.817        8.961      128.676       46.471       80.303        0.051        0.013       26.497        6.479        0.060      339.457       12.804      866.467
12/31/2013  16:15:00        6.379       29.110       26.285       15.409       13.634       16.260      237.432      185.880      264.400        0.113        0.034       29.801       14.839        0.248      339.371       12.657      866.475
12/31/2013  16:16:00        7.924       41.610       44.541       16.906       17.907       13.681      285.802      320.652      187.166        0.229        0.040       42.358       12.024        0.081      339.383       12.679      866.484
12/31/2013  16:17:00       30.002       35.443       27.504       28.580       15.971       20.614      816.799      255.082      424.940        0.220        0.075       46.436       21.508        0.215      339.283       12.509      866.480
12/31/2013  16:18:00       48.986       12.455       10.184       26.114       18.739       17.322      681.957      351.145      300.040        0.200        0.067       50.545       12.695        0.063      339.223       12.409      866.482
12/31/2013  16:19:00       48.410       13.040       28.306       20.226       21.536       22.146      409.081      463.779      490.432        0.234        0.068       50.136       15.028        0.090      339.255       12.463      866.481
12/31/2013  16:20:00       66.802       16.077       22.222       27.106       19.855       21.246      734.741      394.241      451.392        0.340        0.079       68.710       15.080        0.048      339.297       12.534      866.481
12/31/2013  16:21:00       56.898       27.676       13.577       26.186       22.568       15.498      685.694      509.327      240.189        0.281        0.072       63.272       11.534        0.033      339.233       12.426      866.483
12/31/2013  16:22:00       42.640        1.031       16.440       18.548       17.892       15.153      344.012      320.121      229.600        0.149        0.045       42.653       11.782        0.076      339.163       12.307      866.486
12/31/2013  16:23:00       72.498       41.686       21.832       33.391       24.753       16.423     1114.981      612.721      269.708        0.473        0.100       83.628        9.322        0.012      339.186       12.348      866.488
12/31/2013  16:24:00       43.204       35.456       26.690       34.580       26.742       18.590     1195.758      715.126      345.588        0.305        0.113       55.890       14.472        0.067      339.057       12.131      866.496
12/31/2013  16:25:00       73.255       21.498       15.034       48.382       34.470       28.657     2340.786     1188.187      821.225        0.520        0.218       76.344       12.023        0.025      338.987       12.013      866.502
12/31/2013  16:26:00       88.771       29.223       16.573       41.266       26.988       28.015     1702.859      728.342      784.834        0.611        0.161       93.458       17.064        0.033      339.000       12.033      866.517
12/31/2013  16:27:00       64.088       23.369       15.735       24.808       21.353       20.070      615.432      455.934      402.804        0.319        0.074       68.216       16.855        0.061      338.943       11.937      866.529
12/31/2013  16:28:00       64.757       29.512       19.425       21.721       14.771       17.964      471.797      218.176      322.689        0.323        0.051       71.165       15.832        0.049      338.945       11.942      866.526
12/31/2013  16:29:00       50.819       17.050       26.929       26.853       19.682       17.431      721.062      387.393      303.834        0.251        0.071       53.603       15.225        0.081      338.904       11.872      866.532
12/31/2013  16:30:00       74.084       35.812       14.714       22.768       18.106       18.033      518.369      327.835      325.172        0.408        0.059       82.286       10.929        0.018      338.889       11.848      866.546
12/31/2013  16:31:00       79.052       33.729       23.192       26.534       23.627       18.240      704.060      558.234      332.688        0.476        0.080       85.947       12.276        0.020      338.820       11.731      866.559
12/31/2013  16:32:00       73.739       26.705       10.220       32.597       19.782       16.843     1062.586      391.328      283.678        0.400        0.087       78.426       14.003        0.032      338.741       11.600      866.582
12/31/2013  16:33:00       89.022       28.856       18.518       24.037       24.400       21.771      577.759      595.342      473.967        0.537        0.082       93.582       15.913        0.029      338.748       11.610      866.589
12/31/2013  16:34:00       90.040       37.007       11.722       21.574       14.505       14.532      465.427      210.408      211.173        0.525        0.044       97.349        6.570        0.005      338.727       11.575      866.594
12/31/2013  16:35:00       60.289       20.169        8.276       22.311       17.403       14.801      497.788      302.856      219.076        0.256        0.051       63.573        8.619        0.018      338.571       11.314      866.604
12/31/2013  16:36:00       77.644       48.003       21.616       27.114       12.944       13.759      735.173      167.557      189.312        0.495        0.055       91.285        9.745        0.011      338.633       11.416      866.620
12/31/2013  16:37:00       82.896       57.759       21.707       27.913       20.114       17.391      779.150      404.585      302.457        0.608        0.074      101.034        6.022        0.004      338.695       11.520      866.635
12/31/2013  16:38:00       63.173       50.327       21.192       29.169       24.103       22.733      850.802      580.964      516.811        0.446        0.097       80.769       19.162        0.056      338.646       11.438      866.640
12/31/2013  16:39:00       63.333       47.776       20.134       19.465       18.533       13.374      378.876      343.470      178.874        0.380        0.045       79.333        8.872        0.013      338.653       11.451      866.654
12/31/2013  16:40:00       39.819       38.854        0.434       34.933       25.181       21.267     1220.349      634.076      452.270        0.270        0.115       55.635       12.823        0.053      338.615       11.388      866.653
12/31/2013  16:41:00       43.630       53.196       -4.005       26.038       21.948       21.071      677.987      481.730      444.005        0.318        0.080       68.800       15.526        0.051      338.639       11.427      866.657
12/31/2013  16:42:00       48.696       37.356        0.143       17.877       18.514       17.599      319.575      342.774      309.720        0.237        0.049       61.375       12.652        0.042      338.661       11.465      866.640
12/31/2013  16:43:00       46.296       26.933        9.269       20.457       14.774       11.645      418.502      218.281      135.617        0.186        0.039       53.560        8.626        0.026      338.675       11.488      866.629
12/31/2013  16:44:00       18.494        7.184        2.134       15.975        8.373        8.204      255.213       70.104       67.299        0.040        0.020       19.841        5.987        0.091      338.599       11.358      866.621
12/31/2013  16:45:00       37.547       14.916        3.521       11.096       12.755        7.343      123.122      162.686       53.924        0.099        0.017       40.401        4.331        0.011      338.634       11.418      866.633
12/31/2013  16:46:00       16.271        0.696        3.814       13.413        9.713        5.345      179.900       94.344       28.566        0.029        0.015       16.286        3.298        0.041      338.587       11.339      866.644
12/31/2013  16:47:00       -3.836       -2.865        4.637        7.504        9.333        7.033       56.311       87.110       49.465        0.012        0.010        4.788        4.146        0.750      338.468       11.139      866.655
12/31/2013  16:48:00      -30.103        1.481        0.808       12.330       13.620        7.469      152.018      185.493       55.784        0.065        0.020       30.140        8.884        0.087      338.063       10.460      866.649
12/31/2013  16:49:00      -16.807       -8.344       -3.546       10.036        9.411        6.050      100.724       88.573       36.597        0.030        0.011       18.764        3.949        0.044      338.243       10.762      866.646
12/31/2013  16:50:00      -36.847      -10.665       -8.348       15.034       14.538        7.836      226.026      211.345       61.396        0.102        0.025       38.359        6.918        0.033      338.099       10.520      866.638
12/31/2013  16:51:00      -52.259      -28.115      -10.939        6.863        5.924        5.968       47.098       35.091       35.618        0.188        0.006       59.342        3.038        0.003      337.835       10.078      866.628
12/31/2013  16:52:00      -52.953      -30.147      -12.451        4.851        4.383        5.953       23.531       19.213       35.435        0.197        0.004       60.933        2.037        0.001      338.006       10.364      866.634
12/31/2013  16:53:00      -54.380      -37.033      -12.332        5.160        6.899        5.325       26.625       47.599       28.355        0.229        0.005       65.792        3.190        0.002      337.992       10.340      866.634
12/31/2013  16:54:00      -54.014      -29.041       -9.437        7.999       10.177        6.727       63.985      103.574       45.258        0.203        0.011       61.326        5.194        0.007      338.353       10.947      866.644
12/31/2013  16:55:00      -42.294      -12.383       -5.847        7.188        9.375        5.822       51.665       87.899       33.890        0.107        0.009       44.070        2.724        0.004      338.071       10.473      866.650
12/31/2013  16:56:00      -51.299      -17.816      -10.793        7.163        9.736        7.252       51.308       94.796       52.587        0.163        0.010       54.304        4.770        0.008      337.806       10.028      866.658
12/31/2013  16:57:00      -61.320       -9.701       -9.670       12.002        8.838        5.425      144.051       78.117       29.435        0.210        0.013       62.083        4.257        0.005      338.051       10.440      866.660
12/31/2013  16:58:00      -57.617       -4.644      -14.852        6.335        4.797        4.278       40.127       23.012       18.303        0.182        0.004       57.804        1.588        0.001      337.830       10.067      866.671
12/31/2013  16:59:00      -71.440      -20.583      -10.529        9.180        8.329        6.497       84.273       69.378       42.210        0.292        0.010       74.346        3.057        0.002      337.324        9.221      866.679
12/31/2013  17:00:00      -70.753      -29.085      -12.625       11.496        9.070       10.245      132.155       82.264      104.970        0.317        0.016       76.498        8.141        0.011      337.138        8.910      866.681
12/31/2013  17:01:00      -72.101      -18.046      -17.203        7.852        8.002        7.570       61.657       64.035       57.309        0.300        0.009       74.325        4.961        0.004      337.033        8.733      866.694
12/31/2013  17:02:00      -66.435      -12.185      -11.202       14.006       12.624        9.827      196.158      159.362       96.570        0.257        0.023       67.543        5.601        0.007      336.916        8.540      866.702
12/31/2013  17:03:00      -93.766      -10.334      -17.767       14.243       13.762        9.394      202.864      189.396       88.245        0.485        0.024       94.333        7.708        0.007      336.966        8.622      866.707
12/31/2013  17:04:00      -93.554      -22.836      -17.333       11.040       15.383       10.722      121.875      236.625      114.952        0.502        0.024       96.301       10.151        0.011      336.793        8.333      866.712
12/31/2013  17:05:00      -85.316      -12.775      -13.623       14.450       16.427       11.482      208.805      269.861      131.829        0.412        0.031       86.267        7.789        0.008      336.774        8.302      866.708
12/31/2013  17:06:00      -90.123        7.262      -19.695       28.878       31.228       19.463      833.949      975.173      378.816        0.537        0.109       90.415       13.505        0.022      336.834        8.401      866.692
12/31/2013  17:07:00      -80.364      -17.125      -17.686       38.178       30.281       23.168     1457.581      916.962      536.759        0.499        0.146       82.168       17.435        0.045      336.845        8.419      866.691
12/31/2013  17:08:00      -89.348      -23.884      -10.952       37.900       34.708       21.511     1436.443     1204.644      462.702        0.589        0.155       92.485       15.236        0.027      336.639        8.078      866.699
12/31/2013  17:09:00     -115.814      -26.589      -11.068       32.851       38.086       20.509     1079.195     1450.581      420.613        0.860        0.148      118.827       15.198        0.016      336.500        7.843      866.710
12/31/2013  17:10:00     -108.617      -44.017      -10.641       30.398       31.248       21.597      924.010      976.446      466.428        0.811        0.118      117.197       13.883        0.014      336.399        7.675      866.731
12/31/2013  17:11:00     -114.220      -24.685       -3.306       31.521       39.028       22.640      993.542     1523.173      512.559        0.835        0.151      116.857       18.836        0.026      336.388        7.655      866.749
12/31/2013  17:12:00     -120.211      -32.274       -5.821       44.455       36.767       25.615     1976.287     1351.809      656.145        0.975        0.199      124.468       17.478        0.020      336.395        7.668      866.765
12/31/2013  17:13:00      -87.594      -11.996       -3.976       38.027       40.823       20.583     1446.043     1666.534      423.663        0.568        0.177       88.411       15.058        0.029      336.411        7.695      866.783
12/31/2013  17:14:00      -84.363       -8.586      -10.728       29.059       30.636       21.226      844.426      938.585      450.560        0.477        0.112       84.799       18.686        0.049      336.297        7.503      866.799
12/31/2013  17:15:00      -74.893      -10.731      -19.639       34.723       19.569       16.026     1205.661      382.949      256.822        0.398        0.092       75.658       12.728        0.028      336.308        7.522      866.822
12/31/2013  17:16:00      -78.565      -20.313      -24.139       15.748       17.491       11.402      248.004      305.932      130.008        0.393        0.034       81.148        6.229        0.006      336.353        7.597      866.848
12/31/2013  17:17:00      -91.879       -1.300      -17.873       15.625       14.540        9.351      244.144      211.424       87.441        0.465        0.027       91.888        8.238        0.008      336.272        7.462      866.864
12/31/2013  17:18:00      -88.420      -13.030      -19.023       12.871       15.023        8.838      165.654      225.682       78.115        0.441        0.023       89.375        5.380        0.004      336.474        7.800      866.873
12/31/2013  17:19:00      -87.427      -14.747      -17.066       19.409       16.242       10.988      376.711      263.798      120.741        0.446        0.038       88.662       10.517        0.014      336.574        7.967      866.877
12/31/2013  17:20:00      -73.708      -33.782      -21.300       21.330       18.550       13.004      454.975      344.114      169.105        0.400        0.048       81.081        8.914        0.012      336.561        7.945      866.881
12/31/2013  17:21:00      -91.420      -28.982      -21.044       18.433       16.668       10.639      339.789      277.825      113.192        0.519        0.037       95.904        4.950        0.003      336.421        7.711      866.884
12/31/2013  17:22:00      -87.372      -16.608      -17.772       21.206       20.559       17.378      449.687      422.678      301.998        0.470        0.059       88.936       14.600        0.027      336.233        7.396      866.885
12/31/2013  17:23:00      -80.273      -22.382      -15.954       17.963       16.834       11.276      322.678      283.389      127.144        0.397        0.037       83.334        8.051        0.009      336.240        7.409      866.892
12/31/2013  17:24:00      -95.048      -24.708      -16.838       30.163       17.684       15.118      909.814      312.738      228.547        0.569        0.073       98.207       12.655        0.017      336.213        7.364      866.893
12/31/2013  17:25:00      -96.560      -35.963      -17.450       28.585       25.289       15.668      817.102      639.548      245.491        0.631        0.085      103.039       12.877        0.016      336.183        7.313      866.899
12/31/2013  17:26:00      -97.777      -24.330      -12.353       18.150       25.106       16.081      329.417      630.310      258.605        0.576        0.061      100.759       10.277        0.010      336.200        7.341      866.897
12/31/2013  17:27:00     -100.602      -28.677      -19.355       17.161       17.934       10.878      294.483      321.612      118.332        0.603        0.037      104.610        6.906        0.004      336.198        7.339      866.901
12/31/2013  17:28:00      -92.431      -34.862      -18.029       11.458       19.085       12.826      131.276      364.254      164.512        0.537        0.033       98.787        9.853        0.010      336.238        7.405      866.893
12/31/2013  17:29:00      -88.936      -32.180      -17.540       25.611       17.646       16.065      655.916      311.377      258.070        0.524        0.061       94.579       11.561        0.015      336.181        7.309      866.872
12/31/2013  17:30:00     -112.675      -31.267      -18.653       26.026       22.458       14.688      677.358      504.376      215.727        0.771        0.070      116.933       13.143        0.013      336.151        7.260      866.859
12/31/2013  17:31:00     -118.142      -23.911      -17.537       28.172       24.754       13.614      793.666      612.777      185.338        0.821        0.080      120.537       12.900        0.011      336.142        7.244      866.850
12/31/2013  17:32:00     -108.518      -33.974      -16.702       25.294       18.396       14.579      639.762      338.398      212.541        0.720        0.060      113.712       11.083        0.009      336.085        7.149      866.851
12/31/2013  17:33:00      -92.678      -55.822      -17.385       15.045       15.602       12.188      226.342      243.427      148.557        0.631        0.031      108.191        6.755        0.004      336.143        7.246      866.842
12/31/2013  17:34:00     -116.098      -36.701      -20.483       17.157       23.726       15.894      294.376      562.925      252.615        0.818        0.055      121.761       10.921        0.008      336.158        7.272      866.839
12/31/2013  17:35:00     -153.575      -27.876      -29.898       11.060       15.302       11.101      122.315      234.163      123.235        1.287        0.024      156.084        8.625        0.003      336.157        7.269      866.840
12/31/2013  17:36:00     -152.970      -28.160      -23.875       20.147       12.117       17.243      405.892      146.818      297.329        1.281        0.043      155.540       12.620        0.007      336.130        7.226      866.847
12/31/2013  17:37:00     -146.709      -28.251      -25.250       14.939       12.835       10.931      223.183      164.738      119.496        1.173        0.025      149.405        5.498        0.001      336.157        7.270      866.834
12/31/2013  17:38:00     -150.969      -36.187      -24.292       18.252       14.060       10.055      333.137      197.691      101.107        1.266        0.032      155.246        7.641        0.002      336.127        7.219      866.852
12/31/2013  17:39:00     -135.407      -27.059      -17.471       20.616       13.839       11.646      425.012      191.513      135.629        1.006        0.038      138.084       10.127        0.005      336.092        7.161      866.865
12/31/2013  17:40:00     -137.758      -40.131      -18.553       18.961       14.457       12.019      359.522      209.012      144.455        1.082        0.036      143.484        3.668        0.001      336.118        7.205      866.883
12/31/2013  17:41:00     -130.083      -25.133      -13.812       24.693       17.612       13.568      609.768      310.183      184.102        0.942        0.055      132.489       10.422        0.006      336.121        7.210      866.892
12/31/2013  17:42:00     -124.799      -35.562      -15.387       29.804       23.694       17.400      888.273      561.403      302.775        0.941        0.088      129.767       17.301        0.018      335.961        6.944      866.903
12/31/2013  17:43:00     -135.087      -53.461      -17.003       16.978       15.303       11.934      288.245      234.174      142.419        1.103        0.033      145.281        8.941        0.004      335.933        6.896      866.910
12/31/2013  17:44:00     -131.181      -59.039      -15.525       21.528       20.541       15.010      463.444      421.944      225.299        1.102        0.056      143.855       12.998        0.008      335.795        6.667      866.913
12/31/2013  17:45:00     -116.557      -58.810       -6.729       11.482       11.951        9.517      131.846      142.820       90.577        0.873        0.018      130.553        6.691        0.003      335.777        6.638      866.915
12/31/2013  17:46:00     -119.932      -48.529       -1.385       16.548       13.812       11.713      273.850      190.769      137.202        0.867        0.030      129.378        6.279        0.002      335.760        6.609      866.912
12/31/2013  17:47:00     -108.751      -48.397       -8.035       25.007       22.989       14.404      625.362      528.506      207.466        0.780        0.068      119.034       11.689        0.010      335.760        6.608      866.913
12/31/2013  17:48:00     -122.315      -52.713       -3.633       25.374       22.268       15.424      643.840      495.858      237.910        0.957        0.069      133.190       12.750        0.009      335.750        6.591      866.919
12/31/2013  17:49:00     -133.921      -60.269       -2.802       22.969       24.525       14.734      527.560      601.458      217.094        1.146        0.067      146.858       10.366        0.005      335.788        6.653      866.914
12/31/2013  17:50:00     -141.283      -57.961      -14.266       21.985       23.373       15.290      483.356      546.277      233.798        1.239        0.063      152.710        9.125        0.004      335.800        6.673      866.915
12/31/2013  17:51:00     -145.795      -67.103       -5.481       18.018       19.190       13.550      324.648      368.248      183.598        1.333        0.044      160.496        9.982        0.004      335.769        6.624      866.914
12/31/2013  17:52:00     -131.450      -61.009       -2.745       37.528       24.793       22.606     1408.363      614.685      511.046        1.177        0.127      144.918       21.184        0.021      335.722        6.545      866.918
12/31/2013  17:53:00     -142.068      -68.244       -5.253       34.650       24.841       16.252     1200.599      617.080      264.133        1.347        0.104      157.609       16.624        0.011      335.703        6.514      866.918
12/31/2013  17:54:00     -150.193      -61.013       -3.669       27.932       27.488       22.160      780.176      755.573      491.050        1.416        0.101      162.113       18.493        0.013      335.708        6.523      866.920
12/31/2013  17:55:00     -143.152      -41.965       -3.840       27.751       28.268       20.961      770.116      799.068      439.371        1.214        0.100      149.176       17.525        0.014      335.685        6.484      866.918
12/31/2013  17:56:00     -124.039      -35.774       -4.135       36.947       26.284       21.509     1365.110      690.863      462.627        0.960        0.126      129.095       19.652        0.023      335.533        6.231      866.919
12/31/2013  17:57:00     -145.314      -56.992       -9.136       36.638       26.170       18.758     1342.378      684.875      351.873        1.341        0.119      156.090       14.042        0.008      335.502        6.179      866.939
12/31/2013  17:58:00     -164.774      -65.893      -12.528       23.962       22.541       17.878      574.167      508.075      319.634        1.653        0.070      177.461       10.539        0.004      335.510        6.192      866.941
12/31/2013  17:59:00     -134.916      -68.563      -10.639       24.056       29.293       19.421      578.711      858.051      377.184        1.241        0.091      151.338       14.265        0.009      335.487        6.153      866.955
12/31/2013  18:00:00     -142.201      -55.409      -14.241       18.531       33.855       14.175      343.407     1146.134      200.945        1.259        0.085      152.615        7.095        0.002      335.417        6.035      866.956
12/31/2013  18:01:00     -132.319      -23.998      -13.238       30.582       23.677       22.174      935.256      560.595      491.690        1.012        0.099      134.478       18.819        0.020      335.387        5.986      866.953
12/31/2013  18:02:00     -134.703      -22.274      -16.929       26.200       17.036       13.817      686.426      290.208      190.908        1.005        0.058      136.532       13.134        0.009      335.388        5.989      866.948
12/31/2013  18:03:00     -148.491       -9.152      -19.856       25.606       22.801       21.249      655.676      519.883      451.533        1.208        0.081      148.772       16.815        0.013      335.317        5.870      866.935
12/31/2013  18:04:00     -164.513       -6.560      -21.523       15.904       19.089       15.719      252.947      364.389      247.093        1.422        0.043      164.644        8.535        0.003      335.247        5.752      866.931
12/31/2013  18:05:00     -139.540      -28.898      -25.517       17.727       18.464       12.171      314.249      340.908      148.123        1.088        0.040      142.501       11.568        0.007      335.269        5.789      866.935
12/31/2013  18:06:00     -119.099      -36.400      -13.274       25.321       23.158       22.059      641.155      536.294      486.601        0.867        0.083      124.537       16.426        0.017      335.272        5.794      866.938
12/31/2013  18:07:00     -150.365      -46.271      -18.509       25.867       24.214       16.514      669.116      586.303      272.704        1.331        0.076      157.323       10.518        0.004      335.221        5.710      866.941
12/31/2013  18:08:00     -153.483      -30.422      -14.911       31.035       24.779       21.657      963.163      613.986      469.014        1.338        0.102      156.469       18.795        0.014      335.140        5.576      866.951
12/31/2013  18:09:00     -124.228      -40.891      -11.947       40.532       33.712       20.591     1642.811     1136.496      423.990        1.022        0.160      130.784       18.803        0.021      335.234        5.732      866.959
12/31/2013  18:10:00     -120.413      -22.511       -5.125       43.842       34.941       21.925     1922.095     1220.866      480.713        0.933        0.181      122.499       19.208        0.025      335.271        5.793      866.958
12/31/2013  18:11:00      -86.461        5.203       -3.501       48.831       49.591       31.779     2384.448     2459.250     1009.889        0.668        0.293       86.618       28.920        0.111      335.303        5.845      866.955
12/31/2013  18:12:00      -84.245        0.217      -11.309       60.531       34.996       22.981     3664.003     1224.751      528.105        0.632        0.271       84.246       27.156        0.104      335.271        5.792      866.957
12/31/2013  18:13:00      -75.959       -0.761       -2.087       44.867       41.910       26.915     2013.004     1756.432      724.432        0.513        0.225       75.963       23.904        0.099      335.211        5.694      866.962
12/31/2013  18:14:00      -80.908      -18.404       -8.292       39.667       41.242       24.272     1573.479     1700.930      589.110        0.541        0.193       82.975       19.124        0.053      335.165        5.618      866.980
12/31/2013  18:15:00      -33.426       -7.861       -0.890       43.703       40.453       29.143     1909.964     1636.423      849.288        0.279        0.220       34.338       25.501        0.552      335.123        5.549      866.988
12/31/2013  18:16:00      -76.813      -11.469       -7.142       41.931       39.404       26.356     1758.175     1552.639      694.661        0.504        0.200       77.665       19.801        0.065      335.133        5.564      867.007
12/31/2013  18:17:00     -123.809      -26.204       -7.032       56.038       43.400       29.325     3140.297     1883.552      859.964        1.097        0.294      126.552       25.879        0.042      335.008        5.359      867.006
12/31/2013  18:18:00     -106.686      -46.385      -13.031       48.182       47.715       23.237     2321.487     2276.755      539.952        0.942        0.257      116.334       18.169        0.024      334.991        5.329      867.005
12/31/2013  18:19:00     -105.150      -26.219       -0.848       60.827       40.819       29.689     3699.873     1666.153      881.445        0.900        0.312      108.369       25.647        0.056      334.928        5.224      866.999
12/31/2013  18:20:00     -127.948      -14.540      -10.274       57.463       42.703       24.578     3301.951     1823.580      604.096        1.121        0.286      128.771       16.791        0.017      334.998        5.341      866.991
12/31/2013  18:21:00     -129.552      -58.499       -3.533       41.202       34.619       23.315     1697.631     1198.476      543.566        1.183        0.172      142.147        9.732        0.005      334.935        5.235      866.994
12/31/2013  18:22:00      -78.025      -38.616       -9.089       55.218       32.879       21.914     3049.044     1080.999      480.234        0.614        0.231       87.058       16.145        0.034      334.956        5.270      866.982
12/31/2013  18:23:00      -48.060      -25.507      -13.827       45.711       39.874       30.432     2089.517     1589.918      926.107        0.388        0.230       54.409       22.822        0.176      334.953        5.266      866.980
12/31/2013  18:24:00      -99.512      -49.451      -13.593       33.934       34.054       21.693     1151.543     1159.649      470.587        0.766        0.139      111.122       15.483        0.019      334.929        5.227      866.957
12/31/2013  18:25:00      -70.357      -25.074       -8.719       41.794       28.286       21.621     1746.705      800.072      467.485        0.433        0.151       74.691       10.686        0.020      334.922        5.214      866.942
12/31/2013  18:26:00     -127.158      -39.797      -12.678       52.146       34.778       27.539     2719.242     1209.544      758.389        1.130        0.234      133.240       16.671        0.016      334.976        5.305      866.920
12/31/2013  18:27:00     -136.265      -73.721      -14.338       47.352       50.391       26.229     2242.224     2539.301      687.970        1.484        0.273      154.929       17.439        0.013      334.931        5.229      866.903
12/31/2013  18:28:00      -73.370      -61.509       -4.988       59.668       49.059       29.004     3560.254     2406.778      841.223        0.800        0.340       95.742       30.321        0.100      334.891        5.163      866.901
12/31/2013  18:29:00      -93.768      -30.211       -5.861       77.587       47.181       39.613     6019.740     2226.054     1569.181        0.978        0.491       98.515       44.153        0.201      334.860        5.111      866.898
12/31/2013  18:30:00     -173.526      -53.878      -19.064       42.217       43.588       23.193     1782.268     1899.911      537.936        1.880        0.211      181.698       22.032        0.015      334.841        5.078      866.904
12/31/2013  18:31:00     -123.274      -11.315      -10.786       77.226       49.455       37.017     5963.825     2445.804     1370.274        1.261        0.489      123.792       36.613        0.087      334.794        5.000      866.917
12/31/2013  18:32:00     -115.576       15.866      -25.865       62.165       47.302       33.979     3864.496     2237.511     1154.548        1.077        0.363      116.660       23.866        0.042      334.872        5.132      866.920
12/31/2013  18:33:00     -105.923       18.343       -6.721       51.461       48.437       28.907     2648.228     2346.153      835.629        0.871        0.292      107.499       24.192        0.051      334.874        5.134      866.924
12/31/2013  18:34:00     -150.654       11.825      -17.069       51.314       49.821       37.633     2633.103     2482.120     1416.245        1.483        0.327      151.118       30.611        0.041      334.844        5.083      866.918
12/31/2013  18:35:00     -165.891       -0.728      -25.824       47.181       42.293       31.468     2226.036     1788.670      990.243        1.660        0.250      165.893       26.910        0.026      334.841        5.079      866.922
12/31/2013  18:36:00     -151.782        2.280      -20.573       50.613       41.439       29.527     2561.632     1717.188      871.836        1.431        0.258      151.799       21.984        0.021      334.751        4.931      866.933
12/31/2013  18:37:00     -122.513      -14.174       -6.391       59.099       52.767       35.814     3492.673     2784.333     1282.629        1.140        0.378      123.330       31.285        0.064      334.776        4.971      866.927
12/31/2013  18:38:00     -119.339      -44.638       -7.122       56.906       37.309       33.257     3238.258     1391.947     1106.059        1.101        0.287      127.414       30.667        0.058      334.703        4.850      866.919
12/31/2013  18:39:00     -130.103      -45.630       -5.326       38.663       41.073       24.669     1494.841     1686.959      608.544        1.141        0.190      137.872       16.155        0.014      334.663        4.784      866.908
12/31/2013  18:40:00     -161.114      -42.138       -3.777       74.099       46.724       29.606     5490.685     2183.108      876.523        1.815        0.428      166.533       34.709        0.043      334.698        4.840      866.895
12/31/2013  18:41:00     -166.511      -45.748       -8.921       48.403       46.377       26.690     2342.829     2150.863      712.334        1.755        0.260      172.682       23.661        0.019      334.654        4.767      866.876
12/31/2013  18:42:00     -130.372      -45.159       -3.536       47.771       34.974       22.659     2282.024     1223.198      513.415        1.153        0.201      137.972       23.025        0.028      334.666        4.790      866.869
12/31/2013  18:43:00     -143.164      -44.728       -1.664       34.531       34.167       23.110     1192.381     1167.391      534.068        1.270        0.145      149.988       19.036        0.016      334.721        4.880      866.870
12/31/2013  18:44:00      -98.176      -57.878       -1.356       48.908       33.808       22.499     2391.963     1143.009      506.203        0.852        0.202      113.967       20.205        0.031      334.699        4.845      866.877
12/31/2013  18:45:00     -104.670      -64.898        0.678       37.599       23.866       22.975     1413.709      569.598      527.861        0.884        0.126      123.156       21.471        0.030      334.667        4.790      866.875
12/31/2013  18:46:00      -61.394      -36.692        9.058       38.476       34.009       23.468     1480.381     1156.611      550.753        0.419        0.159       71.522       22.017        0.095      334.707        4.857      866.881
12/31/2013  18:47:00     -105.963      -57.339       -1.497       42.777       27.837       20.697     1829.887      774.896      428.361        0.878        0.152      120.482       16.932        0.020      334.728        4.892      866.875
12/31/2013  18:48:00      -95.948      -64.643       -1.471       45.254       26.946       20.526     2047.951      726.099      421.298        0.829        0.160      115.692       17.316        0.022      334.786        4.988      866.868
12/31/2013  18:49:00      -96.155      -75.123       -0.801       61.429       37.218       25.767     3773.511     1385.204      663.939        1.036        0.291      122.022       26.267        0.046      334.941        5.246      866.863
12/31/2013  18:50:00     -143.913      -68.672       -4.626       41.932       26.173       25.840     1758.280      685.004      667.724        1.428        0.156      159.458       25.676        0.026      335.036        5.404      866.875
12/31/2013  18:51:00     -128.209      -60.515       -3.412       32.901       31.496       22.439     1082.473      992.026      503.518        1.134        0.129      141.773       21.030        0.022      334.998        5.342      866.883
12/31/2013  18:52:00     -120.870      -50.688       -5.458       28.470       23.875       15.853      810.534      570.018      251.307        0.942        0.082      131.068       13.686        0.011      334.945        5.252      866.908
12/31/2013  18:53:00      -89.474      -59.052        4.173       40.444       25.585       22.615     1635.685      654.589      511.452        0.716        0.140      107.204       18.955        0.031      334.949        5.260      866.923
12/31/2013  18:54:00      -68.997      -53.398        9.926       38.853       29.613       21.246     1509.577      876.948      451.399        0.527        0.142       87.247       22.922        0.069      334.909        5.193      866.947
12/31/2013  18:55:00     -108.400      -46.100       -6.152       28.309       13.562       11.682      801.374      183.921      136.461        0.752        0.056      117.795        7.368        0.004      334.893        5.166      866.955
12/31/2013  18:56:00      -91.143      -44.791       -0.372       28.186       22.877       17.341      794.437      523.376      300.694        0.597        0.081      101.554       15.900        0.025      334.821        5.047      866.981
12/31/2013  18:57:00      -96.432      -37.325       -3.408       19.597       16.768       13.565      384.058      281.169      184.005        0.578        0.042      103.404       12.132        0.014      334.860        5.112      866.985
12/31/2013  18:58:00     -116.809      -18.623      -15.998       14.894       17.004       12.010      221.817      289.152      144.242        0.745        0.033      118.285        7.616        0.004      334.825        5.053      867.007
12/31/2013  18:59:00     -131.906      -33.910      -13.152       25.417       16.413       14.721      646.011      269.401      216.722        0.993        0.057      136.195       14.736        0.012      334.860        5.112      867.013
12/31/2013  19:00:00     -139.401      -36.664      -16.922       31.897       20.004       18.523     1017.416      400.168      343.101        1.141        0.088      144.142       17.124        0.014      334.728        4.891      867.015
12/31/2013  19:01:00     -157.795      -30.356      -14.863       23.534       22.569       16.931      553.842      509.373      286.651        1.370        0.067      160.688       11.709        0.005      334.607        4.691      867.023
12/31/2013  19:02:00     -147.673      -31.695       -9.901       25.181       23.075       18.816      634.073      532.452      354.056        1.222        0.076      151.036       14.199        0.009      334.590        4.663      867.015
12/31/2013  19:03:00     -141.403      -46.110      -16.994       24.345       18.769       14.667      592.660      352.291      215.135        1.178        0.058      148.731       12.813        0.007      334.459        4.447      867.018
12/31/2013  19:04:00     -127.314      -64.382      -13.698       18.042       27.854       15.384      325.497      775.820      236.679        1.094        0.067      142.667        8.507        0.004      334.476        4.472      867.012
12/31/2013  19:05:00     -155.784      -35.523      -16.645       23.659       31.058       18.075      559.770      964.581      326.713        1.383        0.093      159.783       11.904        0.006      334.502        4.516      867.005
12/31/2013  19:06:00     -160.399      -44.807      -19.699       27.865       24.505       20.131      776.462      600.515      405.269        1.495        0.089      166.540       15.188        0.008      334.497        4.509      867.002
12/31/2013  19:07:00     -146.748      -47.107      -13.859       36.932       29.306       22.993     1363.961      858.815      528.662        1.335        0.138      154.123       19.271        0.016      334.470        4.464      867.001
12/31/2013  19:08:00     -139.701      -21.790       -9.523       45.281       33.812       24.596     2050.414     1143.252      604.984        1.194        0.190      141.390       25.451        0.032      334.466        4.458      867.011
12/31/2013  19:09:00     -164.673      -45.953      -11.552       41.347       43.117       23.446     1709.606     1859.044      549.722        1.674        0.206      170.965       21.071        0.015      334.456        4.439      867.018
12/31/2013  19:10:00     -166.458      -32.466      -13.216       48.411       39.204       28.504     2343.590     1536.987      812.481        1.681        0.235      169.594       29.745        0.031      334.445        4.422      867.016
12/31/2013  19:11:00     -141.113      -13.733       -7.557       68.226       45.452       32.483     4654.832     2065.907     1055.159        1.397        0.389      141.779       31.671        0.050      334.409        4.359      867.025
12/31/2013  19:12:00      -90.615      -18.687       -0.249       56.909       49.327       30.518     3238.687     2433.181      931.325        0.758        0.330       92.522       25.456        0.076      334.415        4.373      867.022
12/31/2013  19:13:00     -107.493       -0.004       -2.350       64.203       57.095       32.083     4121.987     3259.868     1029.323        0.998        0.421      107.493       33.098        0.095      334.439        4.413      867.020
12/31/2013  19:14:00      -83.703      -23.313       -6.530       49.018       49.834       26.208     2402.797     2483.420      686.855        0.658        0.279       86.889       23.880        0.076      334.382        4.318      867.022
12/31/2013  19:15:00     -134.436      -32.136      -15.144       40.834       41.546       26.709     1667.444     1726.031      713.383        1.172        0.205      138.224       20.062        0.021      334.377        4.310      867.009
12/31/2013  19:16:00     -121.151      -30.839      -23.409       43.525       40.027       24.236     1894.433     1602.146      587.393        1.013        0.204      125.015       18.941        0.023      334.438        4.411      867.013
12/31/2013  19:17:00     -155.178      -55.857      -21.834       35.517       47.563       23.008     1261.431     2262.238      529.349        1.586        0.203      164.925       10.398        0.004      334.355        4.273      867.013
12/31/2013  19:18:00     -101.945      -56.898       -6.293       46.743       42.282       27.710     2184.872     1787.777      767.854        0.920        0.237      116.748       24.866        0.045      334.322        4.219      867.012
12/31/2013  19:19:00     -113.307      -24.728      -12.588       65.800       28.341       20.915     4329.661      803.190      437.425        0.959        0.279      115.974       23.608        0.041      334.408        4.361      867.021
12/31/2013  19:20:00      -92.200      -43.427      -13.213       37.420       28.769       23.927     1400.273      827.663      572.504        0.668        0.140      101.916        5.537        0.003      334.399        4.346      867.019
12/31/2013  19:21:00     -105.188      -53.448      -13.377       43.337       51.355       26.960     1878.115     2637.308      726.831        0.967        0.262      117.988       21.799        0.034      334.434        4.404      867.034
12/31/2013  19:22:00      -96.144      -58.662      -16.008       58.850       43.649       28.676     3463.320     1905.257      822.322        0.956        0.310      112.627       28.552        0.064      334.418        4.377      867.050
12/31/2013  19:23:00      -81.031      -34.914       -7.495       52.845       37.346       30.652     2792.641     1394.714      939.537        0.648        0.256       88.233       26.737        0.092      334.394        4.339      867.065
12/31/2013  19:24:00      -75.307      -51.380       -6.457       52.259       32.898       29.358     2731.054     1082.269      861.875        0.651        0.234       91.165       28.780        0.100      334.406        4.359      867.081
12/31/2013  19:25:00     -112.480      -36.045      -20.713       40.308       32.324       22.424     1624.707     1044.870      502.840        0.878        0.159      118.114       10.517        0.008      334.425        4.388      867.096
12/31/2013  19:26:00     -122.546      -31.661      -21.814       30.000       25.884       18.685      900.010      669.961      349.143        0.921        0.096      126.570       13.596        0.012      334.408        4.361      867.104
12/31/2013  19:27:00     -133.040        1.675      -23.962       23.123       25.014       17.064      534.695      625.678      291.166        0.986        0.073      133.050       10.807        0.007      334.399        4.347      867.126
12/31/2013  19:28:00     -113.592      -14.249      -19.849       28.660       30.247       17.304      821.402      914.871      299.413        0.777        0.102      114.482       17.028        0.022      334.490        4.497      867.134
12/31/2013  19:29:00      -92.960      -30.157       -3.314       27.976       26.480       22.855      782.677      701.186      522.338        0.578        0.100       97.729       17.049        0.030      334.461        4.450      867.145
12/31/2013  19:30:00     -107.242      -27.508      -22.897       23.421       27.987       18.609      548.562      783.273      346.280        0.723        0.084      110.714        5.522        0.002      334.480        4.480      867.157
12/31/2013  19:31:00      -99.766      -26.107      -21.242       23.205       25.155       16.346      538.461      632.786      267.198        0.626        0.072      103.125        6.785        0.004      334.468        4.460      867.178
12/31/2013  19:32:00     -103.108      -41.453      -20.802       18.746       27.337       13.320      351.427      747.327      177.418        0.703        0.064      111.129       12.409        0.012      334.430        4.399      867.203
12/31/2013  19:33:00     -124.554      -41.001      -20.959       26.497       21.402       15.353      702.067      458.042      235.722        0.951        0.070      131.129        9.853        0.006      334.416        4.375      867.236
12/31/2013  19:34:00     -127.459      -34.188      -14.529       19.036       19.668       11.918      362.388      386.813      142.044        0.926        0.045      131.965        8.895        0.005      334.396        4.342      867.259
12/31/2013  19:35:00      -91.743      -15.650      -13.304       20.739       19.276       13.682      430.126      371.560      187.194        0.491        0.049       93.068       11.505        0.015      334.389        4.331      867.271
12/31/2013  19:36:00      -71.490      -18.157       -5.229       17.703       17.592       12.658      313.388      309.479      160.229        0.313        0.039       73.759        7.737        0.011      334.368        4.296      867.295
12/31/2013  19:37:00      -51.846      -29.367       -8.300       12.587       18.692       10.374      158.421      349.404      107.626        0.212        0.031       59.586        7.890        0.018      334.442        4.417      867.297
12/31/2013  19:38:00      -61.795      -28.643       -9.171       17.741       21.378       12.880      314.749      457.032      165.904        0.283        0.047       68.110       10.091        0.022      334.405        4.355      867.299
12/31/2013  19:39:00      -52.157      -32.829       -9.367       11.432       13.144       10.045      130.694      172.764      100.909        0.215        0.020       61.629        6.333        0.011      334.342        4.251      867.310
12/31/2013  19:40:00      -43.305      -19.789       -1.446       19.738       21.831       16.843      389.577      476.575      283.679        0.171        0.057       47.612       14.828        0.097      334.404        4.356      867.308
12/31/2013  19:41:00      -63.611      -22.422       -8.565       16.804       15.150       10.844      282.367      229.516      117.590        0.263        0.031       67.447        7.122        0.011      334.294        4.172      867.301
12/31/2013  19:42:00      -76.071      -53.835       -7.807       19.321       15.542       14.423      373.289      241.544      208.014        0.478        0.041       93.194        7.115        0.006      334.317        4.212      867.285
12/31/2013  19:43:00      -72.115      -43.478      -13.096       25.865       19.070       16.306      669.011      363.666      265.891        0.428        0.065       84.208       10.626        0.016      334.232        4.069      867.280
12/31/2013  19:44:00     -101.903      -34.045      -19.196       10.776       12.959        9.363      116.125      167.932       87.669        0.614        0.019      107.440        2.456        0.001      334.238        4.079      867.271
12/31/2013  19:45:00     -117.040      -25.718      -23.017        9.037       11.149        8.912       81.668      124.298       79.431        0.759        0.014      119.832        4.905        0.002      334.272        4.136      867.265
12/31/2013  19:46:00     -105.559      -19.775      -10.131       19.274       22.899       13.256      371.475      524.362      175.717        0.635        0.054      107.395        8.714        0.007      334.292        4.170      867.267
12/31/2013  19:47:00     -114.545      -19.620       -9.939       16.920       13.286       14.652      286.283      176.526      214.674        0.714        0.034      116.214       12.344        0.011      334.394        4.338      867.283
12/31/2013  19:48:00     -117.347      -20.814      -12.577       10.421       13.783       11.595      108.600      189.976      134.447        0.740        0.022      119.178        5.311        0.002      334.404        4.354      867.302
12/31/2013  19:49:00      -99.976      -18.674      -10.623       22.743       15.391       13.203      517.243      236.887      174.325        0.569        0.046      101.705       12.407        0.015      334.393        4.338      867.321
12/31/2013  19:50:00     -121.184      -47.359      -15.375       15.748       16.821       10.311      248.000      282.963      106.318        0.890        0.032      130.109        5.015        0.001      334.292        4.168      867.345
12/31/2013  19:51:00     -120.601      -52.774      -17.483       10.691       10.234        8.779      114.295      104.731       77.067        0.897        0.015      131.642        5.953        0.002      334.203        4.023      867.357
12/31/2013  19:52:00     -113.112      -40.881      -16.498       17.095       14.403       11.105      292.225      207.458      123.323        0.768        0.031      120.273        7.074        0.003      334.193        4.004      867.380
12/31/2013  19:53:00     -109.362      -51.064      -22.062       16.414       13.514       12.182      269.407      182.622      148.400        0.783        0.030      120.696        8.913        0.005      334.132        3.903      867.395
12/31/2013  19:54:00     -105.741      -26.999      -17.729       22.570       19.249       12.060      509.412      370.537      145.448        0.662        0.051      109.134        9.237        0.007      334.177        3.978      867.407
12/31/2013  19:55:00      -99.568      -23.361      -17.787       13.266       10.690        9.476      175.985      114.272       89.787        0.558        0.019      102.272        1.602        0.000      334.194        4.005      867.426
12/31/2013  19:56:00      -49.476      -28.885      -11.965       17.954       18.725        8.727      322.334      350.635       76.164        0.209        0.037       57.291       10.459        0.033      334.224        4.056      867.455
12/31/2013  19:57:00      -24.379      -25.590       -0.229       14.023       16.980       10.779      196.647      288.335      116.180        0.093        0.030       35.344        4.890        0.019      334.310        4.198      867.477
12/31/2013  19:58:00      -18.442       -2.422        2.818       13.127        9.949        9.723      172.320       98.978       94.536        0.036        0.018       18.600        8.724        0.220      334.335        4.240      867.503
12/31/2013  19:59:00       -9.207       -1.500        3.912        8.141       12.536        7.604       66.270      157.154       57.816        0.019        0.014        9.329        6.334        0.461      334.329        4.231      867.548
12/31/2013  20:00:00        4.092        3.428        2.216        5.469        3.943        4.689       29.915       15.550       21.988        0.005        0.003        5.338        1.905        0.127      334.449        4.429      867.592
12/31/2013  20:01:00       -8.267        1.865        3.527        5.686        5.654        5.543       32.330       31.966       30.723        0.009        0.005        8.475        3.429        0.164      334.398        4.345      867.624
12/31/2013  20:02:00      -15.102        6.370        1.012        8.394       10.781        4.412       70.451      116.220       19.468        0.024        0.010       16.391        4.453        0.074      334.343        4.254      867.645
12/31/2013  20:03:00      -23.760      -22.742       -3.376        6.510        6.667        4.447       42.374       44.445       19.772        0.060        0.005       32.890        1.977        0.004      334.284        4.157      867.649
12/31/2013  20:04:00      -40.957      -24.622       -5.565        8.194        7.136        6.009       67.135       50.918       36.109        0.123        0.008       47.788        3.679        0.006      334.210        4.032      867.654
12/31/2013  20:05:00      -54.272      -24.143       -6.140        9.623        7.004        5.658       92.611       49.058       32.012        0.187        0.009       59.399        2.784        0.002      334.248        4.097      867.655
12/31/2013  20:06:00      -35.968      -17.173       -0.849       10.551       10.806        6.220      111.332      116.760       38.690        0.093        0.013       39.857        4.581        0.013      334.207        4.029      867.641
12/31/2013  20:07:00      -65.466      -21.461       -8.708       11.765       10.697        7.348      138.411      114.417       53.997        0.256        0.015       68.894        5.067        0.005      334.046        3.761      867.648
12/31/2013  20:08:00      -77.375      -31.593       -9.304        9.036       13.404        6.964       81.649      179.667       48.501        0.369        0.015       83.576        5.456        0.004      334.029        3.733      867.661
12/31/2013  20:09:00      -78.462      -18.599       -8.442       15.156       14.475        9.407      229.715      209.528       88.498        0.355        0.026       80.637        8.800        0.012      334.002        3.689      867.676
12/31/2013  20:10:00      -71.686      -31.223       -2.767       14.501       13.077        6.944      210.291      171.010       48.213        0.328        0.021       78.191        5.125        0.004      334.041        3.751      867.680
12/31/2013  20:11:00      -49.082      -11.487       -1.596       11.894       14.476       10.588      141.459      209.554      112.111        0.150        0.023       50.408        7.694        0.023      334.056        3.777      867.674
12/31/2013  20:12:00      -45.780      -20.189       -7.243        8.805       11.655        8.371       77.523      135.839       70.069        0.142        0.014       50.034        4.789        0.009      334.118        3.879      867.665
12/31/2013  20:13:00      -76.012       -1.209       -9.814       16.321       10.697       11.438      266.375      114.424      130.826        0.319        0.026       76.022        4.357        0.003      334.212        4.038      867.667
12/31/2013  20:14:00      -93.765       -7.621       -7.971       25.194       12.105       12.479      634.736      146.534      155.738        0.493        0.047       94.074       13.529        0.021      334.212        4.034      867.687
12/31/2013  20:15:00      -89.084      -23.848       -4.365       21.299       14.657       10.363      453.641      214.837      107.396        0.465        0.039       92.221        9.137        0.010      334.109        3.866      867.711
12/31/2013  20:16:00      -87.301      -34.766       -4.618       18.519       12.503       12.795      342.945      156.327      163.709        0.476        0.033       93.969       11.193        0.014      333.980        3.652      867.735
12/31/2013  20:17:00      -88.784      -13.398      -16.640       18.182       23.098       16.723      330.581      533.519      279.654        0.474        0.057       89.789       14.864        0.027      333.885        3.493      867.755
12/31/2013  20:18:00      -86.528      -10.360      -15.101       21.040       23.387       12.103      442.667      546.955      146.478        0.448        0.057       87.146        8.645        0.010      333.803        3.357      867.771
12/31/2013  20:19:00      -92.418        0.061      -15.677       29.332       26.151       15.448      860.358      683.852      238.651        0.528        0.089       92.418       15.023        0.026      333.611        3.040      867.785
12/31/2013  20:20:00      -78.786      -20.213      -14.160       21.234       29.167       14.628      450.903      850.718      213.977        0.417        0.076       81.338       14.249        0.031      333.625        3.062      867.804
12/31/2013  20:21:00      -54.448      -32.372       -5.809       26.295       22.039       12.498      691.434      485.738      156.202        0.269        0.067       63.344        8.669        0.019      333.641        3.087      867.812
12/31/2013  20:22:00      -58.215      -12.930       -6.844       21.967       17.543       11.841      482.537      307.751      140.216        0.227        0.047       59.633        8.019        0.018      333.713        3.208      867.822
12/31/2013  20:23:00      -62.237      -12.974      -12.774       17.264       15.446        9.139      298.048      238.578       83.527        0.241        0.031       63.575        6.110        0.009      333.737        3.248      867.821
12/31/2013  20:24:00      -58.206      -24.852       -9.582       19.674       21.438       10.032      387.061      459.604      100.638        0.252        0.047       63.289        8.970        0.020      333.846        3.429      867.821
12/31/2013  20:25:00      -68.005       -8.612      -13.366       24.986       29.902       14.465      624.286      894.102      209.231        0.330        0.086       68.549       13.059        0.036      333.862        3.456      867.816
12/31/2013  20:26:00      -41.546      -16.892       -8.822       24.576       20.000       16.260      603.958      399.988      264.371        0.168        0.063       44.849       16.701        0.139      333.829        3.401      867.813
12/31/2013  20:27:00      -59.101      -45.997      -12.564       21.285       27.023       19.012      453.033      730.263      361.453        0.366        0.077       74.891       12.354        0.027      333.842        3.422      867.812
12/31/2013  20:28:00      -66.087      -30.945      -12.136       18.871       27.248       18.536      356.102      742.461      343.578        0.346        0.072       72.973       11.067        0.023      333.859        3.450      867.809
12/31/2013  20:29:00      -73.917      -30.192      -17.017       31.399       22.482       13.199      985.873      505.424      174.207        0.416        0.083       79.845       10.469        0.017      333.886        3.496      867.818
12/31/2013  20:30:00      -94.043      -18.395      -23.369       21.277       18.740       16.071      452.728      351.204      258.270        0.540        0.053       95.825        7.953        0.007      333.946        3.596      867.823
12/31/2013  20:31:00      -90.770      -21.105      -18.218       16.989       27.832       15.352      288.613      774.620      235.670        0.516        0.065       93.191        6.005        0.004      333.933        3.574      867.839
12/31/2013  20:32:00     -109.135      -12.679      -11.650       21.425       14.927       11.712      459.023      222.818      137.161        0.651        0.041      109.869       10.199        0.009      333.896        3.511      867.837
12/31/2013  20:33:00      -76.801      -36.762       -9.972       15.395       18.404       12.335      237.020      338.704      152.142        0.404        0.036       85.146        8.359        0.010      333.827        3.397      867.841
12/31/2013  20:34:00      -98.620      -15.113       -9.521       16.897       15.917       12.845      285.497      253.340      165.005        0.537        0.035       99.771        8.537        0.007      333.886        3.496      867.844
12/31/2013  20:35:00      -89.634      -40.061      -11.528       14.962       22.510       10.769      223.848      506.694      115.963        0.531        0.042       98.179        8.383        0.007      333.868        3.464      867.849
12/31/2013  20:36:00      -90.023      -58.716      -19.492       24.388       23.816       17.289      594.798      567.220      298.895        0.670        0.073      107.479       15.023        0.020      333.775        3.312      867.858
12/31/2013  20:37:00      -90.169      -63.172      -12.333       27.347       28.950       16.472      747.837      838.112      271.337        0.707        0.093      110.097       12.197        0.012      333.719        3.217      867.852
12/31/2013  20:38:00     -108.019      -67.985      -12.963       36.575       24.451       16.580     1337.747      597.869      274.886        0.933        0.111      127.633       12.245        0.009      333.625        3.062      867.836
12/31/2013  20:39:00     -101.097      -62.306      -13.473       35.714       35.605       19.298     1275.491     1267.745      372.417        0.860        0.146      118.754        7.584        0.004      333.628        3.068      867.822
12/31/2013  20:40:00      -81.617      -45.726       -4.012       40.990       33.780       23.191     1680.165     1141.082      537.801        0.606        0.168       93.553       16.526        0.031      333.539        2.919      867.825
12/31/2013  20:41:00     -115.789      -48.666      -15.307       20.752       13.437       12.280      430.666      180.562      150.790        0.839        0.038      125.600        7.760        0.004      333.544        2.928      867.817
12/31/2013  20:42:00     -104.877      -28.565       -9.541       26.902       23.382       19.284      723.714      546.719      371.890        0.677        0.082      108.698       14.668        0.018      333.606        3.031      867.817
12/31/2013  20:43:00     -103.485      -35.775      -10.953       19.166       15.718       13.379      367.331      247.059      179.009        0.645        0.040      109.494        9.457        0.007      333.628        3.066      867.839
12/31/2013  20:44:00      -91.939      -52.666      -13.459       13.693       11.867        8.233      187.509      140.817       67.779        0.590        0.020      105.955        7.103        0.004      333.656        3.114      867.865
12/31/2013  20:45:00     -102.817      -57.314       -5.434       14.821       17.864       12.332      219.651      319.117      152.080        0.729        0.035      117.712        6.533        0.003      333.680        3.154      867.887
12/31/2013  20:46:00      -97.188      -57.787       -8.999       20.128       14.304        9.229      405.129      204.616       85.166        0.678        0.035      113.070        9.316        0.007      333.697        3.181      867.912
12/31/2013  20:47:00     -114.825      -42.902      -12.236        9.999       19.385        8.246       99.976      375.795       67.998        0.786        0.027      122.578        3.049        0.001      333.669        3.135      867.927
12/31/2013  20:48:00      -97.354      -50.143       -9.609       27.582       24.862       16.136      760.791      618.106      260.381        0.686        0.082      109.508       10.670        0.009      333.560        2.953      867.923
12/31/2013  20:49:00     -121.118      -43.901      -11.275       12.734       16.550       13.320      162.157      273.916      177.423        0.867        0.031      128.829        5.689        0.002      333.491        2.840      867.919
12/31/2013  20:50:00     -118.157      -65.746      -12.018       14.875       14.376       13.821      221.252      206.665      191.020        0.952        0.031      135.217        6.680        0.002      333.510        2.869      867.916
12/31/2013  20:51:00     -123.287      -70.513      -10.545       22.721       16.939       15.508      516.263      286.935      240.503        1.066        0.052      142.028        5.752        0.002      333.413        2.711      867.903
12/31/2013  20:52:00     -123.925      -78.935       -6.285       23.939       18.236       14.207      573.094      332.552      201.843        1.137        0.055      146.929        8.212        0.003      333.382        2.660      867.901
12/31/2013  20:53:00     -111.862      -81.202       -5.807       32.991       27.841       22.476     1088.398      775.132      505.190        1.075        0.118      138.228       14.965        0.012      333.439        2.753      867.904
12/31/2013  20:54:00     -102.727      -70.513       -5.054       38.652       33.633       19.349     1494.012     1131.156      374.381        0.927        0.150      124.599       13.637        0.012      333.421        2.725      867.902
12/31/2013  20:55:00     -109.204      -90.635       -5.804       36.378       30.784       26.118     1323.336      947.624      682.163        1.156        0.148      141.916       17.639        0.015      333.414        2.711      867.896
12/31/2013  20:56:00      -97.582      -72.535       -4.115       37.741       36.161       27.925     1424.359     1307.639      779.813        0.916        0.176      121.588       24.043        0.039      333.451        2.773      867.903
12/31/2013  20:57:00     -106.591      -87.709       -3.464       37.209       28.704       25.437     1384.476      823.924      647.064        1.096        0.143      138.038       18.041        0.017      333.495        2.848      867.919
12/31/2013  20:58:00      -97.302      -74.032        6.908       49.084       32.397       27.582     2409.192     1049.552      760.791        0.961        0.211      122.264       24.872        0.041      333.566        2.963      867.925
12/31/2013  20:59:00      -87.754      -58.036        3.473       48.411       39.588       21.654     2343.654     1567.237      468.888        0.773        0.219      105.209       19.599        0.035      333.583        2.994      867.929
12/31/2013  21:00:00     -100.644      -65.618        0.612       43.826       29.888       22.520     1920.683      893.278      507.141        0.888        0.166      120.145       19.426        0.026      333.542        2.925      867.931
12/31/2013  21:01:00      -90.906      -60.045        9.422       49.103       35.585       26.189     2411.068     1266.321      685.883        0.816        0.218      108.946       23.740        0.047      333.573        2.977      867.947
12/31/2013  21:02:00      -83.143      -61.749        7.910       41.678       34.928       28.202     1737.097     1219.941      795.337        0.727        0.188      103.565       24.970        0.058      333.532        2.908      867.949
12/31/2013  21:03:00     -125.056      -65.296       -3.087       29.264       26.837       19.333      856.364      720.232      373.749        1.093        0.098      141.077       14.952        0.011      333.447        2.767      867.949
12/31/2013  21:04:00     -109.679      -61.408       -0.166       45.006       32.846       22.798     2025.542     1078.886      519.735        0.971        0.181      125.700       22.635        0.032      333.502        2.858      867.963
12/31/2013  21:05:00     -103.000      -57.786       -1.788       52.808       29.567       23.628     2788.650      874.234      558.283        0.909        0.211      118.102       28.003        0.056      333.498        2.852      867.973
12/31/2013  21:06:00     -118.734      -68.778       -2.142       36.827       22.124       21.487     1356.221      489.485      461.697        1.057        0.115      137.216       22.205        0.026      333.496        2.849      867.963
12/31/2013  21:07:00      -99.448      -66.926        3.422       39.787       30.060       23.744     1583.043      903.610      563.780        0.872        0.153      119.871       21.985        0.034      333.530        2.904      867.962
12/31/2013  21:08:00     -108.789      -58.832       10.651       46.768       32.198       25.789     2187.209     1036.696      665.066        0.965        0.194      123.677       27.415        0.049      333.555        2.946      867.963
12/31/2013  21:09:00     -114.417      -77.593        0.145       38.757       23.985       24.623     1502.087      575.294      606.288        1.090        0.134      138.246       21.644        0.025      333.550        2.938      867.958
12/31/2013  21:10:00     -125.493      -76.307        0.752       29.743       23.572       19.756      884.641      555.639      390.302        1.170        0.092      146.871       16.589        0.013      333.490        2.838      867.942
12/31/2013  21:11:00     -127.690      -73.687       -9.614       29.178       21.688       18.991      851.356      470.372      360.669        1.175        0.084      147.426       16.632        0.013      333.412        2.710      867.939
12/31/2013  21:12:00     -140.653      -57.682       -4.296       30.717       18.416       17.968      943.530      339.166      322.839        1.237        0.080      152.021       15.518        0.010      333.392        2.675      867.932
12/31/2013  21:13:00     -130.717      -67.744       -4.835       28.964       23.454       16.043      838.900      550.112      257.365        1.167        0.082      147.228       13.755        0.009      333.372        2.644      867.919
12/31/2013  21:14:00     -136.356      -56.030       -3.096       27.366       21.805       20.416      748.902      475.479      416.814        1.169        0.082      147.419       15.314        0.011      333.291        2.508      867.904
12/31/2013  21:15:00     -145.021      -54.972       -6.851       25.666       22.117       17.471      658.724      489.154      305.236        1.278        0.073      155.090       12.773        0.007      333.304        2.529      867.907
12/31/2013  21:16:00     -128.578      -67.228        1.644       29.537       25.479       19.153      872.457      649.182      366.835        1.147        0.094      145.092       14.688        0.010      333.337        2.585      867.903
12/31/2013  21:17:00     -138.236      -59.950       -0.387       26.862       20.321       17.925      721.561      412.946      321.313        1.208        0.073      150.676       15.489        0.011      333.320        2.560      867.907
12/31/2013  21:18:00     -133.302      -39.609       -6.995       22.337       26.261       14.203      498.926      689.632      201.728        1.039        0.070      139.062       12.049        0.008      333.387        2.668      867.925
12/31/2013  21:19:00     -133.197      -16.584       -6.900       26.201       24.726       20.550      686.476      611.363      422.299        0.989        0.086      134.225       15.927        0.014      333.430        2.738      867.953
12/31/2013  21:20:00     -123.485      -26.429       -3.934       49.546       34.955       23.304     2454.844     1221.859      543.085        1.009        0.211      126.281       22.554        0.032      333.549        2.935      867.960
12/31/2013  21:21:00      -96.348       -8.853       -1.955       61.670       38.385       23.481     3803.248     1473.398      551.355        0.760        0.291       96.753       30.476        0.099      333.509        2.870      867.969
12/31/2013  21:22:00     -146.404       10.364      -10.478       45.562       35.145       24.129     2075.866     1235.163      582.196        1.277        0.195      146.770       21.892        0.022      333.585        2.996      867.993
12/31/2013  21:23:00     -141.046       -2.860      -10.646       41.648       31.388       23.082     1734.580      985.185      532.790        1.163        0.163      141.075       20.132        0.020      333.509        2.869      867.999
12/31/2013  21:24:00     -122.844      -21.174       -0.228       47.762       38.304       31.608     2281.170     1467.184      999.056        1.014        0.237      124.656       32.439        0.068      333.520        2.889      868.006
12/31/2013  21:25:00      -93.531      -23.070       -1.106       39.599       40.475       23.955     1568.090     1638.247      573.848        0.653        0.189       96.334       18.701        0.038      333.463        2.794      868.012
12/31/2013  21:26:00      -61.492      -36.047       -7.035       27.375       33.863       18.796      749.400     1146.724      353.284        0.369        0.112       71.279       14.450        0.041      333.438        2.751      868.020
12/31/2013  21:27:00      -23.870      -21.690       -1.539       43.565       15.353       16.694     1897.880      235.715      278.685        0.173        0.121       32.252       17.839        0.306      333.421        2.724      868.025
12/31/2013  21:28:00      -78.415      -19.161       -7.532       38.336       26.273       22.019     1469.639      690.250      484.841        0.461        0.132       80.722       20.772        0.066      333.382        2.660      868.027
12/31/2013  21:29:00     -105.958      -62.947      -15.999       31.851       23.228       21.069     1014.473      539.554      443.887        0.872        0.100      123.245       16.125        0.017      333.347        2.602      868.032
12/31/2013  21:30:00      -78.704      -35.478      -10.625       36.499       28.156       17.636     1332.213      792.733      311.032        0.500        0.122       86.331       12.918        0.022      333.308        2.536      868.037
12/31/2013  21:31:00      -47.431      -29.822       -3.648       34.993       23.177       14.660     1224.536      537.157      214.903        0.256        0.099       56.027       11.239        0.040      333.309        2.539      868.035
12/31/2013  21:32:00      -70.803      -42.059       -6.385       33.667       21.518       18.571     1133.464      463.039      344.884        0.438        0.097       82.353       21.779        0.070      333.232        2.412      868.033
12/31/2013  21:33:00      -98.728      -39.132       -8.566       18.294       18.250       11.238      334.685      333.056      126.284        0.607        0.040      106.201       12.666        0.014      333.238        2.421      868.031
12/31/2013  21:34:00      -65.837      -44.673       -2.151       24.902       16.167       12.516      620.127      261.384      156.647        0.369        0.052       79.562       12.356        0.024      333.224        2.397      868.028
12/31/2013  21:35:00      -56.273      -29.665        0.729       24.474       19.570       11.382      598.974      382.981      129.539        0.258        0.056       63.613        7.889        0.015      333.226        2.401      868.027
12/31/2013  21:36:00      -76.247      -42.167       -7.708       14.318        9.957        9.342      205.019       99.150       87.267        0.402        0.020       87.130        4.244        0.002      333.192        2.344      868.028
12/31/2013  21:37:00      -90.781      -42.515       -6.426       17.192       14.911        9.748      295.576      222.345       95.020        0.535        0.031      100.243        7.752        0.006      333.137        2.254      868.037
12/31/2013  21:38:00     -104.019      -45.350      -10.092       10.648        9.585        9.496      113.379       91.864       90.176        0.664        0.015      113.475        4.087        0.001      333.114        2.218      868.046
12/31/2013  21:39:00      -73.237      -48.398        1.997       28.639       20.867       15.012      820.182      435.420      225.347        0.460        0.074       87.784       15.086        0.030      333.149        2.275      868.046
12/31/2013  21:40:00      -56.688      -27.781        1.282       29.771       12.900       13.153      886.289      166.409      172.991        0.261        0.061       63.129       14.058        0.050      333.091        2.180      868.050
12/31/2013  21:41:00      -69.209      -41.097       -8.986       15.179       14.318       10.072      230.405      205.014      101.448        0.355        0.027       80.491        6.683        0.007      333.154        2.281      868.055
12/31/2013  21:42:00      -81.741      -49.370       -3.561       21.358       15.568       14.678      456.155      242.373      215.450        0.502        0.046       95.493        7.396        0.006      333.060        2.127      868.064
12/31/2013  21:43:00      -70.060      -50.133        0.409       35.128       21.538       20.736     1234.009      463.900      429.985        0.477        0.106       86.149       22.122        0.066      333.035        2.086      868.059
12/31/2013  21:44:00      -90.617      -65.843       -1.694       35.684       18.212       16.989     1273.373      331.670      288.625        0.722        0.095      112.012       11.267        0.010      333.062        2.131      868.046
12/31/2013  21:45:00      -64.501      -44.251       12.643       49.538       29.203       18.710     2453.977      852.810      350.064        0.497        0.183       78.221       21.461        0.075      333.095        2.186      868.032
12/31/2013  21:46:00      -91.841      -59.582        0.090       33.511       27.331       17.198     1122.959      747.010      295.781        0.707        0.108      109.475       17.438        0.025      333.123        2.232      868.026
12/31/2013  21:47:00     -118.438      -54.943       -6.613       29.820       19.617       18.110      889.209      384.838      327.971        0.935        0.080      130.561       14.884        0.013      333.043        2.100      868.038
12/31/2013  21:48:00     -100.774      -55.756       -0.847       35.395       24.995       18.230     1252.789      624.738      332.346        0.774        0.110      115.170       16.432        0.020      333.124        2.233      868.058
12/31/2013  21:49:00      -97.727      -53.967       -7.097       19.797       22.114       17.429      391.939      489.010      303.760        0.685        0.059      111.638       13.465        0.015      333.208        2.370      868.080
12/31/2013  21:50:00     -102.919      -36.330      -11.699       16.452       16.573       12.383      270.668      274.671      153.343        0.637        0.035      109.143        8.956        0.007      333.217        2.388      868.094
12/31/2013  21:51:00      -77.711      -45.900        0.030       21.054       15.222       14.026      443.261      231.722      196.718        0.451        0.044       90.254       12.478        0.019      333.209        2.374      868.108
12/31/2013  21:52:00      -80.174      -24.505       -0.466       22.925       13.739        8.092      525.535      188.752       65.484        0.390        0.039       83.836        4.836        0.003      333.228        2.405      868.111
12/31/2013  21:53:00      -77.330      -21.687       -1.869       23.248       20.132       14.826      540.450      405.308      219.804        0.381        0.058       80.314       13.159        0.027      333.163        2.299      868.122
12/31/2013  21:54:00      -96.583      -22.525       -4.796       32.382       17.131       16.411     1048.618      293.483      269.315        0.573        0.081       99.175       17.701        0.032      333.048        2.109      868.112
12/31/2013  21:55:00     -114.645      -30.320       -2.337       31.130       22.742       17.137      969.067      517.191      293.660        0.792        0.089      118.587       16.365        0.019      332.953        1.952      868.109
12/31/2013  21:56:00     -119.631      -14.079        0.578       30.148       22.289       17.896      908.916      496.816      320.258        0.812        0.086      120.457       18.003        0.022      332.911        1.881      868.113
12/31/2013  21:57:00     -130.024       -8.453       -8.091       29.063       21.607       18.539      844.640      466.881      343.685        0.935        0.083      130.298       17.314        0.018      333.004        2.034      868.124
12/31/2013  21:58:00     -133.024      -32.765       -7.918       19.570       18.131       16.930      382.991      328.725      286.628        0.991        0.050      136.999        9.379        0.005      332.984        2.003      868.149
12/31/2013  21:59:00     -139.044      -39.214       -6.132       26.230       18.449       13.957      688.006      340.354      194.797        1.107        0.061      144.468       13.330        0.009      333.002        2.033      868.165
12/31/2013  22:00:00     -139.987      -30.822      -10.751       25.011       17.994       16.153      625.564      323.781      260.927        1.094        0.061      143.340        9.558        0.004      333.026        2.071      868.163
12/31/2013  22:01:00     -109.962      -33.323       -4.059       32.118       21.697       15.990     1031.540      470.740      255.676        0.749        0.088      114.900       15.401        0.018      333.055        2.119      868.153
12/31/2013  22:02:00      -96.009      -24.319        3.837       29.533       22.001       16.135      872.180      484.036      260.349        0.572        0.081       99.041       14.754        0.022      332.990        2.012      868.145
12/31/2013  22:03:00      -75.669      -23.714       -0.233       29.055       22.812       15.172      844.203      520.372      230.202        0.394        0.080       79.298       16.191        0.042      332.868        1.811      868.138
12/31/2013  22:04:00      -79.520      -10.772       -4.621       25.618       19.582       15.095      656.301      383.452      227.846        0.386        0.063       80.247       14.378        0.032      332.890        1.847      868.150
12/31/2013  22:05:00     -104.018      -14.458       -6.420       19.671       17.228       14.044      386.932      296.806      197.228        0.598        0.044      105.018       12.034        0.013      332.895        1.856      868.153
12/31/2013  22:06:00      -88.725      -21.721       -1.770       24.593       18.718       13.968      604.795      350.375      195.102        0.475        0.058       91.346        8.448        0.009      332.897        1.858      868.154
12/31/2013  22:07:00      -84.434      -14.141        2.168       32.896       22.148       15.302     1082.124      490.533      234.154        0.457        0.090       85.610       15.562        0.033      332.899        1.863      868.143
12/31/2013  22:08:00      -98.485      -31.691       -2.140       25.369       22.251       15.114      643.612      495.115      228.436        0.604        0.068      103.459       14.925        0.021      332.905        1.873      868.140
12/31/2013  22:09:00     -148.672      -54.647       -0.946       40.123       28.751       16.139     1609.872      826.614      260.477        1.389        0.135      158.397       15.953        0.010      332.838        1.762      868.138
12/31/2013  22:10:00     -171.389      -39.207       -7.932       29.801       27.319       15.135      888.112      746.318      229.077        1.642        0.093      175.816       11.971        0.005      332.820        1.731      868.127
12/31/2013  22:11:00     -117.539       -9.875       -3.225       45.808       32.792       20.346     2098.329     1075.344      413.977        0.875        0.179      117.953       22.861        0.038      332.776        1.658      868.129
12/31/2013  22:12:00      -90.232      -24.037       -5.746       22.147       16.725       13.925      490.505      279.724      193.919        0.486        0.048       93.379       10.873        0.014      332.819        1.731      868.139
12/31/2013  22:13:00      -94.700      -27.796       -7.022       18.597       15.323       12.196      345.837      234.802      148.746        0.526        0.036       98.695        7.967        0.007      332.830        1.747      868.159
12/31/2013  22:14:00     -104.780      -31.641      -11.652       13.742       12.850        9.649      188.848      165.112       93.103        0.628        0.022      109.453        5.439        0.002      332.847        1.777      868.184
12/31/2013  22:15:00      -84.336      -39.377       -5.308       25.001       16.206       14.289      625.061      262.627      204.182        0.489        0.055       93.076       14.429        0.024      332.819        1.730      868.204
12/31/2013  22:16:00      -80.344      -28.185      -11.160       20.478       15.128       12.229      419.343      228.865      149.548        0.409        0.040       85.145       10.442        0.015      332.764        1.641      868.210
12/31/2013  22:17:00      -97.941      -28.113      -13.541        8.974       14.940       11.591       80.537      223.197      134.361        0.550        0.022      101.896        6.950        0.005      332.761        1.636      868.204
12/31/2013  22:18:00      -92.732      -29.879      -14.729       13.955       16.416       13.489      194.747      269.496      181.961        0.518        0.032       97.427        7.316        0.006      332.757        1.627      868.184
12/31/2013  22:19:00      -92.188      -43.905      -15.155       11.712       10.345        8.086      137.176      107.014       65.385        0.548        0.015      102.109        1.370        0.000      332.785        1.674      868.161
12/31/2013  22:20:00     -116.424      -32.058      -18.481       12.120       12.109        8.744      146.896      146.638       76.461        0.765        0.018      120.757        6.301        0.003      332.786        1.677      868.149
12/31/2013  22:21:00     -116.661      -33.719      -13.847       12.459       12.540        9.315      155.221      157.263       86.766        0.767        0.020      121.436        4.997        0.002      332.789        1.681      868.142
12/31/2013  22:22:00     -122.342      -26.425      -14.941       19.401       11.140        9.473      376.392      124.109       89.731        0.824        0.030      125.163        8.532        0.005      332.777        1.661      868.124
12/31/2013  22:23:00     -122.576      -28.364      -18.534       15.532       11.048        8.742      241.255      122.065       76.429        0.831        0.022      125.815        5.311        0.002      332.872        1.817      868.122
12/31/2013  22:24:00     -134.270      -33.075      -19.195       10.795       12.166        8.789      116.530      148.016       77.247        0.992        0.017      138.284        5.549        0.002      332.822        1.736      868.119
12/31/2013  22:25:00     -136.216      -32.950      -20.485       13.204       13.995       10.503      174.347      195.862      110.323        1.027        0.024      140.145        6.104        0.002      332.731        1.584      868.131
12/31/2013  22:26:00     -129.335      -25.776      -19.301       18.757       14.289       14.092      351.827      204.165      198.586        0.926        0.038      131.879       11.253        0.007      332.685        1.508      868.137
12/31/2013  22:27:00      -98.698      -34.265      -14.289       14.851       22.488       12.633      220.561      505.713      159.592        0.600        0.044      104.477        8.758        0.007      332.648        1.446      868.147
12/31/2013  22:28:00     -132.651       -7.740      -21.503       23.866       19.450       14.023      569.605      378.292      196.654        0.963        0.057      132.877        4.848        0.001      332.659        1.466      868.162
12/31/2013  22:29:00      -99.357      -13.125      -16.255       18.560       23.108       13.450      344.488      533.981      180.891        0.568        0.053      100.220        8.590        0.007      332.673        1.487      868.166
12/31/2013  22:30:00      -93.972      -27.160      -18.862       21.066       18.549       13.485      443.784      344.074      181.847        0.545        0.048       97.818       12.930        0.017      332.695        1.526      868.159
12/31/2013  22:31:00      -84.138      -24.046      -22.023       17.138       14.553       10.564      293.707      211.787      111.602        0.438        0.031       87.506        9.804        0.013      332.766        1.642      868.142
12/31/2013  22:32:00     -100.963      -45.670      -12.543       18.800       24.682       16.515      353.442      609.179      272.746        0.684        0.062      110.812       13.770        0.015      332.694        1.523      868.126
12/31/2013  22:33:00     -124.682      -39.613      -16.938       14.135       19.924       11.285      199.803      396.963      127.342        0.906        0.036      130.824        9.107        0.005      332.694        1.521      868.115
12/31/2013  22:34:00     -116.780      -50.387      -16.918       12.302        9.757        8.468      151.336       95.208       71.714        0.839        0.016      127.186        4.552        0.001      332.718        1.562      868.115
12/31/2013  22:35:00     -112.566      -48.737      -11.931        9.916       12.323        7.893       98.318      151.847       62.302        0.775        0.016      122.664        5.498        0.002      332.757        1.628      868.113
12/31/2013  22:36:00     -114.062      -44.647      -11.520       14.226       13.501        9.439      202.376      182.271       89.093        0.780        0.024      122.489        2.298        0.000      332.730        1.583      868.112
12/31/2013  22:37:00     -114.195      -46.652      -10.529       17.457       17.225       10.483      304.763      296.715      109.898        0.802        0.036      123.357        6.726        0.003      332.760        1.634      868.099
12/31/2013  22:38:00     -134.327      -49.828      -11.495       12.160       14.194        9.703      147.867      201.480       94.157        1.055        0.022      143.271        6.488        0.002      332.757        1.628      868.096
12/31/2013  22:39:00     -125.779      -58.547       -6.343       13.728       16.428       10.983      188.465      269.885      120.619        0.993        0.029      138.737        4.797        0.001      332.698        1.529      868.107
12/31/2013  22:40:00     -119.369      -44.288      -12.551       12.256       17.166       11.071      150.220      294.672      122.571        0.847        0.028      127.320        6.410        0.003      332.713        1.555      868.113
12/31/2013  22:41:00     -137.648      -39.013      -12.885       16.462       12.217       11.153      271.011      149.253      124.397        1.059        0.027      143.069        6.857        0.002      332.633        1.422      868.107
12/31/2013  22:42:00     -137.797      -43.405      -10.414       22.956       17.932       15.238      526.965      321.573      232.204        1.103        0.054      144.471       12.633        0.008      332.663        1.471      868.102
12/31/2013  22:43:00     -120.341      -48.359       -3.495       37.626       24.501       18.144     1415.722      600.284      329.204        0.959        0.117      129.694       18.992        0.021      332.627        1.413      868.090
12/31/2013  22:44:00     -130.196      -47.346      -13.042       16.707       18.606       11.514      279.110      346.198      132.582        1.006        0.038      138.537        5.850        0.002      332.610        1.383      868.095
12/31/2013  22:45:00     -123.825      -43.516      -11.991       16.098       13.496        9.922      259.130      182.138       98.454        0.895        0.027      131.249        8.624        0.004      332.571        1.319      868.106
12/31/2013  22:46:00     -110.735      -28.106      -12.066       13.464       11.803        8.079      181.287      139.314       65.278        0.679        0.019      114.247        4.278        0.001      332.563        1.306      868.125
12/31/2013  22:47:00     -126.649      -27.858      -17.091       20.342       17.811       11.731      413.802      317.245      137.614        0.899        0.043      129.677        8.378        0.004      332.568        1.314      868.135
12/31/2013  22:48:00      -95.407      -45.366       -1.859       23.701       23.249       17.718      561.721      540.496      313.944        0.629        0.071      105.643       13.371        0.016      332.569        1.316      868.143
12/31/2013  22:49:00      -83.199      -50.913       -2.289       31.790       36.246       20.396     1010.632     1313.793      415.993        0.613        0.137       97.541       17.288        0.031      332.571        1.319      868.141
12/31/2013  22:50:00     -103.599      -41.121       -4.781       37.557       25.587       21.094     1410.526      654.696      444.976        0.748        0.126      111.461       22.008        0.039      332.609        1.382      868.150
12/31/2013  22:51:00      -83.925      -44.315      -11.995       33.499       31.389       19.488     1122.198      985.242      379.798        0.582        0.124       94.906       12.665        0.018      332.555        1.294      868.153
12/31/2013  22:52:00     -107.483      -35.979      -13.795       34.398       23.372       17.010     1183.218      546.238      289.345        0.753        0.101      113.345       16.684        0.022      332.614        1.392      868.149
12/31/2013  22:53:00     -103.625      -33.027      -12.797       31.029       32.194       15.690      962.818     1036.460      246.163        0.712        0.112      108.761       14.818        0.019      332.587        1.347      868.151
12/31/2013  22:54:00      -78.667      -43.988      -10.559       23.019       22.632       13.515      529.894      512.216      182.654        0.473        0.061       90.130       11.626        0.017      332.636        1.428      868.155
12/31/2013  22:55:00     -111.514      -26.904      -15.657       23.485       20.144       15.913      551.554      405.792      253.210        0.731        0.061      114.713        9.395        0.007      332.614        1.390      868.159
12/31/2013  22:56:00     -110.964      -31.525      -17.912       24.992       28.485       15.466      624.620      811.404      239.197        0.765        0.084      115.355        7.147        0.004      332.638        1.429      868.165
12/31/2013  22:57:00     -110.237      -12.060      -17.147       18.458       21.594       16.811      340.704      466.297      282.620        0.684        0.054      110.895       12.637        0.013      332.620        1.400      868.170
12/31/2013  22:58:00     -108.230        9.482      -18.903       22.742       17.920       16.443      517.183      321.141      270.376        0.663        0.055      108.644       12.102        0.012      332.685        1.507      868.170
12/31/2013  22:59:00      -88.012       -6.766      -16.562       22.456       13.825       12.496      504.274      191.139      156.142        0.446        0.043       88.272       11.621        0.017      332.672        1.487      868.178
12/31/2013  23:00:00      -70.962      -28.548      -13.484       18.979       16.548       13.774      360.215      273.823      189.716        0.343        0.041       76.489        8.420        0.012      332.683        1.505      868.187
12/31/2013  23:01:00      -79.923      -40.165      -15.451       17.443       28.540       11.571      304.266      814.543      133.878        0.475        0.063       89.448        6.934        0.006      332.663        1.472      868.196
12/31/2013  23:02:00      -91.539      -30.292      -10.322       19.991       25.565       15.859      399.650      653.589      251.492        0.535        0.065       96.421        9.532        0.010      332.559        1.300      868.210
12/31/2013  23:03:00     -109.460      -20.201      -16.861       18.781       23.653       13.639      352.713      559.468      186.031        0.689        0.055      111.308       10.215        0.008      332.548        1.281      868.211
12/31/2013  23:04:00      -93.753      -28.681      -16.496       17.498       22.224       12.115      306.166      493.926      146.764        0.542        0.047       98.041        4.463        0.002      332.563        1.306      868.222
12/31/2013  23:05:00     -127.608       -3.387      -19.788       27.901       15.056       16.276      778.441      226.688      264.921        0.898        0.064      127.653       10.984        0.007      332.626        1.411      868.220
12/31/2013  23:06:00      -79.554      -14.001      -13.043       14.365       14.102       10.261      206.362      198.868      105.296        0.360        0.026       80.776        7.960        0.010      332.563        1.307      868.224
12/31/2013  23:07:00      -79.188      -23.146      -10.894       18.717       20.351       11.021      350.337      414.157      121.459        0.391        0.044       82.501        7.528        0.008      332.591        1.353      868.232
12/31/2013  23:08:00      -72.255       -8.493      -12.019       12.811       12.072        9.719      164.132      145.732       94.458        0.292        0.020       72.753        8.421        0.013      332.638        1.431      868.250
12/31/2013  23:09:00      -97.329       13.605      -15.933       12.823       13.931       12.901      164.434      194.086      166.427        0.522        0.026       98.275        8.491        0.007      332.711        1.552      868.258
12/31/2013  23:10:00      -94.017       15.964      -10.925       15.689       12.186        9.858      246.140      148.499       97.190        0.485        0.025       95.362        2.438        0.001      332.631        1.419      868.259
12/31/2013  23:11:00      -95.957       14.664       -2.564       39.841       27.012       20.916     1587.324      729.647      437.465        0.609        0.138       97.071       18.751        0.037      332.902        1.868      868.255
12/31/2013  23:12:00      -81.530      -19.072       -8.102       19.750       19.842       18.062      390.064      393.692      326.234        0.409        0.055       83.731       14.866        0.032      332.611        1.388      868.241
12/31/2013  23:13:00     -104.239      -24.890      -13.324       22.607       24.540       14.548      511.095      602.204      211.631        0.649        0.066      107.169       10.300        0.009      332.568        1.313      868.232
12/31/2013  23:14:00     -125.940      -10.455      -18.909       18.564       16.579       14.938      344.616      274.879      223.153        0.859        0.042      126.373       10.392        0.007      332.605        1.376      868.241
12/31/2013  23:15:00     -100.334      -23.992      -16.296       18.407       21.120       13.215      338.815      446.060      174.629        0.593        0.048      103.163        9.382        0.008      332.569        1.318      868.263
12/31/2013  23:16:00      -73.841      -14.697       -8.211       28.878       17.496       12.960      833.932      306.100      167.969        0.352        0.065       75.290       14.646        0.038      332.547        1.281      868.299
12/31/2013  23:17:00      -82.021       10.497      -14.503       13.052       11.929       10.658      170.354      142.300      113.596        0.374        0.021       82.690        5.020        0.004      333.031        2.079      868.324
12/31/2013  23:18:00      -60.286       19.873       -9.492       13.752       13.898        9.891      189.125      193.152       97.827        0.230        0.024       63.477        7.254        0.013      333.123        2.233      868.342
12/31/2013  23:19:00      -61.804        0.970      -13.375        8.675       14.344        7.911       75.260      205.758       62.589        0.217        0.017       61.812        4.504        0.005      332.958        1.961      868.341
12/31/2013  23:20:00      -67.113      -24.419      -11.646       10.283        9.185        6.352      105.745       84.369       40.351        0.273        0.012       71.418        4.674        0.004      332.775        1.657      868.316
12/31/2013  23:21:00      -82.744       -6.269      -11.961       19.535       11.827       11.368      381.603      139.873      129.233        0.384        0.033       82.981        8.703        0.011      332.665        1.475      868.291
12/31/2013  23:22:00      -66.200       -8.113       -5.755       29.014       18.064       13.649      841.828      326.320      186.303        0.292        0.068       66.695       10.432        0.024      332.670        1.485      868.275
12/31/2013  23:23:00      -68.767      -13.959       -9.240       26.510       23.840       23.419      702.805      568.351      548.467        0.341        0.091       70.169       16.910        0.058      332.746        1.610      868.277
12/31/2013  23:24:00      -61.438       -5.074       -8.761       11.759       19.319       10.883      138.279      373.229      118.445        0.225        0.031       61.647        6.705        0.012      332.646        1.445      868.291
12/31/2013  23:25:00      -54.886       21.030       -8.956        8.872       11.338        6.854       78.719      128.553       46.978        0.189        0.013       58.777        6.067        0.011      333.060        2.127      868.316
12/31/2013  23:26:00      -23.715       22.705       -4.510       19.056       11.948        9.057      363.114      142.765       82.029        0.084        0.029       32.832        7.273        0.049      333.121        2.230      868.337
12/31/2013  23:27:00       17.452       25.386       10.482       13.925       15.882        9.793      193.911      252.225       95.901        0.080        0.027       30.807        8.713        0.080      333.301        2.526      868.361
12/31/2013  23:28:00        9.470       47.928       -2.193       15.542       22.919       11.057      241.562      525.259      122.254        0.164        0.044       48.855       13.094        0.072      333.308        2.537      868.369
12/31/2013  23:29:00        0.138       98.169       -7.601       11.681       16.986        6.697      136.450      288.532       44.848        0.508        0.023       98.169        2.615        0.001      333.508        2.870      868.366
12/31/2013  23:30:00      -10.135      108.100       -9.497       15.209       21.445       13.447      231.310      459.887      180.820        0.638        0.044      108.574       13.176        0.015      333.487        2.835      868.365
12/31/2013  23:31:00      -24.623       35.845       -0.264       23.700       35.206       16.519      561.700     1239.450      272.889        0.198        0.104       43.487       11.600        0.071      333.276        2.484      868.360
12/31/2013  23:32:00      -26.906       -2.910       -6.179       14.866       10.479        7.929      220.990      109.799       62.875        0.058        0.020       27.062        3.903        0.021      333.135        2.252      868.352
12/31/2013  23:33:00      -39.586       -7.482      -11.716        9.280        9.815        6.643       86.119       96.327       44.127        0.099        0.011       40.287        2.651        0.004      333.010        2.045      868.351
12/31/2013  23:34:00      -26.911       -6.319      -19.352       16.552        9.231        9.623      273.973       85.210       92.593        0.080        0.023       27.643        9.046        0.107      333.028        2.076      868.359
12/31/2013  23:35:00       -9.115        5.476       -0.389       12.935       11.529        7.739      167.307      132.915       59.887        0.024        0.018       10.634        7.795        0.537      333.399        2.687      868.371
12/31/2013  23:36:00       -5.575        1.667        1.732       12.625        9.692        5.431      159.384       93.936       29.497        0.016        0.014        5.819        4.362        0.562      333.297        2.520      868.377
12/31/2013  23:37:00      -24.888       -5.357       -1.739       15.725        7.949        8.030      247.286       63.188       64.478        0.051        0.019       25.458        4.784        0.035      332.923        1.902      868.376
12/31/2013  23:38:00      -45.684      -12.488       -9.376       14.439        8.773        7.445      208.476       76.962       55.421        0.134        0.017       47.360        5.400        0.013      332.763        1.639      868.383
12/31/2013  23:39:00      -69.718      -23.109      -14.673        6.822        8.648        6.043       46.543       74.791       36.516        0.288        0.008       73.448        4.106        0.003      332.554        1.291      868.376
12/31/2013  23:40:00      -64.204      -27.692      -15.309        5.618        5.671        6.189       31.567       32.161       38.303        0.261        0.005       69.921        3.118        0.002      332.518        1.231      868.377
12/31/2013  23:41:00      -75.814      -34.715      -11.095       12.266        9.189        7.107      150.463       84.443       50.516        0.368        0.014       83.384        4.807        0.003      332.528        1.249      868.377
12/31/2013  23:42:00      -80.295      -35.687      -11.478       15.519        9.063        8.722      240.827       82.133       76.079        0.413        0.020       87.868        3.264        0.001      332.492        1.189      868.384
12/31/2013  23:43:00     -122.958      -30.463      -15.596       15.727       11.787        9.384      247.335      138.935       88.068        0.838        0.024      126.675        8.135        0.004      332.539        1.266      868.385
12/31/2013  23:44:00     -136.844      -44.436      -17.569       16.650       11.764        9.472      277.236      138.388       89.712        1.076        0.025      143.878        6.412        0.002      332.574        1.326      868.383
12/31/2013  23:45:00     -120.175      -37.300      -16.045       15.219       12.555        8.877      231.608      157.633       78.795        0.828        0.023      125.831        6.108        0.002      332.584        1.343      868.381
12/31/2013  23:46:00     -108.778      -32.340      -13.011       17.838       14.398       11.900      318.178      207.300      141.617        0.686        0.033      113.483       10.551        0.009      332.575        1.327      868.371
12/31/2013  23:47:00     -128.490      -22.438      -23.843        9.074       10.340        7.927       82.342      106.918       62.842        0.892        0.013      130.435        5.095        0.002      332.507        1.213      868.359
12/31/2013  23:48:00     -102.490      -22.184      -11.166       26.320       18.650       16.151      692.736      347.819      260.863        0.621        0.065      104.863       13.163        0.016      332.464        1.143      868.358
12/31/2013  23:49:00     -101.888      -34.714       -7.353       21.433       15.850       12.287      459.380      251.218      150.976        0.625        0.043      107.639        9.669        0.008      332.440        1.105      868.355
12/31/2013  23:50:00     -104.768      -29.780      -11.851       12.012        9.663        7.773      144.284       93.381       60.419        0.615        0.015      108.918        4.317        0.002      332.500        1.201      868.359
12/31/2013  23:51:00      -87.933      -41.096      -15.356        9.168       11.417        8.464       84.049      130.354       71.646        0.497        0.014       97.063        6.116        0.004      332.578        1.330      868.370
12/31/2013  23:52:00      -96.607      -33.989      -12.922        9.115        9.100        7.982       83.074       82.807       63.719        0.544        0.011      102.412        4.935        0.002      332.612        1.388      868.386
12/31/2013  23:53:00      -91.886      -37.902      -12.222        7.860        7.305        7.939       61.772       53.370       63.031        0.510        0.009       99.396        3.671        0.001      332.559        1.298      868.400
12/31/2013  23:54:00      -92.409      -48.731      -10.018        8.021        7.924        6.218       64.342       62.797       38.664        0.559        0.008      104.471        4.647        0.002      332.521        1.236      868.400
12/31/2013  23:55:00      -99.473      -48.837       -9.897        7.719        8.635        7.204       59.576       74.560       51.896        0.628        0.009      110.815        2.866        0.001      332.481        1.172      868.394
12/31/2013  23:56:00     -100.301      -50.691      -12.071        7.531        8.093        7.798       56.714       65.497       60.816        0.648        0.009      112.383        3.003        0.001      332.426        1.080      868.388
12/31/2013  23:57:00     -111.629      -58.514       -7.479       15.426       12.296       11.859      237.964      151.203      140.636        0.824        0.026      126.035        6.948        0.003      332.484        1.175      868.382
12/31/2013  23:58:00     -109.594      -59.229       -2.828       20.393       18.685       14.514      415.889      349.129      210.658        0.825        0.049      124.575       13.782        0.012      332.350        0.956      868.371
12/31/2013  23:59:00     -115.790      -53.988       -7.309       15.291       13.922       10.305      233.829      193.826      106.192        0.845        0.027      127.758        7.544        0.003      332.312        0.894      868.358
